GFSGL_sfc_thetae_000.txt.gz
Theta_e
342 341 341 340 339 339 338 340 341 342 342 341 341 341 340 339 339 339 338 336 336 336 337 339 340 345 341 342 347 350 349 347 337 337 339 346 356 353 353 356 357 358 355
340 339 339 340 340 339 338 339 340 340 341 341 341 341 340 339 340 339 336 336 334 333 334 336 337 339 341 346 343 345 345 347 342 342 341 342 350 357 356 361 359 353 356
337 337 338 338 339 338 338 338 339 340 340 340 341 339 338 338 338 338 337 334 333 332 332 330 329 332 333 338 344 342 340 345 345 343 339 340 341 346 350 357 359 358 353
335 335 337 339 338 337 338 339 339 340 340 340 341 340 339 339 338 337 335 334 332 331 329 326 325 328 333 337 337 344 344 342 344 341 339 337 339 347 348 347 350 350 349
336 336 337 339 340 338 339 340 340 339 338 340 338 338 338 336 334 336 333 332 331 329 328 323 324 325 326 327 329 339 339 342 339 340 337 336 339 342 342 344 345 348 352
338 336 338 339 340 341 339 339 339 337 337 337 337 335 336 334 324 326 328 331 330 329 326 322 323 324 323 324 324 324 332 337 341 339 336 336 342 342 342 344 343 343 340
339 338 338 340 340 340 337 338 337 337 337 335 335 335 335 336 325 324 325 330 329 327 328 326 321 322 323 322 322 322 323 329 334 345 339 340 343 344 346 345 348 348 345
339 338 338 339 339 339 337 336 336 337 335 334 334 334 334 333 322 322 324 331 332 329 328 328 324 321 322 320 318 319 322 326 339 337 344 344 347 349 349 349 353 353 354
336 337 337 338 338 338 337 336 337 335 333 332 333 334 334 333 319 319 323 330 333 330 330 329 327 323 320 318 316 316 319 327 330 329 331 332 331 331 340 348 345 343 338
335 336 336 338 338 337 337 336 336 335 332 330 331 333 329 332 321 317 322 332 331 333 330 333 322 321 315 313 314 316 317 321 333 337 339 333 332 339 329 348 347 343 342
336 334 335 339 341 340 338 337 335 335 333 333 333 333 332 328 331 316 313 329 333 330 330 324 329 315 310 309 311 319 316 319 330 334 338 342 343 344 345 343 348 344 340
338 337 339 341 339 333 340 336 334 334 333 332 332 329 327 331 319 315 311 311 318 324 326 328 328 310 306 308 314 314 315 319 331 332 332 331 336 342 343 346 348 347 350
341 339 337 334 336 339 338 336 330 330 326 323 324 323 325 326 327 315 312 310 313 316 323 321 312 308 307 315 316 316 318 320 318 317 321 325 332 342 341 343 349 350 350
336 335 336 336 336 337 334 330 328 324 325 325 323 323 323 324 325 324 322 324 316 315 318 323 319 316 313 318 321 321 322 319 318 317 316 319 322 324 330 337 338 340 343
333 333 334 332 333 332 336 327 327 318 318 320 324 324 322 321 319 301 302 314 317 316 311 324 319 317 311 316 318 321 321 322 318 317 316 316 317 320 319 323 330 336 333
332 330 329 328 327 326 328 323 302 302 299 297 297 305 318 302 296 295 295 295 296 301 320 315 312 311 305 306 305 311 315 318 321 320 317 317 316 317 319 319 321 324 321
332 329 327 322 324 329 331 324 310 305 299 297 297 297 295 295 295 294 295 295 300 307 316 313 312 311 306 303 306 306 307 310 316 315 319 321 318 317 317 319 319 320 319
329 313 325 327 330 330 327 324 319 315 315 317 301 303 298 296 296 295 296 300 316 312 312 311 309 311 309 307 306 306 307 307 312 315 316 317 318 320 319 316 316 315 316
327 328 329 325 321 317 315 311 311 313 314 315 319 308 307 299 297 299 301 314 312 310 310 308 307 305 304 305 307 309 309 307 307 310 314 315 315 317 320 321 320 312 313
322 317 318 322 317 312 312 310 310 310 312 313 313 311 312 311 310 310 309 309 308 305 304 303 303 304 304 304 305 305 306 305 307 307 307 311 311 315 315 320 323 320 321
321 322 316 318 314 313 312 312 312 311 310 311 307 303 295 307 305 304 304 304 301 301 302 302 294 293 294 294 296 300 302 301 304 306 307 309 309 308 313 317 317 319 320
320 319 320 318 316 315 315 313 311 308 308 310 307 303 296 306 304 303 302 302 300 301 302 302 299 296 294 293 292 292 295 298 299 304 307 308 307 307 309 311 316 316 315
316 315 315 316 314 307 310 311 311 310 306 309 308 306 305 306 304 300 299 301 303 302 304 302 300 299 297 298 297 293 292 294 297 301 303 305 306 306 307 304 307 311 312
311 314 314 313 312 312 311 311 307 302 306 305 305 305 306 306 305 300 301 305 304 302 301 299 298 297 297 296 295 294 291 290 296 299 301 301 300 301 305 306 307 306 304
312 313 312 310 307 308 306 307 306 305 305 304 304 304 305 304 302 302 302 301 299 299 297 297 297 296 295 294 293 291 284 282 290 286 299 299 298 299 299 299 302 303 303
311 311 309 308 306 306 305 304 304 303 302 302 301 301 300 300 300 300 300 298 298 297 296 296 296 295 294 292 289 284 282 282 288 283 293 299 298 296 297 298 298 297 298

GFSGL_sfc_thetae_003.txt.gz
Theta_e
344 344 342 341 341 342 340 340 342 344 344 342 341 340 341 341 342 343 341 340 338 339 339 338 338 341 332 335 341 342 341 344 337 336 338 343 343 351 347 355 356 358 352
342 342 341 341 341 340 340 340 342 341 343 342 341 341 340 340 343 340 338 338 337 335 334 333 331 330 334 334 335 340 341 342 339 335 338 340 347 353 353 356 353 352 354
340 340 340 341 341 341 341 340 340 340 340 340 341 340 340 339 339 339 339 337 336 334 333 331 330 329 326 324 324 338 340 341 339 338 338 342 343 347 351 355 356 355 355
337 336 339 340 342 341 342 341 341 342 341 341 342 341 339 339 339 339 338 337 335 333 333 331 329 327 324 321 321 323 328 335 338 337 340 340 341 345 347 342 345 350 349
337 337 338 341 343 343 342 342 341 340 339 340 341 339 337 337 333 338 338 335 334 333 332 332 330 327 325 323 321 321 321 321 322 338 337 339 338 339 338 342 341 351 352
339 338 340 340 341 341 341 341 340 340 340 341 337 338 339 333 327 326 330 332 333 332 330 331 332 328 325 324 323 323 322 320 320 320 337 337 340 340 340 338 343 344 342
340 340 340 340 341 341 340 339 339 340 343 341 337 337 338 339 324 328 329 330 331 333 332 331 328 329 328 324 320 321 322 323 324 325 322 333 338 342 342 343 347 345 345
340 340 340 340 340 341 340 339 341 341 342 340 338 339 338 335 322 324 327 331 332 334 335 334 333 329 328 323 319 317 318 321 324 327 333 331 339 347 347 342 348 348 352
339 340 340 340 340 340 339 340 341 341 338 337 338 337 339 339 320 320 326 330 333 334 334 335 334 329 324 319 318 316 318 320 323 322 322 324 330 331 338 348 340 345 342
340 339 340 340 339 339 341 342 341 341 335 332 333 335 329 338 326 317 322 328 334 330 333 334 324 324 316 314 317 318 316 318 318 321 327 327 330 338 329 343 348 338 341
339 339 342 341 344 343 343 334 339 338 337 336 333 336 336 332 327 317 315 329 327 327 328 328 326 315 309 308 310 318 318 317 319 325 328 335 341 343 344 345 346 345 340
345 341 343 346 338 333 343 341 340 338 336 333 331 329 323 329 323 319 314 313 320 322 322 323 328 309 305 308 313 315 314 317 319 319 332 335 338 340 342 346 347 348 347
346 346 344 343 337 337 340 342 333 337 335 322 324 324 325 324 328 316 314 311 311 320 324 318 312 308 309 315 315 314 317 319 316 315 315 317 322 338 348 347 347 350 349
345 342 342 343 340 340 339 333 330 328 325 323 323 324 322 325 323 322 322 323 320 319 322 323 320 315 310 312 314 317 318 318 319 315 314 317 321 320 329 335 338 341 343
339 337 336 333 335 334 337 327 327 320 316 321 322 323 321 321 315 301 302 314 316 315 309 328 320 315 310 310 310 313 314 314 314 318 316 315 316 318 319 324 333 339 339
335 333 330 329 328 326 327 323 301 302 298 296 296 304 315 301 297 295 296 296 296 299 315 319 317 314 309 306 309 309 310 311 315 315 316 318 316 315 315 317 321 323 319
333 331 327 324 325 327 329 329 324 310 300 298 297 298 297 296 296 295 297 299 299 303 318 317 314 312 310 309 309 309 308 310 312 317 317 316 318 318 315 314 315 315 315
331 315 325 325 327 330 327 325 325 322 319 315 302 304 300 298 297 297 297 303 315 313 315 312 310 309 307 305 306 308 308 310 310 308 314 315 318 317 318 314 314 314 315
327 328 330 327 326 322 323 320 319 314 314 313 315 304 304 299 299 298 301 314 310 309 309 309 307 306 305 306 306 307 307 307 308 309 311 311 312 317 317 319 317 310 313
327 319 322 325 322 322 319 317 314 314 314 313 312 309 312 310 309 309 309 308 306 306 304 301 299 297 296 296 297 302 303 303 306 308 309 309 310 311 314 319 320 319 319
325 325 317 322 319 318 318 313 314 316 315 313 306 304 295 306 305 306 305 306 304 303 305 305 302 296 295 294 294 295 298 301 301 304 308 308 308 304 309 311 317 318 315
325 323 322 320 317 317 317 316 314 312 312 311 306 303 298 305 304 304 306 307 306 306 307 306 304 301 301 298 297 295 294 297 300 302 304 305 306 309 307 307 309 313 311
318 316 314 314 314 307 312 312 314 312 311 310 309 307 306 304 304 304 306 308 308 306 305 303 301 301 301 299 298 295 293 294 299 301 301 302 302 303 307 308 307 306 307
310 309 310 311 313 310 312 311 311 302 307 307 307 307 307 307 305 304 306 307 305 302 301 300 299 298 297 297 296 294 291 291 296 297 300 300 299 300 301 303 305 305 305
316 314 310 310 309 308 310 307 308 307 306 307 307 306 306 305 304 304 303 302 301 301 299 299 299 298 296 294 292 291 285 282 290 285 297 301 300 300 300 299 299 299 301
312 311 309 309 307 307 306 306 306 306 305 304 304 304 304 303 302 302 302 301 301 299 298 298 298 297 296 293 290 284 283 283 287 283 290 300 299 298 298 299 299 299 299

GFSGL_sfc_thetae_006.txt.gz
Theta_e
349 351 352 347 347 350 348 347 349 351 351 348 347 344 343 342 344 342 342 340 336 339 338 336 336 334 329 328 327 326 324 323 323 328 334 339 341 341 344 349 350 349 350
348 351 350 349 349 349 348 347 350 349 350 348 346 344 341 341 342 339 339 338 337 335 336 335 334 330 329 327 324 322 322 322 322 325 331 335 338 340 340 342 346 347 347
346 343 347 348 347 348 348 349 348 348 346 346 345 342 341 341 341 340 339 338 338 337 336 333 333 331 327 325 324 321 321 320 320 320 327 334 337 339 340 343 342 343 345
340 342 346 346 347 347 349 350 348 347 346 345 345 344 341 341 340 339 338 337 335 336 336 333 332 330 327 324 322 321 319 317 318 318 320 327 334 336 338 336 339 345 344
343 344 346 349 348 349 348 348 347 347 346 346 344 343 343 340 335 339 338 337 336 334 335 333 331 332 329 327 323 322 319 316 316 316 317 320 325 332 333 334 336 339 343
337 342 347 347 346 346 347 348 347 347 346 346 342 341 341 337 329 333 334 336 335 333 331 332 331 331 330 328 326 325 322 317 315 315 316 315 318 327 334 334 334 335 333
344 344 345 346 345 346 346 346 346 347 346 344 342 341 340 339 326 327 331 333 332 331 332 331 329 330 329 327 326 324 323 321 321 319 317 318 319 323 331 334 333 333 333
344 344 344 345 344 346 345 345 347 346 345 342 340 341 339 337 324 323 327 331 332 332 332 331 328 328 329 327 324 322 322 319 320 321 321 321 322 326 327 335 336 335 339
342 343 344 344 344 344 344 344 346 343 342 341 341 339 337 338 323 319 322 330 330 329 333 331 330 327 325 320 320 320 317 318 322 321 320 320 321 323 325 331 332 330 331
341 343 345 346 345 344 344 344 342 346 341 336 335 338 333 339 319 318 323 322 323 326 330 331 323 321 315 312 316 317 316 317 317 319 319 323 321 321 322 325 331 331 329
344 345 346 347 347 347 348 346 343 338 336 337 337 337 337 334 329 320 317 323 324 325 323 324 328 314 308 308 309 318 314 315 318 319 317 319 328 325 324 327 334 338 332
349 347 348 349 342 337 346 344 338 341 336 335 335 330 328 330 319 318 317 315 319 322 322 324 326 306 305 307 312 312 313 315 317 317 316 316 317 329 329 336 336 338 342
354 352 351 352 347 348 343 339 339 335 334 336 330 325 323 327 330 318 314 312 314 317 324 319 310 306 307 310 310 311 314 315 314 314 315 316 317 321 333 338 340 339 339
351 351 351 348 348 345 340 341 330 335 331 329 324 328 327 328 320 315 317 320 318 320 317 318 318 313 309 311 312 313 313 313 315 314 315 318 319 317 319 324 336 337 335
347 348 347 341 340 337 320 317 328 312 312 322 318 320 317 319 310 301 301 309 312 309 303 318 323 316 310 309 310 312 311 312 311 315 315 316 317 315 316 318 322 329 332
341 338 336 335 326 334 324 317 301 300 297 296 297 305 309 301 298 296 296 296 297 298 311 317 313 312 309 307 307 308 310 311 310 311 314 313 317 316 314 316 317 316 315
338 337 333 325 330 330 330 328 323 309 301 299 299 299 299 298 297 296 297 298 302 304 315 311 309 309 307 306 305 307 306 308 311 310 310 311 312 317 316 314 315 314 313
334 316 329 329 329 329 327 325 324 324 319 318 301 302 299 300 299 298 298 303 314 311 311 308 306 305 304 304 304 304 305 306 307 310 310 309 311 312 317 316 315 314 313
329 327 329 328 325 322 323 321 319 318 317 316 316 304 304 299 300 300 302 311 309 307 306 302 301 298 297 297 297 298 302 300 302 306 307 307 307 308 309 317 317 312 312
327 319 321 327 322 322 319 318 317 315 313 313 311 307 307 308 308 308 308 307 306 305 302 299 297 295 295 295 294 295 296 300 301 301 305 306 307 306 307 311 314 312 315
322 323 317 324 320 318 316 315 314 314 313 311 308 304 296 307 305 306 306 306 306 306 307 306 304 302 299 299 296 295 296 297 300 301 301 302 303 307 307 307 308 310 307
320 320 320 321 318 318 317 317 314 312 311 309 307 305 298 306 304 304 306 307 307 309 307 306 304 302 301 299 295 294 294 295 298 299 300 300 300 302 304 307 306 305 305
320 319 317 312 311 308 312 312 312 311 311 310 309 306 305 305 304 303 304 307 308 305 304 302 301 299 299 297 295 293 291 291 294 296 295 299 299 300 300 302 303 303 304
315 313 312 312 312 311 311 310 310 305 306 307 307 306 305 306 305 304 304 305 305 302 302 301 299 296 295 294 293 291 289 287 291 291 294 300 297 298 299 299 299 299 302
313 313 312 311 311 309 309 308 308 307 306 305 305 304 304 304 303 303 302 302 301 301 300 299 299 296 294 292 290 288 285 283 288 285 292 299 299 297 299 298 299 299 299
312 311 311 310 308 308 306 306 306 306 305 305 304 303 303 302 301 300 300 300 300 299 299 299 298 297 295 291 288 285 283 283 285 284 288 299 295 297 296 298 298 297 299

GFSGL_sfc_thetae_009.txt.gz
Theta_e
341 339 339 339 337 336 334 332 333 334 335 334 334 333 332 332 333 332 330 330 329 328 328 327 326 324 321 320 319 317 315 315 313 316 319 323 329 332 336 344 343 342 342
340 340 336 331 332 334 333 332 333 333 334 334 333 333 333 332 331 330 328 330 328 327 327 325 326 326 321 319 317 316 314 315 315 311 316 319 323 328 334 336 339 343 346
338 339 335 333 331 331 333 333 333 332 332 331 333 331 331 331 330 331 329 329 327 327 327 326 324 323 319 319 318 316 315 317 315 313 313 318 321 325 328 335 337 337 341
339 338 335 334 333 333 334 334 334 333 332 333 333 332 331 331 331 332 331 327 328 327 328 327 324 323 321 320 318 316 316 313 313 312 313 315 318 321 324 326 330 336 337
336 335 334 335 334 335 334 335 334 333 334 333 332 331 331 333 333 326 329 331 330 326 327 326 326 326 330 325 321 319 316 317 313 312 312 314 315 316 317 321 324 332 335
334 334 337 336 335 335 334 335 333 332 333 333 331 330 330 333 328 328 328 324 326 324 323 324 324 329 326 328 328 328 325 318 313 313 314 313 315 316 319 318 320 325 326
333 334 335 336 334 334 335 335 335 333 331 329 330 330 328 329 327 327 328 323 322 323 323 322 323 327 326 323 323 325 325 325 324 319 315 316 316 318 318 317 318 322 327
332 333 334 334 334 334 333 333 333 331 329 329 329 328 329 329 324 323 325 321 323 324 324 323 322 322 322 321 318 316 317 318 319 319 319 318 319 320 319 319 319 321 329
332 333 335 334 333 333 334 333 332 331 330 331 330 328 327 326 319 319 320 319 320 319 322 323 322 320 318 316 313 312 314 317 320 320 319 319 320 320 321 319 318 319 320
333 334 336 335 334 334 334 334 332 331 329 328 324 328 325 321 319 318 318 317 313 317 320 321 321 316 312 311 311 313 315 314 314 316 317 318 320 321 322 321 318 320 322
333 335 336 336 335 335 335 333 332 330 322 322 324 326 325 323 319 317 315 315 318 317 315 316 315 310 307 307 308 313 312 313 315 315 316 317 319 320 321 321 321 319 323
335 335 337 337 338 338 335 334 331 328 325 324 322 323 321 322 316 314 315 313 317 311 311 315 311 306 306 307 308 310 311 313 314 314 314 314 316 317 318 322 321 321 326
337 336 337 338 338 331 332 331 327 326 326 324 321 320 317 319 316 314 311 311 313 311 313 312 307 305 306 307 310 311 312 312 312 312 312 314 315 319 319 327 324 322 328
326 336 335 336 333 332 329 326 324 323 320 320 318 315 316 315 307 306 308 308 311 309 308 305 312 309 308 308 309 311 312 311 311 309 311 314 316 318 317 318 322 330 329
321 324 333 333 329 318 313 313 319 305 307 313 310 310 309 306 303 299 301 304 303 303 300 308 311 305 303 303 306 309 309 309 309 309 310 310 312 316 316 318 316 316 319
321 328 328 326 323 319 312 305 300 300 297 297 298 305 302 301 298 297 296 295 296 297 303 305 303 302 301 304 304 305 306 306 307 309 309 309 309 312 316 316 316 315 314
329 324 324 318 320 320 313 309 304 302 300 298 298 299 300 300 298 297 297 296 300 304 304 302 300 300 301 300 299 301 300 302 303 307 308 307 307 310 313 315 315 314 313
324 316 319 319 320 319 319 319 316 309 307 305 299 300 299 298 297 297 299 304 305 303 299 297 295 295 296 296 296 296 298 300 301 301 306 306 307 307 309 313 313 314 313
322 321 320 317 316 317 315 313 312 311 310 310 305 302 301 299 298 299 301 303 300 298 296 293 293 291 293 294 294 295 296 297 300 300 301 301 303 307 307 310 309 306 309
317 317 317 317 317 315 313 311 310 308 307 306 304 303 301 302 301 303 303 302 301 300 297 294 292 291 291 291 291 294 295 295 297 297 298 299 299 304 305 306 306 305 306
319 317 318 314 313 311 309 308 308 308 307 305 303 299 296 301 299 299 300 300 299 301 299 298 296 293 292 291 289 289 290 293 293 294 294 296 297 298 303 303 304 304 303
317 315 315 316 312 311 312 310 309 306 305 303 299 298 298 300 299 298 302 303 303 303 301 296 295 293 291 288 287 286 287 288 290 290 291 293 295 296 297 300 300 302 302
317 314 309 307 308 307 307 309 306 308 306 305 303 300 299 299 298 297 298 300 301 296 295 293 292 290 289 287 286 286 285 284 285 289 288 291 294 294 296 295 295 297 299
309 308 307 306 306 306 307 302 301 303 303 301 303 302 301 300 299 299 298 298 295 294 294 292 290 288 286 285 285 284 282 282 284 285 287 290 292 293 294 294 294 295 296
309 308 308 307 305 303 302 300 301 302 300 300 300 298 299 300 299 299 298 294 294 292 292 292 289 288 286 285 283 282 282 282 284 285 287 291 292 292 292 293 293 293 294
309 309 307 304 302 302 299 299 299 299 299 298 298 297 297 295 295 294 293 293 292 292 292 292 291 288 287 285 284 284 282 282 283 284 287 291 288 290 290 291 292 292 293

GFSGL_sfc_thetae_012.txt.gz
Theta_e
336 333 332 333 333 331 330 330 330 329 331 332 332 331 330 329 330 329 328 328 326 325 326 325 324 323 319 319 318 315 313 313 309 311 312 315 316 317 320 324 329 335 340
337 335 334 335 334 331 330 330 330 330 331 331 330 330 330 330 329 327 327 327 326 325 325 324 324 326 320 319 317 315 314 313 313 313 315 314 314 317 319 320 325 331 337
337 335 333 332 330 330 330 330 329 329 329 329 328 327 328 328 327 327 327 327 326 326 326 323 323 322 320 318 317 316 315 316 314 315 314 315 315 316 316 319 321 325 333
338 335 334 329 328 329 331 330 329 329 328 328 328 329 330 329 328 328 328 327 326 328 325 324 324 322 321 319 318 318 316 313 315 315 314 315 314 315 316 315 316 320 322
336 336 334 332 331 329 330 332 330 330 329 329 329 329 329 329 331 329 326 326 325 324 324 324 324 326 328 324 321 319 316 315 317 317 315 315 313 313 313 316 316 318 319
334 335 335 332 332 331 332 332 330 330 329 329 329 329 326 329 329 327 325 321 322 322 321 322 322 327 327 328 328 327 324 317 316 316 316 314 314 315 316 315 316 314 312
335 335 333 333 332 332 332 331 330 328 328 328 329 327 327 326 325 325 328 322 320 319 319 320 321 324 326 322 323 324 323 323 323 318 315 315 314 316 317 316 315 315 314
332 332 334 334 332 332 332 331 331 330 330 328 326 328 326 326 324 322 325 320 319 319 320 320 319 320 320 319 315 313 313 314 315 317 317 317 317 317 317 317 316 317 318
331 331 333 333 332 331 330 330 330 329 327 326 327 327 324 325 320 319 320 318 316 315 316 318 318 317 318 317 312 311 310 312 319 319 318 318 318 319 319 318 315 314 312
331 332 333 333 332 331 331 331 330 329 329 327 324 325 324 324 318 316 316 316 312 312 316 316 317 314 312 311 309 308 310 313 312 313 314 316 318 318 320 319 319 314 313
331 332 331 333 332 332 332 331 331 327 323 324 324 325 325 323 321 314 313 314 314 314 312 311 311 310 307 307 307 306 310 311 312 314 314 315 316 316 317 320 320 320 315
331 333 334 334 335 334 331 330 327 324 324 322 322 319 321 319 314 312 312 309 312 310 309 309 307 306 305 306 307 309 311 312 312 311 312 312 313 313 315 319 321 321 321
323 321 322 325 326 331 331 328 325 323 321 320 319 319 316 315 309 308 308 309 311 307 308 307 307 304 304 305 308 310 311 310 310 308 308 309 312 314 315 319 321 322 320
324 324 322 324 321 323 328 326 324 322 320 319 317 314 312 308 305 305 306 305 308 307 305 303 308 308 307 306 305 307 309 309 307 307 308 310 312 313 313 318 316 319 318
322 321 321 322 326 321 316 314 315 306 309 312 310 310 310 305 304 300 299 302 302 300 301 306 304 302 300 300 300 305 307 304 302 305 307 307 308 309 312 316 317 316 314
321 320 320 324 321 315 308 304 299 299 297 297 300 303 301 301 298 297 295 295 294 296 301 300 299 299 298 297 296 300 300 300 300 302 305 306 306 307 310 313 314 315 313
319 318 323 319 319 313 308 307 304 304 300 297 296 298 299 298 296 295 295 295 297 300 299 297 295 294 293 292 293 296 296 299 300 300 304 303 304 307 308 310 310 310 312
322 316 317 316 317 312 309 308 305 304 303 302 299 299 297 297 297 296 298 300 298 296 294 292 291 290 290 290 291 292 295 296 298 298 299 299 300 305 305 305 307 307 309
320 318 318 317 316 314 313 313 310 308 306 303 301 300 300 298 297 297 299 301 298 294 292 291 291 290 289 289 289 291 293 293 295 295 295 296 297 301 303 304 305 303 305
318 318 316 314 313 311 310 310 309 307 305 302 301 301 304 300 299 299 299 299 298 295 294 293 292 291 290 289 288 287 290 291 291 291 292 293 295 296 299 302 303 303 303
319 317 317 314 311 310 308 307 306 305 305 302 301 300 298 299 298 297 297 297 297 297 295 293 293 291 289 286 285 285 287 288 288 288 290 292 293 294 295 297 300 303 303
317 316 315 313 312 309 308 307 308 305 305 302 297 297 296 298 297 297 298 302 302 298 293 291 289 287 285 284 284 285 284 284 285 287 288 290 292 293 294 295 295 298 299
315 313 313 312 310 309 308 310 310 305 305 303 301 300 298 297 296 296 297 298 295 292 291 289 287 285 285 284 283 283 282 282 282 285 286 290 291 291 292 293 294 294 295
309 308 307 305 304 303 304 305 304 301 304 305 302 299 298 298 297 297 297 295 293 291 289 288 286 284 283 282 282 281 281 281 283 283 286 289 290 290 291 291 293 293 294
306 306 304 304 303 302 301 299 300 299 298 300 301 299 298 298 297 297 296 292 291 290 289 287 285 285 283 282 281 281 282 282 284 286 287 288 289 289 289 289 290 292 292
305 306 307 307 307 305 302 299 297 298 297 296 296 296 299 298 296 295 293 291 290 290 289 287 286 285 284 283 282 283 282 282 284 284 287 287 287 288 288 288 290 290 291

GFSGL_sfc_thetae_015.txt.gz
Theta_e
336 330 327 327 329 329 329 328 329 327 327 328 329 328 329 328 327 326 326 326 325 323 323 324 324 323 320 318 317 315 312 311 308 309 311 313 313 314 316 317 320 321 324
336 331 329 329 329 329 329 328 328 327 328 329 330 329 328 328 328 326 325 326 325 324 324 323 324 325 321 318 316 315 313 312 310 308 311 314 312 316 316 315 317 321 322
336 331 330 331 331 330 330 329 328 328 328 330 328 327 327 327 326 326 325 325 325 324 324 323 323 321 319 318 317 316 315 316 313 314 315 319 318 316 315 316 316 317 320
335 332 330 331 333 332 331 330 329 328 327 327 326 326 326 327 327 327 326 325 325 325 324 323 323 321 320 319 318 318 317 315 313 314 316 316 316 317 314 313 313 316 316
335 333 331 332 334 332 332 331 330 329 329 327 327 327 328 329 330 326 326 326 323 323 323 323 322 325 329 325 320 319 316 315 314 316 315 315 314 313 311 314 313 314 316
336 333 333 333 332 329 329 330 330 328 329 328 327 327 327 329 327 328 329 321 321 320 319 320 320 325 325 328 329 328 323 316 315 315 316 314 313 313 314 312 312 312 310
336 334 334 334 334 332 331 330 328 329 328 328 327 328 327 326 324 324 328 323 321 318 317 317 318 322 324 321 323 324 323 324 324 317 313 313 312 314 313 312 313 312 312
332 334 335 334 332 332 331 330 329 330 328 328 327 326 326 327 322 322 325 323 319 318 317 317 316 315 317 318 316 313 312 312 313 314 314 315 315 316 314 315 314 314 315
332 333 335 334 331 331 329 330 329 329 328 328 326 324 325 326 320 318 319 319 317 315 314 314 316 315 317 320 311 309 309 309 316 318 318 317 317 318 319 317 313 312 310
333 332 333 334 333 331 330 330 329 329 328 327 324 324 324 326 320 316 316 316 313 312 313 314 315 313 313 311 307 305 308 308 311 312 312 314 316 316 319 317 315 311 311
331 331 331 330 330 330 329 330 330 327 324 323 323 325 326 324 322 315 313 314 313 313 311 309 310 311 307 307 308 304 305 308 311 312 312 311 313 314 314 316 317 315 312
330 329 326 329 333 331 329 325 321 323 325 322 322 322 321 321 314 312 311 312 314 310 308 308 307 306 304 306 306 309 310 311 311 310 308 309 310 311 313 315 317 318 322
323 322 323 323 327 327 326 319 318 319 324 322 320 317 316 314 309 307 307 308 310 307 307 306 306 303 303 305 307 309 309 308 307 304 306 308 310 310 312 315 317 319 321
323 322 321 321 320 322 323 322 322 323 322 319 318 316 313 308 306 305 305 304 307 306 304 301 307 306 305 305 302 302 306 307 303 301 303 307 308 309 309 313 313 315 317
320 320 320 322 323 321 310 308 316 310 311 318 315 313 310 306 305 302 300 302 301 299 301 303 302 299 299 297 296 299 303 299 297 299 301 303 304 306 308 311 312 312 313
317 317 316 318 319 317 311 305 301 299 297 297 301 305 301 301 299 297 295 295 293 294 301 300 298 296 293 292 292 293 296 299 299 298 299 301 300 302 306 308 310 309 311
315 315 315 316 317 315 309 305 303 302 297 295 295 297 299 298 296 296 294 294 295 298 300 295 293 292 291 290 290 290 291 294 297 298 296 297 298 299 304 305 307 307 309
316 313 317 318 316 312 309 308 306 303 301 301 297 298 296 296 296 297 296 298 298 296 296 294 289 288 288 288 288 288 290 291 292 292 293 294 295 296 301 302 304 304 306
318 317 316 315 316 312 310 307 305 304 302 301 300 299 299 297 296 297 297 298 295 292 293 290 289 288 288 287 287 287 289 289 290 289 291 292 293 294 295 299 302 303 304
315 315 315 314 313 311 311 309 307 305 303 301 301 301 299 300 299 298 297 297 294 293 291 291 290 289 288 286 284 285 287 287 287 287 288 289 292 293 293 295 298 300 302
314 313 315 313 311 310 310 309 308 306 304 302 302 300 298 299 297 296 296 296 296 295 293 292 291 289 284 283 284 285 285 285 285 286 287 289 291 291 293 294 295 297 299
314 313 312 310 310 311 310 309 306 306 305 302 299 299 296 298 296 296 296 297 301 298 294 290 287 284 283 283 283 283 283 283 284 285 286 289 289 290 292 293 293 294 295
312 311 311 310 311 309 308 306 306 306 307 305 302 301 300 297 296 295 296 296 293 291 289 287 285 283 283 282 282 282 282 282 282 283 285 288 288 289 290 290 291 292 292
310 310 310 310 311 308 306 306 304 304 304 301 300 301 300 298 296 296 296 294 291 289 288 286 284 283 282 281 281 280 280 281 282 283 286 287 287 288 289 289 290 290 291
307 307 306 308 307 303 301 299 299 299 302 301 300 299 298 297 296 296 295 291 290 288 287 285 283 282 281 280 280 280 282 282 284 286 286 287 287 288 288 288 289 289 290
304 305 304 305 305 303 300 301 300 298 297 298 299 298 298 298 297 296 294 290 289 288 287 285 284 283 283 282 281 283 282 282 285 285 285 286 286 286 287 288 289 288 288

GFSGL_sfc_thetae_018.txt.gz
Theta_e
341 337 333 329 328 328 329 331 330 330 331 332 333 332 332 332 333 331 331 331 330 330 330 328 329 329 328 326 324 322 320 318 314 318 317 321 321 323 323 324 323 323 323
341 337 333 330 330 330 330 331 331 331 331 332 332 332 332 333 333 331 331 331 330 329 330 329 329 329 328 328 324 324 322 320 317 317 321 319 321 324 323 321 322 322 323
341 336 332 329 330 331 332 331 330 330 330 332 332 332 332 332 332 332 330 330 330 329 329 329 329 328 327 326 324 324 323 322 319 318 318 322 322 324 322 323 323 323 323
340 337 332 329 330 331 332 332 330 330 330 330 332 332 330 331 330 331 331 330 330 330 330 329 328 328 327 327 325 324 324 322 321 318 318 319 320 324 321 319 318 321 320
339 336 333 332 333 333 334 334 333 330 330 330 331 330 330 329 330 332 332 331 330 330 329 329 328 328 328 328 327 327 323 322 321 318 318 318 317 320 318 320 317 318 319
338 335 333 333 333 332 330 329 330 332 330 330 330 330 330 331 328 328 332 331 330 327 327 327 326 326 326 326 327 328 327 324 321 320 319 317 318 320 320 318 316 314 312
338 333 332 331 330 330 329 329 330 331 330 330 330 330 331 331 325 325 328 332 328 327 326 325 324 325 325 324 323 323 324 324 325 324 318 319 318 319 319 317 316 315 314
335 332 331 328 329 330 330 328 330 332 330 329 330 330 331 332 323 321 324 330 329 327 324 323 323 321 322 322 321 321 320 319 319 318 317 318 319 320 319 318 314 314 316
334 332 331 330 330 331 332 331 332 331 331 330 331 331 330 331 320 320 323 327 325 324 321 320 320 322 318 318 319 317 315 315 316 316 317 317 316 317 318 316 315 312 309
334 334 334 332 331 333 332 332 333 332 332 331 327 328 325 328 320 318 321 324 321 319 319 320 316 316 312 311 314 312 311 313 313 313 315 316 316 317 317 318 315 311 310
335 336 335 335 335 334 332 332 331 329 329 326 326 326 327 326 327 318 316 319 320 318 318 316 316 312 308 307 308 312 311 312 312 312 312 312 313 314 316 318 318 313 310
333 333 332 332 333 332 332 330 329 327 325 325 325 325 326 326 318 317 310 313 316 319 317 315 314 307 305 306 308 308 309 310 311 310 308 308 309 311 313 314 315 315 317
329 330 332 332 332 332 330 326 323 321 322 324 325 325 326 321 316 308 306 308 309 313 313 311 306 303 303 306 306 307 308 309 308 305 304 305 308 310 312 312 315 315 316
326 326 327 328 327 327 326 323 321 322 323 324 325 323 321 317 313 311 311 311 309 311 307 308 309 308 306 306 305 304 307 307 305 303 303 305 307 308 307 311 310 311 311
326 325 323 322 322 314 308 310 321 314 318 324 323 322 318 313 312 306 306 308 308 305 306 308 308 306 304 302 301 301 302 303 302 302 302 302 303 304 304 309 310 309 309
321 321 320 322 322 316 312 306 299 298 297 297 299 310 308 304 299 298 296 296 295 296 306 307 305 302 301 299 298 298 299 299 298 299 300 300 300 300 301 306 308 308 308
320 320 320 318 320 315 314 311 307 303 296 295 296 297 299 298 296 295 293 294 293 297 306 303 301 299 297 296 295 295 296 297 297 297 297 297 298 298 300 302 305 306 307
321 310 317 319 320 315 314 311 309 308 307 305 298 298 295 295 295 294 294 298 303 301 301 300 297 295 295 294 294 293 295 295 296 295 296 296 297 297 298 300 301 302 304
322 322 320 320 319 314 313 311 309 308 307 305 305 302 299 295 295 295 296 305 303 299 297 296 295 295 295 294 292 292 294 294 294 294 295 295 296 296 297 299 299 300 303
321 317 317 318 315 313 312 310 309 308 306 306 306 307 305 303 304 304 303 302 301 298 297 297 296 296 295 292 291 292 294 293 293 293 294 294 296 296 297 297 299 300 301
319 318 316 317 316 314 313 311 311 309 308 307 308 306 300 306 304 303 302 302 302 301 299 298 297 296 292 291 292 293 292 292 292 292 293 294 295 295 297 297 298 299 300
318 318 317 316 314 313 314 313 312 312 310 309 307 305 295 306 304 303 302 303 304 304 302 299 296 292 291 292 292 292 292 291 292 292 293 294 295 296 296 296 297 297 298
318 316 315 315 315 312 313 311 310 311 311 309 307 306 303 304 303 303 303 303 303 299 297 294 293 291 290 291 290 291 291 291 291 291 292 293 295 295 296 296 296 296 296
315 315 314 313 313 313 312 311 311 306 310 309 308 306 305 304 303 302 302 302 298 296 295 293 292 290 289 290 290 289 289 290 291 292 292 293 295 295 295 295 295 295 295
314 314 314 314 313 313 312 309 309 309 309 308 307 306 305 304 303 302 302 301 297 295 294 292 291 289 288 288 288 288 287 283 289 287 293 294 295 295 295 295 295 295 295
307 309 310 310 309 309 307 307 304 305 305 305 306 305 304 304 303 302 302 300 297 295 294 292 291 289 288 288 288 286 283 283 289 285 294 294 294 295 295 294 294 294 294

GFSGL_sfc_thetae_021.txt.gz
Theta_e
356 358 357 353 350 340 343 336 337 340 341 344 343 343 343 343 343 343 342 341 340 341 341 340 340 341 337 336 337 335 332 330 324 325 328 331 332 332 333 335 334 333 330
356 356 353 348 337 343 340 340 339 338 339 340 341 342 342 343 343 342 340 338 339 338 338 339 339 337 339 342 339 338 334 334 328 325 330 330 332 334 334 333 332 331 331
354 351 349 337 342 339 337 338 336 337 336 337 339 340 340 341 341 342 341 339 338 337 338 339 338 339 337 339 338 335 333 333 331 325 325 329 330 331 329 331 331 332 331
352 350 346 340 342 341 339 336 332 334 334 335 337 338 340 341 341 340 339 339 339 339 339 340 339 337 337 338 337 337 336 333 332 324 325 325 327 330 328 325 324 327 326
353 350 346 342 344 342 341 338 331 333 334 337 335 337 339 339 338 339 339 340 341 339 340 340 339 337 334 332 332 333 334 330 327 326 325 325 324 324 323 325 323 324 326
351 349 346 342 343 342 341 339 337 332 335 337 335 335 337 337 329 329 336 340 341 339 337 339 339 333 332 329 328 328 330 330 329 327 324 323 323 325 324 323 322 319 317
350 348 343 343 342 341 339 339 338 337 337 336 336 337 338 338 327 327 331 339 340 340 339 339 336 333 330 331 327 325 325 325 326 327 323 323 324 325 325 321 320 319 319
349 345 343 342 341 342 339 337 339 339 336 337 338 339 339 340 325 323 327 338 339 339 340 339 336 334 331 328 327 327 328 328 329 326 326 325 325 324 323 320 318 319 322
347 344 344 343 341 340 337 337 340 340 338 337 339 339 339 341 320 320 323 331 330 330 336 334 331 329 324 318 324 325 325 325 323 318 317 317 317 317 318 316 314 317 316
347 345 344 343 341 338 338 338 340 339 339 337 338 339 333 339 319 317 322 325 325 326 327 326 319 324 315 314 323 324 321 322 321 321 321 321 321 322 320 321 318 315 317
348 346 343 342 340 340 340 340 339 339 338 338 338 339 336 336 328 315 315 323 324 323 324 326 326 313 310 309 309 322 319 316 317 318 318 318 319 321 321 322 322 319 317
344 343 341 342 339 339 340 339 340 339 338 338 336 330 336 338 319 315 313 314 323 327 328 327 324 309 307 307 310 309 309 310 316 316 315 315 315 316 317 318 319 319 321
344 342 339 339 340 339 338 340 338 338 338 336 328 329 331 331 329 311 309 309 313 324 325 317 309 304 305 308 308 307 307 315 313 312 312 312 313 314 316 315 318 321 321
341 340 340 340 339 339 338 337 335 334 333 329 329 328 328 326 326 321 319 319 312 316 311 318 314 312 307 308 311 312 313 312 309 309 309 310 311 311 309 311 313 314 314
339 339 338 335 334 327 320 321 328 329 321 328 329 328 326 327 326 315 316 322 322 314 315 319 317 317 316 316 314 312 311 310 307 307 307 307 307 306 306 310 312 314 311
335 334 332 332 328 324 320 316 299 299 298 299 301 318 321 305 299 299 298 297 297 298 313 316 316 316 315 312 310 308 309 306 306 305 305 305 304 304 304 308 311 309 310
331 329 328 327 326 322 321 321 318 305 297 295 296 297 300 299 296 294 294 293 294 298 314 315 315 313 311 309 306 305 304 304 305 304 304 304 304 303 304 306 309 305 311
328 314 327 327 327 324 323 325 323 319 316 312 298 301 295 295 294 294 295 299 309 308 315 314 311 308 307 306 304 303 302 303 303 303 303 303 303 303 303 304 308 307 308
329 328 326 325 327 324 326 323 322 320 317 315 312 304 301 294 295 296 297 312 311 310 310 309 307 306 306 306 303 301 300 301 300 302 302 302 302 302 302 303 307 304 305
329 321 324 329 325 325 324 322 320 319 317 316 316 316 313 309 311 312 312 312 310 310 308 306 306 307 307 303 301 300 301 302 302 301 301 302 302 302 301 302 305 305 306
330 328 321 327 326 326 324 322 321 319 318 317 318 315 305 314 312 311 310 310 310 309 308 308 307 307 304 302 301 302 303 303 301 301 301 301 302 301 302 302 303 305 303
328 327 326 326 325 324 323 323 322 320 319 318 317 313 298 312 313 311 310 310 311 311 311 310 308 304 302 301 302 303 302 301 301 300 300 301 301 301 302 302 302 303 305
328 327 326 326 325 318 321 323 321 319 318 315 316 315 312 313 312 311 310 311 311 310 309 306 304 302 300 300 302 302 301 299 299 300 299 300 301 300 301 301 301 301 302
326 326 325 325 323 322 323 322 320 312 315 314 316 316 315 315 314 311 310 310 309 308 306 304 303 300 298 298 301 301 301 300 300 300 300 300 300 300 301 301 301 301 301
324 324 323 323 322 321 321 321 319 317 314 317 315 315 315 315 314 312 310 310 309 307 304 303 301 299 295 295 296 296 291 283 293 288 300 300 301 301 300 300 300 300 301
317 320 321 322 321 321 321 320 318 318 317 314 314 315 315 314 314 313 310 309 308 306 304 302 300 297 295 295 295 289 283 283 292 284 297 301 300 299 299 299 299 299 300

GFSGL_sfc_thetae_024.txt.gz
Theta_e
364 365 366 361 362 362 361 360 356 352 350 349 349 347 347 345 347 347 346 342 342 343 342 341 341 344 338 336 336 336 334 332 326 328 330 335 338 339 338 339 338 338 336
363 367 363 364 362 360 358 354 352 349 348 347 345 345 345 346 347 345 343 340 340 340 340 341 340 338 341 342 335 338 335 336 330 332 334 332 338 338 338 338 336 335 334
359 359 361 361 359 356 354 352 347 345 346 341 344 343 344 345 346 346 344 341 341 340 341 340 340 340 339 337 337 334 333 335 333 330 329 331 332 333 335 336 335 338 332
356 358 362 360 359 356 356 349 344 346 345 343 339 344 345 345 344 343 343 343 342 341 342 342 341 340 339 339 338 337 337 334 334 329 328 329 329 332 332 328 327 329 328
357 357 360 364 357 355 358 352 349 347 344 343 341 342 344 342 340 343 343 341 341 342 342 342 342 341 338 336 334 337 338 332 329 326 324 326 326 329 330 328 325 326 329
357 358 361 359 354 357 355 352 348 348 346 345 343 342 343 339 330 332 340 341 341 342 341 342 342 339 336 331 330 330 331 331 329 326 325 327 329 328 327 325 324 322 320
359 360 360 358 354 353 352 349 349 344 341 345 343 343 342 343 327 328 332 340 340 343 343 344 340 337 336 338 332 328 327 326 326 329 327 327 327 328 328 326 324 322 321
360 359 359 356 353 352 352 349 347 341 343 342 343 344 344 341 326 325 329 339 342 342 335 334 333 333 339 336 333 333 332 333 333 331 331 330 329 329 326 324 323 322 323
357 358 357 354 352 350 349 349 346 343 342 342 342 343 344 344 323 322 328 339 338 332 332 332 332 331 328 323 330 329 330 330 327 322 320 318 318 319 320 321 319 317 318
356 356 356 355 353 350 348 348 347 344 340 340 341 345 336 344 318 318 328 338 334 331 330 330 323 322 322 317 327 328 326 327 328 327 326 324 322 325 322 324 320 319 320
356 356 355 355 352 350 349 347 345 343 342 342 342 343 343 342 340 315 317 334 331 332 329 326 329 319 312 311 312 326 324 322 322 322 322 320 322 324 323 326 326 321 317
357 355 353 352 348 346 345 342 343 340 338 340 342 342 343 346 325 314 313 315 326 330 330 334 331 312 308 309 312 312 310 310 319 320 318 318 319 319 320 320 323 323 321
355 352 349 346 346 345 342 341 338 339 338 338 341 339 339 337 332 313 310 311 314 329 330 313 309 308 306 309 310 309 308 317 319 316 315 316 317 317 320 321 323 328 328
349 346 344 342 340 342 341 341 339 338 336 336 339 335 333 332 328 329 326 316 316 321 314 323 317 314 312 311 315 313 318 319 316 314 315 315 316 315 313 313 310 312 316
346 345 340 339 337 331 324 321 333 325 323 337 332 333 330 330 330 317 318 329 329 320 323 326 322 321 321 320 321 320 318 316 314 314 313 312 312 311 309 310 310 314 316
343 342 340 340 339 338 333 324 299 300 299 301 303 322 314 306 301 300 301 298 299 301 316 320 320 321 319 319 318 316 315 311 313 312 311 310 308 307 307 308 311 312 314
342 340 337 334 336 334 332 330 326 310 298 296 296 298 300 299 296 296 295 294 296 300 317 319 319 319 318 318 315 313 311 312 313 310 309 308 307 306 306 307 310 312 314
335 319 333 332 331 331 330 329 329 326 324 318 300 305 295 295 295 294 294 297 313 309 316 317 317 318 316 314 312 311 310 309 309 308 307 307 306 305 305 305 308 312 311
333 330 330 330 330 327 331 332 329 328 325 321 314 307 300 295 295 296 297 315 315 314 315 314 315 314 314 313 311 310 308 307 305 306 306 305 305 305 305 305 307 306 306
333 323 326 330 330 331 331 328 326 326 325 322 321 321 317 310 314 316 317 318 314 312 315 312 314 314 313 311 308 306 305 306 306 305 305 305 305 305 304 304 305 307 311
331 331 325 329 328 327 327 327 326 325 324 323 323 321 308 317 317 316 316 316 315 315 315 312 314 312 311 307 305 305 305 306 306 305 304 304 305 304 305 305 305 305 308
331 329 328 328 328 328 327 327 326 324 324 322 322 316 302 317 318 317 316 316 317 317 316 314 312 311 307 304 304 305 307 305 305 304 304 303 304 304 304 304 304 305 305
330 330 329 330 329 321 326 326 325 324 323 322 320 319 316 316 317 317 316 316 316 316 315 313 311 308 307 303 305 307 305 304 303 304 303 303 304 303 304 304 304 304 304
330 330 328 328 327 326 325 325 325 315 322 320 320 319 317 316 316 317 316 315 314 313 312 310 308 305 303 302 304 305 306 304 304 304 303 303 304 303 304 304 303 304 304
328 326 325 325 325 324 324 324 324 323 321 320 318 317 317 315 315 316 315 315 314 312 310 309 306 304 302 301 301 301 290 284 296 288 303 304 304 305 303 303 303 303 304
325 326 324 324 324 325 324 323 323 322 320 317 318 317 316 315 315 315 315 314 313 312 310 308 306 303 301 300 300 289 284 284 293 284 296 304 303 303 302 302 302 302 302

GFSGL_sfc_thetae_027.txt.gz
Theta_e
371 371 371 370 369 371 368 369 369 368 362 357 356 354 353 348 351 351 350 346 345 346 344 343 345 347 337 336 339 342 339 336 327 331 333 338 344 344 341 343 340 341 337
367 371 370 371 370 368 368 369 369 366 362 357 356 353 351 350 350 348 345 343 342 342 343 345 341 337 345 347 337 343 336 340 330 334 335 333 340 344 343 344 339 334 336
364 365 370 370 369 367 369 369 369 363 359 354 355 352 349 348 348 349 347 346 344 342 341 341 340 341 344 340 340 339 333 337 338 332 330 332 335 335 336 341 338 337 337
358 361 367 370 370 368 370 369 366 361 356 353 353 352 348 348 346 346 345 344 343 342 342 344 341 341 343 346 343 345 342 335 335 330 331 331 332 337 334 333 329 332 331
362 363 367 372 372 372 369 367 363 360 353 353 352 346 346 342 342 347 346 343 344 342 343 342 345 343 339 337 337 340 343 334 329 327 327 327 325 332 329 329 327 329 331
365 365 369 372 372 369 367 367 361 356 353 351 348 343 343 343 333 334 343 342 345 344 344 345 345 340 339 333 332 331 332 334 333 327 327 325 330 329 328 326 325 322 319
369 367 371 372 370 365 363 363 358 355 352 350 347 346 345 347 327 329 333 343 343 345 344 345 341 341 336 335 332 331 329 328 327 332 330 330 331 333 333 330 329 325 322
367 369 371 369 365 362 360 361 360 355 351 347 347 348 347 347 325 325 331 342 344 345 346 345 342 338 336 333 331 331 331 333 337 333 335 333 335 333 329 327 328 326 325
365 368 367 365 364 361 354 357 358 355 349 348 347 348 346 346 324 323 329 340 340 344 345 340 339 335 329 326 326 325 327 333 331 326 324 322 321 321 322 322 319 318 317
363 365 366 365 361 357 356 356 357 353 349 345 344 347 337 344 324 320 328 347 344 338 344 341 326 332 321 319 328 329 327 330 331 332 330 326 323 326 322 325 324 319 320
361 362 363 360 360 359 357 357 351 346 343 344 342 341 343 342 343 317 317 345 341 342 337 335 333 319 315 313 316 330 326 324 328 326 323 323 325 325 323 327 329 324 319
363 358 359 360 356 354 353 350 348 344 345 344 341 341 347 351 329 316 315 317 327 336 335 332 331 316 312 311 314 318 313 312 321 320 320 321 319 319 321 323 329 326 323
361 360 359 358 354 353 347 344 341 343 341 341 339 344 344 347 342 314 311 313 316 327 330 319 311 309 309 310 311 313 310 318 319 319 319 317 318 319 326 323 327 330 328
357 354 351 348 347 348 344 343 342 340 340 340 339 340 340 343 339 334 329 322 316 322 317 324 320 318 316 314 319 315 319 321 320 317 315 316 317 316 315 314 312 312 311
350 349 346 346 346 340 327 327 341 335 327 341 338 337 334 334 333 317 319 326 326 322 327 330 326 324 323 323 323 324 320 321 318 317 315 314 313 312 311 311 309 311 311
346 345 341 341 339 340 335 325 300 302 300 301 304 323 324 308 300 298 297 299 302 303 323 325 323 323 322 324 322 319 321 318 317 316 314 313 311 310 308 308 309 310 311
345 344 342 339 340 339 337 334 328 312 299 297 297 298 304 303 298 297 296 296 297 303 319 321 321 322 323 321 319 318 316 316 318 313 312 311 309 308 307 306 307 308 312
343 325 339 337 336 335 334 333 331 327 325 321 302 306 296 296 296 296 295 299 314 310 318 318 318 322 320 318 317 316 315 314 313 312 310 309 308 307 306 306 306 307 309
335 334 335 333 332 329 331 330 330 329 328 324 316 308 301 296 296 297 297 315 317 317 317 317 317 316 316 316 315 314 314 311 308 307 308 308 307 306 306 306 306 302 305
334 326 327 332 330 330 330 329 328 327 327 324 321 321 316 310 314 315 316 319 316 315 314 314 314 314 314 314 313 311 309 308 308 307 307 306 306 306 305 305 306 305 306
333 329 327 331 330 330 329 328 326 325 324 324 323 321 311 318 319 319 319 317 316 316 316 314 314 315 314 313 309 307 306 306 307 306 305 305 306 305 306 306 306 305 305
331 329 329 329 328 328 329 330 329 325 325 323 318 316 305 318 320 319 318 319 318 318 316 316 314 313 312 308 306 305 306 305 306 305 305 305 305 306 305 305 305 305 305
330 330 328 329 325 322 327 327 327 327 325 324 320 318 319 317 319 318 318 319 319 318 318 316 314 312 310 307 305 307 306 306 305 305 305 305 305 305 305 305 305 304 305
327 327 327 328 326 327 328 326 327 315 322 322 322 321 320 318 319 319 318 318 317 318 317 315 312 309 307 305 305 306 306 306 305 305 305 305 305 305 306 305 304 305 304
327 324 325 325 325 324 323 324 323 324 322 322 321 320 320 320 318 318 318 317 316 316 314 313 311 308 306 305 304 305 292 287 298 289 302 306 306 307 305 304 304 304 304
324 323 322 323 323 325 323 323 324 322 321 322 319 320 320 318 317 317 317 316 315 315 314 313 311 308 306 304 303 290 284 286 294 285 296 303 305 305 302 304 303 303 303

GFSGL_sfc_thetae_030.txt.gz
Theta_e
368 369 368 368 369 367 364 363 364 363 361 356 354 353 353 352 352 350 348 348 346 345 343 343 340 344 340 340 341 339 337 334 328 330 335 336 339 339 339 341 341 337 337
367 367 368 369 368 367 363 366 367 362 362 356 355 353 352 351 350 349 345 343 345 344 343 344 342 341 342 344 340 340 337 338 332 329 333 334 335 339 341 339 339 335 335
365 365 367 367 366 365 365 362 365 364 362 356 354 352 351 349 349 348 347 345 344 340 344 343 342 342 341 339 340 339 337 336 335 331 330 334 332 335 334 336 336 336 336
361 363 364 366 366 365 365 365 365 366 362 356 354 352 351 349 349 347 347 346 344 343 344 343 342 342 341 340 339 335 335 335 333 330 329 329 331 333 332 328 327 331 329
358 360 363 367 367 367 366 366 366 365 362 358 353 351 349 345 347 346 346 344 343 342 342 343 343 344 341 338 339 339 334 331 328 327 324 324 325 325 323 325 325 327 328
355 358 362 365 367 367 366 366 364 364 360 357 351 349 347 343 335 335 344 343 343 342 340 344 345 342 336 333 333 332 332 329 327 325 325 323 324 326 327 326 324 322 318
357 358 361 365 366 366 367 365 363 362 359 353 350 348 344 345 330 330 336 343 342 341 342 343 342 341 339 337 331 330 330 330 330 329 323 323 325 327 328 325 324 323 321
360 360 363 366 366 367 366 364 363 361 355 350 348 346 344 346 326 326 332 338 339 343 341 343 342 342 339 337 334 333 333 333 331 329 327 327 328 329 328 325 322 320 321
359 366 366 367 367 366 363 362 360 358 351 348 346 346 345 346 324 322 328 336 335 338 341 344 343 342 335 326 333 331 331 330 329 326 327 326 324 322 322 322 318 316 315
363 365 369 369 367 364 362 361 362 360 351 346 344 345 339 344 322 319 325 335 333 337 342 342 328 336 323 321 330 330 327 328 331 330 330 328 324 324 323 322 321 317 316
366 368 368 368 367 366 361 359 357 355 353 347 344 343 345 341 341 317 317 338 340 339 338 339 341 320 316 316 317 330 327 324 326 326 325 322 322 324 324 325 325 322 319
366 366 366 366 360 360 355 353 351 348 346 344 340 340 342 343 330 316 314 317 328 339 340 340 337 316 312 312 315 323 314 315 321 320 319 319 319 320 322 322 324 323 321
363 362 360 360 358 355 351 350 343 344 340 339 339 337 338 346 345 317 311 313 317 331 329 318 310 310 311 312 313 316 312 319 318 317 318 318 318 321 321 319 322 324 325
359 359 358 354 349 348 346 345 342 339 340 340 340 341 344 343 338 333 329 322 316 324 317 318 318 319 319 320 318 314 318 320 320 320 318 318 320 318 316 316 312 311 308
356 351 348 346 342 328 319 316 339 325 326 341 341 342 340 338 336 326 325 329 328 324 326 329 321 322 322 320 321 323 321 321 319 318 319 317 315 314 313 313 311 307 306
347 346 343 339 335 329 327 320 301 302 300 300 305 326 315 309 302 301 299 300 304 309 322 331 328 327 323 320 322 321 321 319 317 317 318 315 313 312 310 310 309 309 307
344 344 342 340 340 337 334 329 320 308 300 298 298 304 307 302 298 298 298 299 301 308 327 325 323 323 322 323 322 319 315 316 318 318 317 315 313 311 309 308 308 307 307
346 327 341 341 340 340 337 333 327 322 322 318 302 304 297 297 296 297 298 303 316 312 320 320 321 324 324 323 318 318 318 317 316 315 312 310 310 310 308 307 308 306 305
343 341 339 339 338 334 336 334 330 329 326 318 313 307 301 297 297 298 298 317 319 321 320 321 320 319 319 319 318 318 316 314 310 310 309 309 310 307 306 307 306 303 304
337 328 332 334 331 332 331 330 330 329 325 320 319 316 313 310 312 314 314 317 322 319 318 317 317 318 318 317 317 315 313 311 311 311 310 309 309 308 305 305 305 305 305
332 331 325 331 330 330 331 331 330 327 326 324 323 320 309 318 319 319 319 321 319 320 320 318 318 318 317 316 314 310 308 309 310 308 307 307 308 305 307 306 305 305 304
331 328 329 329 330 332 332 332 331 326 326 325 323 316 304 319 321 323 321 322 320 321 320 320 317 317 315 311 309 308 308 308 309 307 306 306 306 306 306 305 305 305 304
332 329 329 330 329 323 327 323 327 324 319 322 321 318 315 319 320 323 320 320 317 320 321 318 318 316 314 310 309 309 308 308 307 307 306 306 305 307 306 305 305 304 304
329 329 329 330 325 328 327 323 325 316 322 322 320 319 319 320 320 322 321 322 321 316 319 317 316 313 311 309 308 308 309 306 305 304 304 304 304 306 305 305 305 303 305
329 323 327 326 326 323 322 323 324 325 324 323 318 320 318 321 318 318 321 321 320 319 318 316 315 314 311 309 309 300 290 287 299 290 302 303 304 307 305 303 304 303 305
323 323 322 323 321 323 324 323 325 325 320 323 321 320 320 320 316 320 320 319 318 318 317 316 314 313 310 308 307 291 285 286 294 287 295 299 302 306 303 302 305 302 304

GFSGL_sfc_thetae_033.txt.gz
Theta_e
358 358 358 359 360 358 356 354 353 350 350 349 351 350 347 345 343 341 337 336 338 334 336 333 333 332 330 329 331 328 326 325 321 321 324 327 330 329 332 333 334 331 330
359 360 359 359 362 360 358 355 355 351 351 350 349 349 347 345 343 342 338 338 336 335 334 332 331 334 329 330 329 328 328 328 324 320 324 325 326 327 329 330 333 335 330
359 360 360 360 359 361 359 357 356 355 352 349 348 346 346 345 344 343 340 336 337 337 336 334 332 332 331 331 332 329 329 329 327 324 322 325 326 326 325 328 328 329 332
359 360 359 360 360 361 362 358 356 357 353 348 348 346 346 346 344 343 340 338 336 336 338 337 334 333 331 331 329 329 329 327 326 323 322 322 323 323 324 320 319 322 324
356 358 358 360 361 361 361 360 356 357 356 349 346 346 346 345 344 341 341 339 337 335 337 339 338 338 339 335 331 329 328 325 322 320 319 318 318 319 318 319 319 320 322
353 355 358 358 360 360 359 359 358 355 357 352 347 346 344 346 335 337 341 340 339 337 336 336 335 340 339 337 334 333 329 323 319 319 318 318 319 322 324 320 319 316 314
346 352 355 357 358 359 359 358 358 356 358 353 348 345 342 342 331 333 337 340 339 337 337 336 337 337 333 330 330 330 329 329 327 321 319 319 319 321 323 321 320 320 318
347 349 353 355 358 359 359 358 358 358 354 351 347 344 341 341 329 326 332 338 335 336 338 336 335 334 333 330 328 325 326 327 326 327 324 324 322 324 323 322 320 316 315
346 348 353 355 357 359 358 358 358 356 353 348 344 342 340 339 327 323 326 333 333 332 336 338 338 333 330 328 328 325 324 325 328 326 326 326 325 325 326 317 313 309 309
345 350 352 356 357 359 359 358 355 353 349 345 343 342 336 340 323 321 324 333 331 331 333 335 329 331 324 323 326 323 321 322 323 324 324 322 321 320 323 318 318 310 311
352 357 358 360 361 360 358 356 355 349 346 343 341 341 341 339 332 317 317 332 331 331 333 334 334 322 318 316 319 323 323 321 320 316 315 315 315 315 317 319 319 316 312
358 360 360 360 360 356 353 351 350 347 343 340 338 335 337 339 329 316 315 321 329 335 333 333 330 319 313 313 316 319 316 315 314 313 313 312 311 313 315 316 317 318 318
359 358 358 356 355 351 347 344 342 341 339 335 335 333 334 338 338 318 313 314 319 331 331 321 315 312 310 312 315 317 314 311 310 311 310 310 311 313 314 309 309 307 306
354 352 349 349 347 346 343 342 340 339 338 336 336 334 332 333 330 323 320 317 317 318 316 313 315 316 315 316 313 312 311 311 311 311 311 310 310 307 306 306 303 302 299
350 346 343 339 330 320 315 326 334 322 328 338 337 336 333 331 329 322 320 322 322 320 317 316 313 312 311 311 312 311 313 313 313 314 313 308 305 305 304 303 301 299 297
341 340 334 331 328 324 320 312 301 302 300 302 308 319 312 313 307 306 306 307 310 311 316 318 313 314 314 314 314 314 317 318 315 315 311 306 304 304 301 302 300 298 298
340 336 333 330 330 326 323 320 313 308 301 298 299 302 306 302 300 299 298 300 303 307 315 316 316 315 315 315 316 317 313 313 313 310 305 305 304 301 302 299 298 299 298
338 327 338 335 334 330 325 321 318 316 314 310 299 300 297 297 297 297 299 305 308 307 310 310 310 311 313 312 310 308 306 306 304 300 299 299 299 300 298 298 298 296 296
338 338 337 336 335 330 329 323 321 320 313 306 304 302 297 297 297 298 300 310 309 309 308 308 306 307 307 307 307 305 304 301 299 298 297 299 300 297 296 297 297 300 300
330 329 330 333 332 332 329 323 322 318 312 310 308 306 304 303 304 304 304 305 308 307 305 306 306 305 306 305 303 302 301 300 299 300 299 299 297 296 296 297 296 296 296
325 323 324 323 323 324 324 325 326 319 315 314 312 310 304 308 307 306 306 308 308 309 307 306 306 305 305 304 302 299 297 298 298 297 296 296 297 297 298 296 297 298 296
324 322 322 323 323 323 324 323 325 322 318 317 315 309 301 310 311 311 312 312 311 309 309 307 305 305 301 299 297 297 297 298 297 296 296 296 296 297 297 297 298 296 296
326 325 324 323 323 321 323 321 319 317 319 318 317 312 308 310 312 313 315 314 314 313 309 307 306 304 301 298 297 298 297 297 297 297 296 296 296 297 297 297 297 295 295
327 326 325 323 322 320 319 320 322 315 318 317 315 313 312 312 312 313 312 312 311 310 310 306 305 303 300 297 296 297 298 296 295 293 293 293 294 296 298 297 295 296 295
327 326 326 321 318 318 318 320 318 319 317 316 314 314 313 314 313 315 313 312 311 309 308 306 304 302 300 297 295 291 289 288 290 290 293 292 293 295 297 294 294 295 296
319 322 321 322 321 319 316 318 319 317 317 318 315 314 314 315 313 313 315 311 310 310 308 307 305 304 301 298 295 289 285 287 289 288 288 290 291 294 296 294 295 296 295

GFSGL_sfc_thetae_036.txt.gz
Theta_e
350 351 350 349 349 351 354 353 349 348 345 343 347 347 345 342 340 336 334 335 332 332 333 331 329 329 328 326 328 326 324 321 317 319 322 324 327 328 329 332 330 329 329
351 352 352 352 352 350 350 353 353 349 348 345 345 348 346 343 341 338 334 335 334 331 331 331 330 333 327 325 326 325 324 324 321 319 320 322 324 325 325 326 328 334 330
352 352 353 353 353 352 352 351 354 352 347 346 346 347 345 344 341 340 337 335 334 334 333 331 330 328 326 325 326 325 326 327 324 321 320 322 323 324 323 325 326 324 327
353 353 352 353 355 355 355 353 352 354 349 346 346 346 346 345 343 341 339 336 335 334 334 334 333 332 328 329 330 327 326 325 323 322 321 320 320 322 322 319 319 320 320
353 353 353 354 356 357 357 357 355 353 352 349 346 344 344 344 344 341 340 337 335 333 334 336 337 336 335 332 332 328 326 324 323 320 318 316 316 317 316 319 320 321 322
353 353 355 356 356 356 357 358 356 354 353 348 346 344 342 344 336 336 341 339 337 335 333 333 337 338 336 334 334 332 331 326 322 319 319 315 316 317 319 319 319 318 316
351 354 355 356 356 356 357 357 356 353 354 348 345 344 343 344 332 333 337 340 337 336 334 332 334 337 336 336 332 330 329 328 326 321 318 318 317 318 318 316 317 316 315
351 352 354 355 355 357 357 356 356 354 353 349 345 344 344 344 329 328 333 341 337 335 335 333 335 335 332 332 330 329 328 327 327 327 323 323 321 322 320 320 319 316 314
345 349 352 355 354 356 355 355 356 356 353 352 347 345 344 344 325 325 329 338 332 332 334 335 336 332 328 326 328 327 326 325 327 324 324 324 324 324 324 320 319 310 309
343 344 350 354 354 355 356 356 357 356 353 351 347 347 339 343 323 320 324 332 333 333 330 334 328 332 322 322 331 328 326 326 323 324 324 321 322 322 323 319 316 310 309
343 345 346 352 353 356 357 357 356 355 350 348 345 344 340 336 330 319 318 332 332 331 331 331 333 320 317 316 320 328 325 321 323 317 315 314 314 313 314 314 315 314 309
342 344 346 351 353 355 357 357 355 351 347 343 337 335 337 337 324 315 314 321 326 331 330 332 332 317 313 312 315 319 317 318 316 313 310 310 309 310 310 311 310 313 319
344 347 349 352 355 357 356 354 351 347 342 338 337 335 335 337 333 316 312 315 319 332 334 325 314 309 309 313 313 315 315 314 311 308 307 307 309 309 308 306 306 304 303
348 354 356 356 354 355 354 351 346 343 339 337 335 335 334 334 333 325 320 317 316 321 318 319 317 317 313 315 315 315 314 312 309 307 307 309 309 305 303 304 301 300 297
353 353 351 347 347 334 323 333 341 332 335 337 336 335 333 333 331 322 319 322 323 317 319 317 315 311 311 311 311 312 309 309 309 309 309 309 305 303 303 301 299 297 295
345 339 335 332 329 325 322 315 305 306 308 305 313 323 319 316 307 304 302 303 304 306 317 315 311 311 311 310 309 309 309 312 309 309 309 306 302 302 300 299 298 295 294
336 333 330 328 326 324 322 320 315 307 300 300 300 303 308 305 302 301 300 301 303 309 315 314 315 313 312 312 311 310 311 312 310 307 303 303 302 299 298 297 295 295 295
333 322 331 329 326 325 323 320 322 321 316 309 300 300 299 299 298 297 299 303 307 308 310 310 309 309 309 309 308 305 305 302 299 298 300 298 297 297 296 294 294 294 293
335 333 332 330 329 325 323 321 319 317 312 306 306 302 298 296 296 297 302 310 309 307 306 304 305 305 305 304 303 302 302 300 298 297 295 296 297 295 293 294 295 297 297
333 327 332 331 328 325 323 322 318 313 311 311 311 307 301 304 305 305 305 305 306 304 304 303 303 303 303 303 301 300 299 298 296 296 297 296 295 293 294 295 294 293 294
327 330 326 331 329 326 323 321 317 313 310 310 310 307 302 309 306 306 303 304 306 304 304 304 303 303 302 301 299 297 296 295 296 295 294 293 294 294 295 294 294 295 294
325 324 323 324 325 325 322 322 318 315 313 313 310 306 298 307 306 305 304 307 308 306 306 305 304 303 302 302 298 296 296 296 294 294 294 294 294 295 295 294 295 294 293
325 324 324 323 322 319 319 320 319 318 316 314 313 309 305 307 308 307 308 310 308 306 305 305 303 300 298 296 296 296 296 295 295 295 294 294 293 293 295 294 294 293 292
322 322 322 322 321 321 321 320 319 315 319 317 314 311 310 310 310 311 311 311 310 307 305 305 303 301 297 295 294 296 296 295 294 294 293 291 292 292 293 294 292 292 293
322 324 322 321 321 320 320 320 316 318 319 318 316 314 311 309 310 310 310 312 311 308 305 303 302 301 297 295 295 295 291 287 290 289 291 291 290 292 293 293 291 293 293
324 324 325 324 321 318 316 317 315 314 314 314 315 314 312 311 311 311 310 310 309 308 306 303 301 299 298 296 295 291 286 286 290 288 288 288 289 291 293 294 292 293 294

GFSGL_sfc_thetae_039.txt.gz
Theta_e
346 347 347 348 349 350 349 347 345 343 341 342 344 344 343 339 336 334 331 331 329 329 330 328 328 326 326 325 326 322 321 317 315 318 319 322 324 325 327 327 331 327 326
347 347 346 346 347 349 350 350 348 344 342 341 343 344 343 341 339 336 333 334 330 328 329 329 329 330 326 325 325 323 322 322 320 317 318 321 323 324 324 324 326 330 329
346 347 347 346 346 346 347 350 351 349 346 343 342 344 343 342 339 338 336 335 333 332 330 330 329 328 326 325 324 324 324 325 322 320 320 321 322 322 322 322 324 322 325
345 346 346 347 347 346 346 347 350 351 347 346 343 343 345 344 342 340 338 335 334 333 333 332 330 329 327 328 326 327 326 326 322 321 319 320 320 320 320 319 318 319 320
345 346 346 348 349 349 348 346 347 349 350 347 345 343 345 344 344 341 339 337 335 333 333 333 332 333 335 332 330 329 327 326 325 321 319 317 317 316 315 317 316 318 319
346 346 348 348 350 350 350 350 348 348 348 348 345 344 344 344 337 335 340 339 337 335 333 333 334 337 335 332 332 332 331 326 325 321 318 318 320 318 317 317 316 314 312
347 348 349 349 349 351 352 352 351 349 349 347 346 344 343 344 331 332 336 341 338 335 333 332 332 336 334 333 331 330 330 329 328 323 321 319 320 320 319 315 315 314 313
347 348 350 350 350 351 352 352 353 353 350 349 346 345 343 343 328 327 334 341 338 337 337 335 332 331 331 332 332 329 329 327 326 325 324 324 323 324 320 319 317 316 316
345 347 350 351 351 351 351 352 353 355 353 352 348 344 343 343 325 325 330 340 337 337 336 334 333 331 328 326 328 326 325 325 327 325 324 323 323 324 324 320 319 315 309
345 347 350 352 352 352 353 353 354 355 354 353 349 345 339 344 323 320 332 339 336 334 331 331 327 331 321 321 328 327 326 326 327 326 326 321 321 320 323 321 316 310 307
344 348 349 351 353 354 354 355 355 355 354 352 349 347 346 344 326 318 323 336 335 333 331 329 331 321 315 314 321 330 328 326 324 323 318 314 313 312 311 311 313 312 308
342 342 345 349 352 353 353 354 355 355 353 350 348 345 343 339 322 317 317 325 326 330 329 330 330 315 312 311 315 320 317 320 319 315 312 310 308 308 310 308 308 313 316
338 339 341 344 350 352 352 353 354 354 352 348 344 339 338 338 332 317 313 317 320 331 331 326 315 308 307 310 314 315 316 317 313 310 308 306 307 309 307 304 305 302 301
334 335 338 341 344 349 353 354 354 353 349 344 340 337 336 334 331 323 321 320 319 323 319 320 318 317 314 316 315 316 318 314 311 308 306 306 307 306 302 302 300 298 296
339 337 340 343 343 319 312 311 332 333 341 341 338 337 335 334 334 322 319 323 325 318 318 320 317 315 313 312 311 314 311 311 309 307 306 307 306 302 301 300 298 296 294
346 345 340 329 327 324 326 324 309 310 314 310 312 321 330 316 310 307 304 304 305 307 320 318 316 311 311 310 309 308 308 311 307 307 307 307 305 301 300 298 296 294 292
333 330 329 327 328 329 332 329 322 316 311 306 303 304 307 309 302 301 301 303 303 309 315 313 312 310 310 310 309 308 309 309 309 308 307 304 301 300 297 296 294 293 293
330 320 329 328 328 327 326 325 325 325 323 318 302 307 304 302 299 299 299 303 314 310 312 313 312 313 312 310 309 308 307 305 303 301 298 297 296 296 295 293 292 292 291
333 332 330 328 326 324 325 323 321 319 316 309 309 305 300 297 297 297 300 318 314 308 306 306 306 307 307 306 303 303 301 299 298 296 295 296 296 294 292 292 293 296 295
330 323 325 326 324 325 323 321 317 315 315 317 318 312 304 306 309 308 307 308 308 306 304 304 304 304 303 302 301 300 298 297 296 295 295 295 293 293 293 293 292 292 292
331 330 326 327 325 324 322 321 318 316 316 316 314 310 303 313 309 307 305 305 305 305 304 304 303 302 301 300 299 298 296 295 294 295 294 292 292 293 293 293 293 293 292
325 328 329 326 325 322 320 318 314 314 313 312 306 302 299 308 309 307 304 307 304 305 305 304 303 302 302 300 298 295 295 295 294 293 293 293 293 294 294 293 293 292 291
321 321 321 321 323 318 319 317 314 313 311 310 309 306 305 308 307 305 304 306 305 304 303 303 303 301 301 300 298 296 296 295 294 294 293 293 292 292 293 293 292 291 291
319 320 320 318 319 319 320 319 317 311 315 313 312 310 308 308 309 308 307 307 306 305 304 303 302 300 297 295 294 295 295 294 294 294 294 292 291 292 292 292 290 291 292
318 318 320 321 320 320 319 319 319 319 318 316 314 313 312 310 310 310 309 309 307 305 304 303 302 301 298 295 294 295 292 288 292 290 290 290 289 290 292 292 291 291 292
321 322 320 320 320 320 319 319 317 316 316 316 314 312 310 310 312 311 309 309 308 307 305 303 302 301 298 296 295 293 287 287 289 287 289 288 287 290 292 292 292 291 292

GFSGL_sfc_thetae_042.txt.gz
Theta_e
346 347 347 347 348 348 346 345 345 346 346 347 348 348 347 344 341 337 336 335 334 334 334 332 332 333 331 331 332 329 327 325 324 326 326 331 333 335 336 337 336 338 337
344 347 347 348 348 347 347 347 347 345 345 345 347 348 347 345 342 339 336 336 334 334 334 334 332 332 332 332 331 331 330 328 327 328 328 329 331 333 334 334 333 333 336
344 345 346 347 347 347 347 349 348 347 345 344 346 346 346 345 343 341 340 338 336 335 335 334 333 333 332 331 330 331 329 329 330 327 328 329 330 330 330 331 332 332 330
343 344 344 346 347 347 349 350 350 349 346 344 344 346 346 346 345 343 341 339 338 337 336 335 334 333 333 332 332 332 332 331 330 329 328 328 328 329 327 326 326 327 327
343 343 344 346 346 347 347 349 350 351 350 347 345 344 345 345 344 343 343 341 339 338 338 337 336 336 335 334 334 333 332 331 330 327 325 324 322 323 324 326 323 324 328
343 342 345 346 347 346 346 346 347 349 351 349 348 346 344 345 337 335 341 342 340 339 337 336 338 337 336 332 332 331 334 333 331 330 327 328 328 326 325 321 324 323 321
343 344 345 346 346 347 347 346 345 345 349 349 349 348 345 346 332 332 336 343 341 340 339 335 335 338 336 338 331 330 330 329 332 333 328 328 328 329 326 320 322 323 322
343 343 345 346 346 348 348 347 347 347 346 346 348 348 348 347 329 328 334 345 342 341 339 336 338 336 336 337 337 336 335 335 334 333 331 328 329 328 329 326 326 325 323
343 344 346 347 346 347 348 348 349 349 348 347 348 348 346 346 325 325 330 343 341 339 338 338 337 336 330 327 335 335 334 332 327 325 326 325 325 325 328 327 323 321 317
344 345 348 349 348 347 348 349 351 352 351 351 350 349 342 347 323 321 330 342 339 339 339 337 329 336 322 321 335 334 332 328 329 329 330 326 325 328 324 327 326 320 318
343 347 349 350 350 351 350 351 352 352 353 352 351 351 348 345 340 318 323 342 340 338 336 334 335 321 316 314 322 335 331 331 329 331 330 328 324 323 321 320 324 321 318
343 345 347 350 351 352 352 352 352 352 352 352 351 349 347 347 326 315 319 325 329 336 334 334 332 314 310 310 318 322 318 323 327 326 324 322 321 318 319 318 319 320 321
341 342 347 351 351 353 352 352 352 353 351 350 349 347 346 346 328 316 315 319 323 332 332 328 316 308 307 310 314 315 317 325 324 322 321 319 316 318 318 316 315 314 313
336 337 340 342 346 351 353 354 353 352 351 350 348 346 342 338 333 325 326 326 321 327 321 322 319 317 316 319 317 318 325 325 323 321 318 316 316 316 315 313 312 309 308
337 336 339 340 327 322 318 322 330 323 340 339 339 338 334 332 325 315 318 329 331 326 323 323 321 320 319 320 320 321 321 321 319 317 315 315 316 314 312 310 309 307 306
342 340 333 328 327 329 325 321 307 310 308 308 311 322 326 316 308 309 306 306 305 308 325 324 322 321 320 318 317 315 317 318 319 317 316 316 316 315 312 308 306 305 303
332 330 329 328 331 331 331 326 321 316 306 308 309 311 312 307 312 307 301 303 306 313 325 324 322 318 317 316 317 318 318 319 318 316 316 316 315 311 308 306 304 303 303
330 319 331 332 331 329 327 327 326 324 321 318 303 312 308 307 299 298 300 306 317 319 325 321 319 317 317 317 317 317 317 316 316 316 315 314 310 307 305 304 302 303 302
332 331 331 331 331 327 328 329 329 327 323 312 309 304 304 298 299 301 306 324 323 320 319 319 319 318 318 319 318 317 316 314 312 310 307 305 305 305 303 302 302 299 300
332 323 326 328 326 325 325 323 321 319 316 317 316 309 307 310 315 319 318 320 319 316 316 315 314 315 315 314 313 311 308 306 305 305 305 305 304 303 302 302 302 303 303
329 328 323 327 326 325 324 322 320 322 321 320 316 314 311 321 319 315 314 316 315 313 311 312 312 312 311 310 308 307 307 306 305 305 304 303 302 302 303 303 303 302 302
329 329 327 325 325 324 322 321 320 320 320 317 312 310 304 316 315 313 313 313 314 313 313 313 311 311 310 309 308 307 306 305 304 304 303 302 302 303 303 303 303 302 301
326 327 326 326 325 318 320 318 317 318 318 317 314 312 315 315 315 313 312 312 311 311 310 311 311 310 309 308 308 307 305 304 304 304 302 302 302 303 302 302 302 301 301
325 325 324 324 324 324 322 318 317 311 317 316 314 313 313 315 315 313 311 312 311 310 310 311 311 310 309 308 306 305 305 305 303 303 303 303 302 299 302 301 300 300 302
322 322 323 324 324 323 322 321 319 319 317 316 314 313 311 311 313 312 311 312 312 310 310 310 310 310 309 308 306 304 298 289 301 296 302 301 300 301 301 302 300 301 301
323 320 322 323 323 322 321 319 317 318 318 316 316 315 315 314 313 316 312 310 312 311 310 310 310 309 307 306 304 297 287 287 294 290 299 299 297 298 300 302 302 301 301

GFSGL_sfc_thetae_045.txt.gz
Theta_e
354 355 356 356 357 359 358 359 360 362 362 361 361 361 361 360 360 357 356 352 348 347 345 344 344 345 339 340 340 339 336 335 330 334 336 340 342 343 343 345 344 344 341
353 355 355 357 358 357 358 359 361 360 362 362 362 360 360 360 359 356 354 351 349 346 346 344 342 341 343 344 339 342 339 340 334 335 338 337 340 344 344 344 340 336 339
353 353 355 356 356 356 357 359 360 360 360 360 361 360 359 359 358 357 355 353 350 348 347 345 344 343 341 340 340 339 339 340 339 334 333 338 338 339 340 341 340 339 338
351 351 352 353 355 356 357 359 359 360 359 360 360 360 361 360 358 356 355 353 351 349 348 348 346 344 343 343 341 341 341 339 339 336 335 335 336 338 337 334 333 336 335
351 351 352 355 357 357 358 358 359 360 359 359 358 359 360 359 355 357 355 354 352 350 349 348 348 346 340 340 339 342 343 339 337 335 334 333 333 331 332 335 333 333 334
351 350 353 355 357 357 357 358 359 359 360 360 358 357 357 354 340 339 352 354 353 353 351 350 350 342 339 333 334 336 342 342 341 335 333 333 336 335 335 334 331 329 326
351 352 354 355 355 356 357 358 358 358 360 359 359 358 356 357 333 333 338 356 355 354 354 353 348 345 340 340 332 331 332 333 337 344 339 339 338 339 338 327 333 330 330
351 353 355 355 355 356 356 356 357 357 357 359 359 359 357 356 330 329 335 353 356 357 355 353 350 347 344 342 342 342 340 341 340 339 343 344 344 337 338 338 337 334 334
350 352 354 354 355 356 355 355 356 356 356 356 359 360 358 358 328 326 333 350 353 356 354 353 351 348 337 330 344 344 343 343 333 329 330 328 326 327 331 333 330 325 324
350 352 355 356 355 355 356 356 358 357 356 354 356 359 350 359 328 323 332 350 352 352 352 352 331 340 326 324 338 341 341 341 340 337 337 329 329 332 326 336 333 327 326
353 355 356 357 357 356 358 359 359 358 358 358 357 358 359 355 354 319 321 351 351 349 347 345 343 322 317 316 326 343 339 342 336 339 337 335 335 336 334 334 335 328 321
355 353 357 359 355 355 358 354 359 355 350 358 359 356 355 356 331 317 318 326 337 347 343 342 342 317 313 312 320 326 321 328 338 336 333 333 332 331 331 328 329 329 327
351 354 356 357 357 360 359 358 355 356 351 352 354 353 351 349 349 318 315 317 322 342 345 336 322 310 309 312 318 317 319 337 334 333 332 331 331 329 328 327 327 327 326
353 354 356 355 356 358 357 357 355 355 356 354 354 352 351 348 342 329 322 323 323 331 328 324 319 319 318 320 320 320 334 338 335 332 330 330 327 324 323 324 321 320 318
350 351 352 353 352 345 335 341 359 363 352 357 356 350 336 327 323 319 323 331 333 322 326 326 324 325 326 324 325 326 328 328 330 330 329 324 322 323 322 322 321 319 316
348 346 339 337 337 333 330 324 308 309 310 310 310 323 326 311 304 307 307 306 309 313 327 326 326 327 325 324 324 323 324 325 330 330 327 323 322 322 321 320 319 317 314
339 336 333 335 333 331 333 331 324 318 304 305 308 308 311 312 307 308 308 305 307 315 329 328 328 326 325 325 323 322 322 327 333 329 325 323 323 323 320 318 316 314 312
338 321 337 338 337 336 336 335 334 327 323 321 309 304 305 305 304 302 301 307 317 322 332 327 326 326 326 326 326 327 329 328 327 326 325 324 324 322 319 316 313 312 309
338 337 337 337 335 330 330 328 329 330 332 324 318 310 303 296 296 298 302 326 324 325 326 327 327 327 328 328 326 325 325 325 325 325 325 324 322 319 315 313 311 303 303
331 323 328 332 333 336 335 335 331 328 326 320 319 314 310 313 316 318 326 329 326 326 327 330 329 328 326 326 325 326 325 322 323 324 321 319 316 315 312 309 308 307 307
331 332 325 332 333 334 334 333 330 328 324 321 318 314 307 320 320 323 324 325 324 328 329 326 324 324 325 326 326 324 322 321 320 318 316 315 314 311 309 309 308 307 306
332 331 331 332 331 331 330 329 328 326 324 320 315 314 303 325 326 329 331 330 329 328 328 326 325 323 323 322 321 320 319 317 317 316 314 313 311 310 309 308 307 307 306
336 334 333 332 330 323 330 331 328 327 324 323 319 321 324 327 327 327 326 327 326 324 323 323 322 320 320 320 320 319 317 316 315 314 312 311 310 309 308 307 306 306 306
336 335 335 333 332 331 330 329 326 316 324 324 325 325 325 324 323 324 325 324 322 321 321 320 319 318 319 318 317 316 315 314 313 313 312 310 309 306 308 307 306 306 306
331 332 332 331 330 329 328 327 326 328 326 325 325 324 324 324 324 322 321 321 320 319 319 319 319 319 318 317 316 315 301 292 309 302 312 311 309 309 307 305 306 306 306
326 328 328 327 328 327 325 321 320 321 322 323 323 319 323 324 323 322 320 319 319 317 319 319 319 319 318 318 316 302 287 288 301 294 310 309 307 306 305 305 306 305 306

GFSGL_sfc_thetae_048.txt.gz
Theta_e
363 365 366 365 364 366 365 369 370 371 372 367 367 363 362 365 367 367 366 363 360 358 355 352 352 353 340 340 340 339 338 337 331 334 338 344 346 346 344 345 346 345 342
362 365 365 367 367 365 366 368 370 370 373 372 369 367 364 364 368 366 363 361 359 357 355 353 351 346 349 350 341 349 344 345 335 340 342 338 344 347 348 348 343 340 340
360 358 362 365 365 366 368 368 369 370 371 369 371 370 367 366 366 365 365 362 360 359 356 354 351 350 347 344 344 343 341 340 341 336 335 340 340 343 344 346 345 345 339
355 356 361 364 365 366 367 368 368 370 370 371 371 372 370 368 367 364 363 363 362 359 358 356 354 351 348 348 345 348 346 342 343 338 335 335 338 344 341 337 338 340 338
358 358 360 365 367 368 368 369 370 370 370 371 370 371 370 367 361 366 366 365 365 361 360 357 355 352 344 346 344 348 349 342 336 336 335 334 335 335 337 337 335 337 343
360 359 363 365 368 367 368 369 369 369 370 370 369 369 368 362 344 339 358 364 364 364 362 361 360 348 346 336 336 338 344 345 342 335 335 336 343 339 339 336 335 333 331
359 362 364 365 366 367 366 368 368 368 368 368 368 368 367 369 336 334 341 363 363 364 365 364 356 353 349 351 336 332 334 334 337 349 343 344 343 345 344 341 341 337 334
359 361 364 365 365 366 367 367 368 368 367 368 368 368 368 367 335 330 336 360 363 366 366 366 364 362 359 354 349 343 341 342 343 343 346 347 349 350 349 346 342 343 341
358 360 362 364 365 365 365 366 368 365 365 364 365 368 369 367 329 326 334 357 358 364 367 367 366 364 346 333 352 346 340 342 336 331 331 335 331 332 337 340 335 335 329
358 360 363 365 365 365 366 366 367 366 361 360 360 365 353 366 337 322 330 352 353 353 359 362 338 355 332 326 348 346 342 343 345 343 341 333 333 333 328 341 343 333 330
356 357 363 367 367 368 368 368 366 364 363 364 361 365 364 361 362 323 319 346 349 349 353 354 359 328 319 320 329 345 341 345 340 344 340 340 339 338 337 337 341 335 329
362 358 364 367 360 358 367 363 365 365 363 362 361 353 355 357 336 329 316 327 341 354 354 355 353 318 312 315 322 327 324 332 342 340 339 336 336 335 337 338 340 336 331
360 363 365 366 361 364 365 363 358 362 357 356 355 354 353 354 350 316 314 318 324 343 354 340 316 310 314 317 315 318 323 340 339 339 337 336 336 337 340 336 334 335 333
360 359 360 361 361 362 359 359 357 356 356 354 353 351 347 344 356 357 344 327 320 329 323 323 325 327 325 324 323 325 334 339 337 339 336 337 338 333 329 328 325 325 322
356 357 358 358 359 360 353 351 359 364 351 357 357 357 354 356 356 330 330 330 330 328 329 329 329 332 330 329 329 329 333 335 336 339 336 334 330 328 326 327 325 323 319
357 356 355 356 358 358 352 342 308 305 303 304 311 337 350 317 306 305 305 307 309 311 330 329 329 334 330 328 327 329 332 332 336 335 333 331 328 326 325 325 324 321 319
355 352 350 345 348 349 351 352 343 319 305 301 300 302 307 307 302 303 303 305 307 312 333 336 335 333 333 333 329 328 327 331 339 334 333 329 327 326 324 323 322 321 318
347 324 348 345 348 350 350 348 344 340 336 332 307 306 300 299 299 298 301 309 321 322 335 335 336 333 330 328 328 329 329 334 334 333 331 328 326 326 324 322 321 319 316
343 343 344 343 345 339 344 343 340 336 334 329 327 314 305 296 296 299 305 334 331 332 335 331 329 327 328 329 333 334 335 333 332 331 328 327 327 326 324 322 319 307 309
338 327 335 339 335 333 334 335 334 334 334 330 330 333 318 316 319 318 325 328 328 329 334 333 332 331 329 332 334 335 333 330 329 328 328 328 327 324 321 319 316 311 309
339 336 330 339 337 336 335 334 335 338 339 334 332 323 309 330 326 324 329 329 328 330 330 330 330 333 334 332 331 328 328 328 329 328 327 326 324 320 319 315 312 311 310
339 338 338 338 338 337 336 336 335 333 329 327 324 316 302 328 331 331 330 329 329 332 335 335 335 335 332 331 330 330 328 327 327 326 324 322 320 318 314 312 311 310 309
338 338 337 337 336 327 334 333 330 330 330 331 328 324 321 326 326 327 330 334 335 335 334 332 330 329 330 329 329 328 326 324 324 323 321 319 317 314 312 311 310 309 309
337 336 336 336 336 335 333 332 331 320 328 326 325 327 332 334 332 332 331 330 327 327 327 327 326 324 324 324 324 324 324 323 323 321 320 316 314 309 312 311 309 309 309
335 335 333 331 330 330 330 331 331 327 326 327 329 329 330 330 329 329 329 328 327 325 324 323 322 322 322 321 320 320 302 296 313 307 316 315 314 313 311 310 309 309 309
330 330 331 330 330 329 329 327 325 327 328 326 327 328 328 328 328 327 326 325 324 323 322 322 322 321 320 319 318 300 288 290 306 296 313 313 312 311 310 309 308 308 309

GFSGL_sfc_thetae_051.txt.gz
Theta_e
369 370 371 370 371 372 368 370 370 375 375 371 373 369 369 369 372 373 371 369 368 366 363 364 360 363 342 342 342 342 339 339 334 336 340 350 354 350 347 347 346 348 342
367 369 369 371 371 370 371 370 374 372 376 376 372 373 369 369 371 372 368 363 367 365 362 362 359 352 358 357 343 355 345 351 338 350 350 343 349 353 354 353 346 341 344
364 365 368 369 370 369 370 373 373 374 374 373 375 372 371 369 369 372 371 369 367 367 365 362 358 358 357 345 348 345 342 345 345 339 339 341 346 345 348 352 352 351 344
359 362 365 368 370 369 371 373 373 374 374 373 374 374 374 372 369 369 371 371 369 366 367 365 361 358 357 356 354 351 353 345 344 340 339 339 342 349 345 339 341 343 341
361 362 364 369 372 372 372 371 374 374 374 375 374 374 374 372 367 368 368 370 370 368 367 366 364 358 349 352 349 351 349 347 340 339 338 338 337 339 340 341 339 340 346
362 362 367 369 372 372 372 372 373 373 373 374 373 373 372 368 347 341 359 366 369 368 366 368 367 352 349 339 338 338 347 349 344 339 338 338 342 346 343 338 338 337 332
360 366 367 369 370 372 373 373 373 372 373 372 373 373 372 373 339 335 341 366 367 369 367 368 365 358 352 357 338 335 335 336 340 347 343 344 351 350 350 351 346 341 337
364 362 367 368 369 372 373 372 373 373 372 372 372 373 373 372 337 330 336 362 364 367 366 364 366 362 360 355 356 349 346 346 345 343 343 346 351 354 357 352 352 348 344
362 363 365 368 369 370 370 371 372 372 372 372 373 373 372 372 332 328 335 360 359 362 364 365 362 362 350 336 357 354 348 345 336 331 331 333 335 335 345 351 342 336 334
361 364 367 370 370 369 371 372 373 373 371 366 368 372 360 373 333 325 334 359 358 358 360 363 340 354 335 328 353 355 350 343 341 337 336 332 333 337 332 347 346 335 333
361 365 369 370 371 372 373 373 373 372 367 369 368 371 372 367 360 324 323 355 355 356 356 356 359 329 325 320 329 352 345 340 336 337 338 338 337 340 339 339 345 343 334
367 366 368 370 367 365 374 374 373 372 369 369 369 366 367 371 338 329 318 324 337 359 359 357 356 323 321 316 323 328 325 332 340 342 338 336 335 337 338 340 342 344 343
370 369 370 372 371 370 371 372 366 369 361 362 358 358 357 361 365 327 319 318 323 353 357 346 324 315 313 317 322 322 324 340 344 338 335 334 337 340 342 341 344 344 339
370 369 370 370 370 371 365 364 361 359 359 357 356 355 356 357 358 359 343 337 325 338 329 344 330 323 322 331 325 327 342 340 339 341 339 341 340 338 335 337 332 330 327
364 362 367 363 365 366 360 343 359 362 343 358 357 357 356 355 352 337 344 351 355 340 334 333 329 330 329 330 330 333 339 340 337 340 339 338 334 336 334 333 330 326 322
360 358 355 355 360 359 355 342 305 305 302 301 303 330 341 316 309 312 310 308 309 310 330 329 327 328 329 329 330 331 338 335 339 338 334 332 334 332 331 328 327 325 322
361 362 355 350 358 357 359 356 350 322 304 300 299 300 301 301 300 302 303 302 303 316 330 328 328 329 329 330 330 331 334 336 339 335 331 331 335 331 325 326 325 324 320
358 329 357 357 356 356 355 355 353 352 347 337 309 309 298 299 298 298 301 309 322 324 330 329 328 330 333 331 330 331 333 335 335 331 334 332 329 328 327 326 323 322 320
352 351 353 353 353 349 353 351 349 346 343 338 332 317 309 298 298 300 304 331 328 329 336 331 332 332 331 330 329 329 329 330 331 333 332 330 330 328 327 325 323 311 314
342 329 336 344 346 346 346 344 342 341 339 338 337 336 331 326 331 326 330 335 333 334 335 335 334 333 329 329 329 331 330 332 334 333 332 332 329 327 325 323 322 318 315
342 342 333 344 344 343 342 341 340 340 338 337 337 327 310 333 331 329 332 333 332 335 336 336 338 335 330 330 332 332 332 333 334 333 330 329 329 325 325 323 320 317 313
341 342 342 341 341 340 339 338 337 335 334 332 329 322 303 329 330 329 330 332 335 337 337 338 336 333 332 332 334 334 333 331 332 331 330 328 327 324 322 319 316 313 312
339 338 337 335 336 330 336 336 336 336 336 333 332 330 331 333 333 334 335 334 334 335 335 338 337 335 336 335 335 334 331 330 330 332 328 325 323 321 319 316 313 312 311
334 336 334 332 329 332 333 334 332 324 333 334 333 333 334 334 333 334 337 337 336 336 336 335 333 332 333 332 331 331 331 330 329 327 327 323 321 316 317 314 312 312 311
332 332 332 329 329 330 332 330 330 330 331 331 329 333 332 333 333 332 333 333 332 331 330 329 329 328 328 327 327 325 301 294 321 312 324 323 321 320 314 313 312 311 311
328 328 329 329 328 328 326 325 324 322 322 323 324 327 328 325 330 330 329 329 328 327 326 325 325 325 324 322 322 299 288 294 309 297 318 318 316 315 313 313 312 310 310

GFSGL_sfc_thetae_054.txt.gz
Theta_e
363 365 364 365 366 363 359 362 360 363 364 367 372 366 364 365 365 366 365 364 363 362 360 360 356 355 354 349 347 348 345 343 337 340 346 350 347 345 343 347 347 344 338
364 365 364 366 366 365 362 362 364 364 370 366 368 368 364 363 364 365 363 360 363 361 360 359 358 354 354 354 352 345 344 346 342 340 346 346 346 347 348 347 345 342 342
362 364 364 365 365 365 365 363 365 365 365 369 369 365 364 363 362 364 364 365 362 363 362 359 355 356 352 348 347 347 346 349 350 341 342 346 347 348 345 346 348 346 346
359 363 363 364 365 366 367 367 365 365 367 365 367 367 365 365 363 363 364 364 364 362 364 362 359 355 352 353 347 344 346 344 342 342 339 338 344 344 344 341 340 344 342
356 359 362 365 367 367 367 366 367 367 365 368 367 367 367 366 364 362 362 364 364 363 362 363 361 357 350 350 350 347 342 342 341 337 336 337 337 341 337 340 338 341 341
357 357 362 364 365 366 366 366 367 367 367 367 367 367 366 366 349 344 357 361 364 363 361 361 362 352 349 341 341 341 345 340 339 337 336 334 336 338 341 338 338 336 331
358 361 362 364 364 365 367 367 366 366 367 366 367 367 366 367 341 338 343 362 361 362 362 361 360 360 350 353 339 337 337 336 339 342 337 336 337 340 341 340 338 335 334
360 362 364 365 364 366 366 367 367 367 366 366 366 367 367 367 341 334 337 358 361 361 360 362 361 359 359 354 352 345 344 343 338 342 343 340 343 344 343 341 340 338 339
360 362 361 364 365 365 365 366 367 367 367 366 368 367 367 366 335 332 334 353 356 357 361 361 362 361 349 336 352 350 347 344 336 334 333 331 335 335 338 340 337 333 331
360 361 364 364 364 365 365 367 368 369 367 368 367 368 357 367 339 328 334 360 355 355 358 359 339 354 337 328 350 351 347 347 343 337 334 334 335 336 333 341 337 332 330
362 364 364 364 365 366 368 368 368 368 367 366 366 367 368 365 364 324 323 360 359 357 356 354 357 330 323 320 328 355 349 351 340 338 337 337 336 335 336 338 338 336 332
368 364 364 367 362 365 367 368 369 368 366 365 365 364 366 369 340 327 320 325 342 356 357 358 357 326 319 319 322 335 330 333 340 336 335 334 333 333 336 337 338 339 338
368 367 366 366 367 364 367 366 366 368 365 363 361 363 362 364 367 328 319 319 323 341 355 345 322 318 311 317 318 321 324 343 338 335 334 335 336 337 339 336 337 336 335
374 369 369 367 366 367 366 367 366 364 363 361 360 359 360 362 360 365 348 333 324 332 338 345 329 325 321 329 325 324 344 344 340 337 336 337 338 336 336 336 332 333 328
370 368 368 366 365 367 349 335 358 354 340 362 360 361 359 357 356 338 347 352 351 342 346 354 340 337 337 335 331 332 338 338 336 335 336 336 336 336 333 333 331 328 322
364 364 362 361 364 363 340 336 305 304 301 301 307 341 339 314 310 308 308 315 309 314 341 338 333 333 331 329 330 330 333 333 334 333 336 335 334 331 330 330 327 324 321
364 361 358 352 359 359 353 346 333 316 302 300 299 304 308 302 301 300 300 300 303 320 334 330 328 328 328 328 329 329 330 333 336 335 333 331 331 330 327 326 323 322 321
364 330 359 356 359 360 360 357 350 344 343 330 307 306 299 299 300 299 302 312 329 329 331 330 330 329 330 330 329 328 329 331 332 331 330 330 330 328 325 322 321 322 320
359 359 364 361 365 356 361 354 353 351 340 333 330 315 307 299 299 302 304 332 332 332 333 333 335 336 336 336 334 334 333 331 331 330 330 330 331 328 323 323 322 317 319
346 333 343 354 354 351 348 348 346 344 342 339 338 332 330 327 332 330 335 333 332 332 334 332 333 333 332 332 332 333 332 331 331 331 330 328 328 325 323 323 318 315 317
344 346 335 348 347 345 344 342 341 341 340 339 337 322 305 336 333 330 332 334 333 334 333 338 336 336 336 335 334 333 331 330 330 331 331 327 325 324 324 323 321 317 315
344 344 344 343 343 342 342 341 341 338 336 334 331 323 305 333 331 329 331 334 335 339 339 339 337 337 335 334 334 335 333 333 333 330 326 326 328 327 325 322 320 316 311
341 339 338 337 337 331 336 336 336 334 332 332 330 329 330 332 332 331 332 334 338 338 339 339 339 336 335 336 333 334 333 333 334 333 330 328 327 326 323 320 317 314 311
333 331 331 332 331 331 333 332 331 323 331 332 332 332 332 332 334 335 335 336 336 336 338 339 339 336 337 337 337 336 335 335 334 333 333 328 325 318 321 318 314 313 312
331 329 326 326 329 328 327 330 329 330 329 329 329 328 335 335 334 336 339 336 335 335 336 336 335 335 336 336 335 322 299 297 327 317 330 328 326 324 320 316 313 312 311
322 326 326 324 322 323 324 323 322 318 318 320 318 321 324 326 324 328 331 332 331 330 331 331 330 330 331 330 314 295 288 289 302 297 326 326 324 321 317 317 316 312 312

GFSGL_sfc_thetae_057.txt.gz
Theta_e
354 352 355 357 356 351 353 352 348 347 350 359 359 357 357 357 358 356 352 354 354 353 351 350 347 346 339 339 336 335 333 330 325 327 332 335 332 337 336 333 336 337 332
353 355 353 356 359 355 350 351 351 349 352 352 360 359 358 357 356 356 355 356 354 353 353 348 349 350 343 342 341 332 332 333 328 324 333 337 333 334 333 335 339 341 339
353 354 356 356 356 358 356 353 353 353 353 356 353 359 358 357 357 356 357 356 353 355 355 353 349 350 345 344 340 339 335 334 335 329 330 336 336 336 336 337 338 337 339
352 355 355 357 357 358 359 358 354 356 355 358 358 355 358 357 357 357 358 357 356 355 357 357 354 351 349 346 342 339 336 335 334 334 330 332 335 337 334 333 335 340 339
353 354 355 357 359 359 358 360 359 355 358 356 356 359 359 359 358 356 356 357 357 357 356 357 357 354 348 347 347 344 337 334 334 333 330 330 330 334 335 336 334 336 338
345 353 355 358 358 359 359 359 360 359 356 357 358 356 359 360 346 343 353 356 357 357 357 357 357 351 348 341 340 341 342 336 331 334 332 330 328 331 334 334 336 332 329
347 348 353 356 357 358 360 360 359 359 360 358 357 360 359 360 340 338 342 356 355 357 357 357 357 357 349 353 339 337 337 336 336 334 334 331 330 334 335 334 333 332 330
347 349 350 355 357 358 358 358 359 360 359 359 359 359 360 361 340 334 338 356 356 356 357 359 358 357 355 353 352 346 345 344 340 338 337 336 337 339 339 339 336 334 334
350 350 352 355 356 357 357 358 360 359 359 359 360 360 360 361 334 332 334 353 355 356 356 356 357 358 346 335 352 350 347 346 338 332 335 333 333 334 338 337 334 331 328
349 353 357 356 357 356 358 358 361 361 359 360 359 361 352 360 337 328 333 355 353 353 355 355 338 348 334 328 348 351 347 348 344 333 336 331 332 334 332 335 333 330 330
352 353 355 357 357 359 359 360 360 361 361 360 360 360 362 358 358 326 324 356 358 355 354 353 353 329 324 321 327 354 351 351 344 340 337 337 337 336 335 334 334 333 331
354 354 353 354 357 360 360 360 361 361 360 359 359 359 362 362 337 330 321 325 345 357 356 356 352 326 319 319 323 332 331 332 351 343 338 336 336 336 337 337 338 339 338
355 353 354 355 356 353 359 359 359 360 360 359 358 358 358 360 361 326 318 320 324 346 359 349 334 321 319 315 316 318 320 340 348 344 340 338 337 339 338 336 337 337 335
350 356 355 354 355 353 358 360 360 360 360 358 358 357 357 357 359 359 340 328 322 327 333 341 330 326 321 326 323 320 328 337 343 343 341 341 338 336 334 335 332 331 324
346 358 357 357 353 354 327 322 351 344 342 359 359 357 355 354 354 338 343 341 342 335 337 342 335 335 335 335 332 329 331 337 341 342 337 335 335 334 334 334 332 326 319
347 351 356 355 356 344 327 322 303 302 300 300 314 342 326 316 305 305 308 313 315 312 337 339 338 336 333 332 331 330 331 332 333 331 333 334 333 332 331 331 330 325 320
355 348 353 349 354 342 337 333 328 314 303 299 299 301 312 306 301 302 303 304 308 319 333 331 330 329 328 328 329 329 329 332 334 332 332 332 331 330 328 326 324 322 319
354 337 350 349 349 350 343 337 333 331 328 321 306 304 300 301 303 302 304 315 329 327 331 329 327 326 326 327 327 326 326 328 330 329 331 330 330 328 327 324 323 320 315
352 354 351 349 350 351 348 341 338 338 326 320 317 312 303 299 301 303 305 327 325 325 325 324 325 325 325 326 325 323 325 325 326 327 329 328 327 327 324 323 319 315 313
343 332 338 346 346 349 350 348 338 332 328 326 326 322 320 315 323 328 325 326 326 326 326 326 326 326 325 326 328 324 326 327 327 324 325 326 328 325 323 320 318 315 314
343 339 333 339 339 340 340 339 338 337 335 328 322 315 311 327 323 325 325 325 325 325 327 328 326 327 326 325 325 328 326 326 328 325 325 324 325 319 319 319 315 314 313
343 342 339 339 338 336 336 338 336 331 329 325 321 317 304 326 325 325 325 326 327 329 332 332 328 328 328 328 327 325 324 325 328 326 324 323 319 319 318 316 313 310 308
339 341 337 335 335 329 331 330 330 327 326 323 322 321 324 325 325 325 327 326 330 330 331 331 329 328 328 328 329 329 327 326 326 326 323 323 323 322 318 316 314 308 306
331 330 327 327 327 329 328 328 328 321 327 326 324 325 327 329 329 328 328 330 329 330 330 331 330 329 328 328 328 329 329 328 327 326 326 324 322 315 314 312 311 310 306
325 324 325 325 324 323 321 319 319 319 318 317 318 320 321 323 325 327 328 331 330 330 331 332 332 331 331 325 313 309 296 294 320 315 324 324 321 318 315 311 306 305 304
322 321 321 320 319 318 315 312 311 311 312 313 313 313 314 314 314 314 313 314 309 308 307 309 316 316 312 307 305 294 288 289 298 297 320 318 317 315 312 308 306 304 304

GFSGL_sfc_thetae_060.txt.gz
Theta_e
345 348 348 347 345 347 349 344 343 343 346 347 351 352 352 355 353 350 349 352 350 350 350 347 345 344 341 336 333 331 327 326 323 323 329 331 332 335 334 336 331 329 329
346 346 348 349 349 346 345 351 347 343 343 346 354 352 352 353 355 353 350 352 353 350 351 349 348 348 342 339 335 333 330 328 325 321 324 333 329 332 334 333 330 332 329
347 347 348 350 351 351 348 347 350 348 346 346 353 355 354 354 353 355 355 352 351 353 352 351 349 347 346 344 338 337 333 330 329 325 324 331 332 333 331 331 331 332 336
349 349 348 348 352 355 354 351 348 351 349 347 349 354 356 355 355 354 354 354 353 353 352 353 352 348 348 346 343 340 337 333 329 330 327 329 332 334 332 330 330 334 335
348 349 349 351 351 353 356 355 352 349 350 351 350 350 355 356 356 354 353 352 352 353 353 353 354 353 348 347 347 344 341 333 332 331 327 327 328 331 331 331 330 332 336
346 348 349 351 353 353 354 355 356 353 351 351 350 352 353 356 344 341 351 354 353 351 351 352 353 350 348 340 340 341 344 340 335 331 332 328 332 333 332 334 332 327 328
345 347 349 351 352 354 355 355 355 355 354 351 353 352 351 356 338 337 341 353 352 353 352 353 353 355 348 354 341 336 337 336 339 339 330 332 332 333 334 332 334 331 332
341 347 350 351 353 354 355 355 355 356 356 355 352 353 355 354 336 332 337 352 354 353 354 354 353 354 354 352 353 351 345 346 341 340 342 339 337 337 335 335 335 334 333
340 342 348 352 353 354 354 355 356 356 356 357 357 356 353 355 333 330 333 350 353 354 355 354 354 355 345 335 350 350 351 348 342 333 334 335 332 330 335 337 334 332 327
341 343 346 349 353 354 355 355 357 357 357 358 357 358 350 357 334 327 332 354 352 353 355 356 338 347 334 329 347 352 349 350 350 348 338 335 331 335 331 339 338 332 330
345 346 348 349 349 353 355 356 356 357 356 356 356 357 358 355 355 324 324 355 356 355 354 354 355 330 323 321 325 354 351 352 351 349 348 342 342 338 337 340 341 337 331
349 348 351 351 352 354 354 355 356 355 356 355 355 356 358 358 335 325 321 326 344 356 355 357 355 327 318 317 322 330 327 327 349 352 347 343 339 338 337 338 338 337 337
345 347 349 351 354 355 354 353 354 355 355 355 355 355 356 359 359 324 319 320 323 345 359 349 332 320 316 317 315 317 321 335 338 342 346 347 343 341 340 339 337 336 337
341 344 348 348 348 348 356 356 356 356 355 355 355 355 356 357 358 354 338 329 323 330 336 344 329 329 322 329 328 324 327 332 335 338 341 346 344 339 336 335 334 334 329
346 343 347 349 345 348 340 338 353 354 347 357 357 357 356 355 353 343 342 343 343 337 340 339 336 337 338 337 335 334 333 331 334 338 338 335 333 333 332 333 331 328 323
346 348 346 349 347 342 328 319 303 302 301 302 310 335 342 317 314 312 308 311 313 311 338 340 341 340 336 334 332 331 331 331 332 332 333 332 331 331 329 330 328 325 322
341 344 348 342 350 339 333 332 328 315 301 298 298 307 313 313 301 301 301 301 303 317 337 337 335 333 331 329 330 329 328 330 331 331 331 331 330 329 328 328 325 323 320
341 329 342 349 348 344 340 337 334 330 331 325 307 302 298 299 300 301 303 316 333 327 329 330 328 328 328 325 325 328 327 325 325 330 329 329 329 328 326 325 324 321 316
341 340 344 351 348 346 344 338 335 330 325 321 319 311 302 299 301 305 307 329 327 326 325 324 324 323 322 322 321 321 321 322 323 328 329 329 329 327 325 324 320 312 313
341 333 331 343 347 346 343 337 336 327 323 322 323 322 321 321 326 324 324 324 324 324 323 323 323 323 323 324 328 323 323 324 325 323 327 328 328 324 322 320 318 316 314
341 340 333 335 337 348 344 340 333 330 327 326 325 322 311 327 326 326 326 325 324 323 324 324 323 323 322 322 324 324 325 326 326 325 326 323 323 319 319 317 315 314 311
340 341 336 337 338 339 337 337 334 331 328 325 321 315 303 325 326 325 324 324 324 325 326 326 324 324 325 324 325 323 322 322 323 322 322 322 321 317 316 315 313 311 308
340 340 333 332 334 330 331 330 329 327 325 324 323 321 322 322 322 323 323 324 325 326 328 327 326 325 325 325 325 324 323 323 324 325 324 321 318 317 316 314 311 308 306
333 332 329 328 327 327 324 322 320 315 322 322 321 321 323 322 322 322 323 325 327 328 328 328 328 327 326 325 326 327 327 326 325 325 323 321 320 315 317 314 311 310 309
328 328 326 323 321 320 318 317 316 316 315 315 315 316 317 315 314 312 310 309 310 311 309 314 320 328 324 320 317 316 302 296 319 313 324 324 322 320 317 315 312 308 306
321 320 319 317 315 313 312 311 310 310 309 308 308 307 308 307 305 304 304 302 301 300 299 297 296 298 300 297 296 289 285 286 299 294 320 321 321 318 315 312 311 309 308

GFSGL_sfc_thetae_063.txt.gz
Theta_e
344 345 345 345 345 345 342 342 342 341 340 342 347 348 349 352 351 349 348 350 347 347 347 345 343 341 340 337 332 330 326 323 320 322 325 328 330 331 334 336 335 330 329
343 344 344 344 344 346 347 343 342 342 343 344 344 348 349 350 352 350 348 350 349 348 348 346 346 346 340 339 335 331 329 326 324 322 322 327 328 330 332 332 335 333 329
341 343 344 344 343 342 343 348 347 343 342 341 347 348 348 349 350 352 351 349 348 349 350 348 349 345 344 343 338 336 332 330 326 324 328 324 329 329 329 330 330 331 331
342 342 342 344 345 346 344 343 346 349 346 343 342 346 351 351 351 351 353 351 349 349 350 351 350 348 348 347 344 342 339 332 328 327 329 328 327 330 329 328 327 329 331
342 342 342 344 346 347 348 347 345 346 348 348 346 344 350 352 353 352 351 352 351 350 351 350 351 351 347 346 348 345 341 336 336 331 332 326 328 327 328 330 330 332 332
342 342 344 344 345 348 350 350 349 346 345 348 347 347 346 350 341 340 349 351 350 350 350 351 351 348 346 340 339 341 345 342 339 337 336 335 334 331 333 332 329 328 325
343 344 345 346 346 346 349 351 352 349 348 345 346 347 346 348 335 335 340 352 350 349 349 349 349 352 345 351 341 336 336 335 340 347 340 338 337 337 334 331 333 331 330
342 344 346 346 347 349 348 349 350 353 352 350 347 348 348 349 334 332 336 349 351 351 351 351 350 350 350 349 350 350 346 345 343 342 345 348 349 345 339 335 334 335 335
340 342 345 347 346 348 350 350 351 351 353 353 352 350 349 351 329 329 332 348 350 351 352 352 352 351 342 334 348 349 350 351 342 334 334 335 334 333 335 336 332 331 329
338 343 345 346 347 348 349 351 353 353 353 354 354 355 345 351 332 326 330 349 348 350 352 353 337 345 333 329 346 350 349 351 352 351 345 337 333 339 333 338 338 333 332
337 338 340 347 348 350 351 352 353 353 354 354 354 355 356 352 352 323 322 350 352 351 351 352 354 330 324 322 325 351 350 352 351 350 351 352 348 345 344 341 338 337 334
343 341 342 343 347 351 351 352 353 353 352 353 352 353 356 356 333 325 321 324 341 354 353 355 354 327 320 318 321 328 327 326 345 347 349 349 346 343 344 342 340 339 340
343 344 344 345 346 346 348 350 351 352 351 351 352 351 352 355 356 323 319 319 322 342 357 348 331 319 314 318 317 319 320 334 337 338 339 342 345 350 345 339 338 335 335
343 341 344 344 345 347 350 350 350 351 351 351 351 351 353 353 354 351 337 332 323 330 333 342 334 331 326 332 328 323 330 333 334 336 337 339 343 340 336 337 333 331 327
342 343 343 345 343 344 345 341 350 352 345 352 353 353 352 352 353 341 342 349 347 339 339 343 338 339 338 338 337 336 335 334 332 333 336 336 334 332 331 332 331 327 324
337 338 339 340 344 344 337 326 304 304 303 303 306 328 350 328 320 315 312 312 313 310 335 341 344 343 342 338 336 334 332 331 332 332 332 332 329 329 327 326 324 325 325
334 334 337 335 341 341 334 334 333 314 301 299 298 301 303 319 307 306 305 304 302 315 342 342 344 340 336 335 334 329 329 327 330 331 331 330 329 328 326 326 324 323 321
332 322 334 337 339 342 340 337 336 333 332 330 306 302 299 302 300 300 300 309 322 323 335 337 336 334 331 328 326 326 324 328 326 329 329 330 329 328 326 324 323 320 317
333 334 336 337 340 340 344 338 336 334 332 326 320 310 301 297 299 302 305 337 335 332 329 328 328 326 324 323 323 322 321 321 322 323 328 329 329 327 325 325 321 313 311
333 327 327 334 335 341 344 340 335 331 329 326 327 325 320 321 328 328 327 329 331 330 327 325 323 322 321 321 321 319 319 322 325 322 327 328 328 327 325 323 320 315 312
333 334 331 333 332 337 343 339 336 331 328 326 325 323 311 328 325 327 327 327 327 326 326 323 323 322 322 322 326 326 325 324 326 321 322 327 325 324 323 322 318 314 311
334 335 336 334 333 335 342 338 334 330 328 325 323 318 303 328 328 327 327 327 327 327 326 324 323 322 322 322 321 322 322 325 325 325 320 321 323 320 317 315 314 312 309
332 334 335 332 331 325 331 330 328 327 325 324 324 322 322 325 326 326 326 326 326 324 324 325 323 322 323 323 323 323 321 320 321 322 321 320 319 317 315 313 313 309 306
333 335 330 328 326 327 326 324 322 317 324 324 324 324 324 322 322 320 320 322 323 323 322 324 324 323 324 323 323 323 324 323 323 323 323 321 319 313 314 313 311 310 308
335 329 324 321 320 318 318 318 318 318 317 316 314 314 313 311 308 307 307 306 305 304 301 300 301 308 307 306 307 309 296 291 313 310 322 321 320 317 315 316 313 311 308
320 319 318 318 317 315 313 310 309 307 307 307 306 306 305 304 303 303 302 301 300 298 296 295 294 295 295 294 292 288 285 286 303 299 320 322 320 318 316 317 317 314 312

GFSGL_sfc_thetae_066.txt.gz
Theta_e
342 343 344 344 345 345 343 342 342 343 342 344 348 350 351 353 354 353 353 353 351 351 351 350 350 348 347 346 342 338 334 331 329 336 332 338 341 342 343 344 342 340 340
343 343 344 345 346 344 344 344 344 342 342 344 346 349 350 352 354 353 352 353 352 351 351 351 351 350 349 349 346 344 339 336 333 332 337 334 338 342 342 341 340 339 338
343 344 344 344 344 344 345 344 344 344 344 345 344 345 347 350 352 354 354 353 352 353 353 352 352 352 351 350 348 346 343 341 336 332 334 335 336 338 338 339 340 341 340
341 343 343 344 344 345 346 348 346 345 344 344 346 348 349 350 351 352 354 353 352 352 353 353 353 352 352 352 351 350 349 343 340 336 338 338 338 340 337 336 336 337 337
340 341 342 344 345 345 344 345 349 349 346 346 344 345 347 349 351 352 353 354 353 352 353 353 354 353 348 349 352 352 351 346 345 340 340 341 338 339 337 342 336 338 339
340 340 342 344 345 345 345 345 344 345 349 349 347 347 345 346 339 337 347 352 354 354 353 353 354 348 347 340 339 340 348 348 346 345 344 342 343 345 345 339 338 333 331
341 341 342 343 344 345 347 347 346 344 345 346 348 348 347 347 333 333 338 352 352 352 353 354 353 354 348 354 343 336 336 336 340 351 349 348 347 349 349 344 340 336 335
341 342 343 343 343 345 346 348 349 349 347 345 346 348 348 348 331 330 334 349 352 352 353 353 352 352 353 352 353 353 352 350 346 346 349 352 354 355 354 349 343 340 339
341 342 344 345 345 345 345 347 350 352 351 350 349 347 347 348 329 328 331 346 348 351 353 354 354 354 342 333 351 352 353 354 343 334 335 335 334 333 336 344 340 338 335
341 343 346 347 347 347 348 347 349 351 352 354 353 353 344 350 331 324 330 349 348 349 352 354 335 347 333 328 349 352 350 352 356 357 348 340 335 341 333 338 343 338 337
341 344 346 347 347 348 349 351 351 351 352 352 353 355 355 350 350 323 321 347 350 350 350 352 355 329 323 322 325 354 351 353 352 353 354 354 352 349 349 353 349 341 337
341 343 344 346 347 348 349 350 352 352 351 352 353 353 356 358 332 326 319 322 340 352 353 355 355 325 319 319 321 328 328 329 349 348 348 348 349 350 352 352 349 344 343
340 340 341 344 348 350 349 350 350 352 351 351 352 352 354 357 358 323 318 319 321 343 356 348 333 319 317 319 318 321 319 337 339 341 341 343 347 350 352 350 342 337 335
344 346 347 346 345 347 350 352 351 351 351 352 352 352 353 355 356 358 343 333 322 328 332 343 335 333 328 335 335 324 331 337 340 341 341 345 345 346 342 341 334 330 328
342 344 347 348 346 349 349 346 351 354 346 352 352 353 353 353 354 341 343 352 351 341 340 348 340 342 343 342 341 339 335 336 336 337 338 339 340 337 334 334 332 329 327
338 339 339 344 348 348 345 337 305 307 304 304 307 328 354 329 321 312 312 312 313 311 336 346 345 344 344 343 341 339 337 335 337 338 338 338 334 334 330 330 331 330 326
334 337 338 335 342 345 344 340 337 321 302 301 302 302 302 316 309 309 308 302 304 313 344 345 346 347 346 344 342 337 334 336 339 337 338 337 334 333 329 330 330 326 323
331 315 333 338 340 342 344 343 341 339 336 337 304 305 303 301 301 301 301 309 326 320 343 347 347 346 342 340 337 334 335 335 336 337 336 333 332 331 331 328 327 324 322
329 333 335 338 340 336 341 343 342 341 340 337 328 312 302 297 298 297 299 349 347 340 339 339 341 340 337 335 336 336 334 331 334 334 332 332 332 331 329 328 325 315 315
328 322 322 334 337 338 341 342 340 340 339 334 332 335 322 317 331 331 330 336 341 340 335 336 333 336 336 334 333 332 330 327 329 332 333 332 331 330 329 327 325 319 321
324 329 326 334 336 338 339 341 341 339 337 335 335 328 313 334 335 335 336 333 334 334 332 331 328 328 329 331 331 329 329 329 330 328 330 329 330 328 329 327 323 325 323
319 324 328 331 336 338 339 341 342 339 338 334 328 320 304 332 334 330 332 332 331 331 331 329 328 328 330 332 332 331 328 329 328 328 329 329 328 327 325 323 322 323 322
318 321 326 328 333 329 335 338 339 337 334 330 328 324 326 330 332 329 328 329 330 329 330 330 329 328 331 332 332 332 331 330 330 330 330 327 326 326 327 324 323 322 321
317 320 325 330 332 334 335 333 331 320 328 328 327 327 327 329 329 328 325 325 324 321 322 325 329 331 331 331 332 332 332 332 331 331 332 331 330 321 327 326 325 323 322
323 324 327 331 329 329 324 324 323 323 321 320 318 316 315 315 315 313 311 311 308 308 305 304 304 305 308 308 310 312 298 288 317 313 331 332 331 329 327 325 324 323 321
310 313 314 314 313 311 310 309 308 308 307 307 306 305 305 305 306 306 305 302 301 300 298 297 298 301 301 300 297 290 285 286 304 294 329 332 331 330 328 325 324 322 322

GFSGL_sfc_thetae_069.txt.gz
Theta_e
352 354 354 354 354 355 353 355 357 357 356 356 358 358 358 359 361 362 362 361 361 362 363 362 361 363 357 356 356 353 349 346 340 340 344 347 350 350 351 353 352 352 349
352 354 354 355 356 353 355 354 355 356 357 356 357 357 357 358 360 360 359 359 360 360 361 362 361 359 361 362 358 359 356 355 346 349 351 348 351 352 354 352 349 347 349
350 350 353 354 354 355 356 357 356 356 357 355 356 356 358 357 358 360 360 360 361 361 362 362 361 362 361 360 360 357 355 356 355 349 349 352 353 352 353 354 351 354 349
349 350 352 354 355 355 357 357 356 358 357 356 358 358 357 356 356 356 357 359 360 361 362 362 362 361 361 362 361 361 360 357 356 352 349 348 349 355 352 347 347 351 351
350 350 352 355 356 357 357 357 356 356 357 359 358 356 357 356 352 357 357 358 359 360 362 362 363 359 350 353 359 364 363 357 354 351 349 350 349 350 352 352 350 351 354
351 351 354 356 356 356 357 357 357 356 355 357 356 355 355 352 339 337 351 356 358 359 358 361 363 354 352 341 340 342 354 362 358 353 351 350 359 356 355 354 353 350 347
350 352 354 356 355 356 356 356 357 358 357 357 356 356 356 357 335 333 338 354 357 359 362 361 357 354 355 362 346 337 338 336 341 359 358 358 359 361 364 360 355 351 347
350 351 353 355 354 356 356 355 356 354 356 357 356 358 357 357 333 331 334 353 358 361 362 362 362 361 363 360 359 358 359 359 358 353 357 359 362 365 366 363 355 351 350
350 351 352 353 354 355 355 355 356 356 355 355 356 357 359 359 330 328 333 351 351 358 360 363 363 362 347 335 357 357 359 359 348 336 338 337 335 334 338 349 345 346 343
350 352 354 355 354 354 356 356 358 359 356 355 355 356 347 358 334 325 332 351 354 352 360 363 338 352 335 328 355 356 356 358 361 363 364 352 343 350 335 345 349 343 343
351 352 355 356 356 357 357 359 358 358 359 359 359 360 360 356 356 324 321 353 353 354 354 356 358 329 325 323 326 360 358 358 357 362 362 361 362 359 360 364 359 353 344
355 354 356 357 354 353 359 358 359 359 357 358 358 357 359 363 335 327 319 323 343 357 357 359 360 326 318 318 325 332 329 333 356 356 356 354 356 356 357 359 360 355 349
353 355 356 358 357 359 358 358 355 358 354 354 354 354 355 359 362 325 318 318 322 349 360 350 333 320 317 323 319 323 322 343 349 349 349 352 356 357 356 352 344 341 342
352 352 353 353 353 356 354 355 353 353 353 353 354 354 356 359 361 364 354 341 323 332 337 350 346 338 334 341 341 334 342 351 353 352 353 354 356 351 347 346 338 335 334
353 352 350 349 351 353 355 354 354 359 350 355 356 357 357 357 359 345 349 362 360 347 347 355 353 349 349 348 350 353 351 345 342 344 346 349 346 345 342 341 337 333 335
346 348 348 356 355 353 351 350 310 311 307 306 309 329 358 331 319 314 310 312 314 312 344 353 350 348 347 348 348 349 350 340 343 343 344 345 344 342 337 338 336 337 333
335 341 340 343 351 354 354 350 350 331 306 305 304 304 305 315 307 306 306 304 305 314 350 352 352 350 350 350 350 350 344 345 349 343 344 344 342 339 334 334 335 336 332
332 317 341 345 347 349 351 352 352 349 351 353 310 312 303 301 303 302 300 310 331 323 347 352 353 354 353 354 352 348 345 343 340 342 344 340 338 338 333 331 331 332 327
324 328 333 337 343 341 349 350 349 349 351 352 350 317 307 299 298 298 299 350 354 357 352 352 355 354 354 353 350 345 341 338 343 347 344 337 338 337 334 335 331 319 322
322 320 322 330 334 340 344 347 346 347 346 347 351 351 342 319 336 335 325 335 355 361 361 355 349 348 346 345 341 341 341 337 341 341 338 338 338 335 334 333 330 330 327
319 322 321 328 331 334 338 343 345 346 344 343 347 346 318 341 349 349 346 343 351 358 357 355 350 347 343 342 344 344 344 339 339 337 337 336 337 333 334 333 333 331 330
318 321 323 324 328 330 335 338 343 344 343 341 342 337 304 331 344 347 348 350 353 353 350 345 339 337 336 336 336 337 339 338 338 337 334 336 336 334 333 331 331 332 330
315 317 320 323 326 325 332 335 337 342 343 343 341 335 324 329 338 346 348 349 345 344 343 337 334 334 335 336 338 339 339 337 337 336 331 331 332 332 331 329 327 328 331
316 317 317 323 325 330 332 333 335 327 339 341 341 337 331 332 335 336 338 339 338 338 340 340 339 339 338 339 338 338 340 339 339 337 336 334 330 324 329 329 327 327 332
309 313 322 323 327 327 332 332 335 337 335 333 332 326 322 321 320 320 321 328 328 324 323 325 329 332 332 331 332 335 299 289 325 311 337 336 334 335 334 333 333 332 331
302 302 303 306 311 313 314 311 309 310 309 307 307 307 307 310 308 308 307 309 309 307 308 309 308 310 311 310 302 291 285 286 309 294 332 335 335 335 334 334 333 333 332

GFSGL_sfc_thetae_072.txt.gz
Theta_e
358 360 362 358 358 359 357 359 361 362 362 363 360 359 357 359 363 365 364 362 362 365 366 365 366 367 357 353 355 354 351 349 344 345 345 352 358 356 356 357 355 355 353
359 362 360 361 363 357 358 359 361 362 364 363 363 362 360 359 363 364 362 359 361 363 364 366 365 363 367 368 359 364 359 361 352 357 357 352 362 367 363 360 356 353 354
356 355 357 358 358 361 361 361 361 362 362 363 363 361 361 358 358 361 362 361 361 362 365 365 366 367 366 364 364 360 357 357 358 354 352 351 352 354 357 365 365 366 358
352 353 358 361 362 360 364 365 361 364 362 362 364 363 362 360 358 357 358 361 361 361 363 365 366 366 366 367 366 367 365 362 360 355 352 351 352 361 357 353 353 357 356
356 353 359 364 365 366 366 365 364 363 362 363 363 362 362 360 355 359 357 356 359 360 362 363 364 361 351 355 362 370 373 362 355 352 349 349 348 349 354 354 353 355 361
359 357 362 365 366 365 366 365 365 363 364 363 362 362 360 356 340 337 350 355 356 360 358 362 363 356 354 343 342 342 351 364 368 357 352 350 364 361 356 354 354 354 354
361 361 363 365 365 366 364 366 366 365 364 364 362 363 362 363 335 333 338 355 355 360 364 363 357 352 353 361 346 339 340 337 340 357 359 360 361 364 366 365 367 361 358
361 362 363 364 364 365 366 366 367 365 366 366 362 364 362 363 335 331 334 356 360 363 364 366 366 365 365 363 361 359 361 361 361 357 360 361 362 367 369 368 363 361 360
359 361 363 364 364 364 363 365 364 364 363 363 364 365 366 365 330 329 336 355 354 361 362 365 368 367 350 337 359 360 361 361 347 335 337 337 337 336 341 353 349 354 350
359 360 364 364 365 364 365 366 366 363 360 359 360 363 352 366 336 324 335 355 356 352 363 368 340 353 336 329 359 359 359 358 359 362 366 355 342 358 336 358 358 352 351
357 357 361 363 366 366 367 367 367 364 364 365 364 365 365 361 361 322 321 358 353 352 352 353 357 330 327 325 326 364 359 358 357 366 365 365 368 368 366 369 369 359 352
361 358 362 364 359 358 366 364 364 365 364 365 363 360 361 366 338 327 319 324 344 358 357 356 360 325 319 320 327 333 327 332 358 359 360 359 358 361 363 364 359 358 356
360 361 361 361 360 364 364 362 359 362 358 358 357 357 357 360 365 326 317 318 323 347 360 350 329 320 314 322 318 323 323 355 357 355 356 359 361 365 365 356 352 353 346
357 358 359 359 358 360 359 360 358 357 356 355 355 355 357 358 361 364 357 341 324 336 341 352 348 338 330 340 349 342 355 360 360 358 359 362 366 358 354 353 346 346 337
356 356 357 357 358 359 360 358 357 363 353 357 356 358 357 358 359 346 349 366 364 350 351 360 359 358 358 359 360 363 364 365 358 358 359 357 354 352 349 350 345 343 339
355 353 352 352 355 355 355 356 316 317 312 312 313 332 358 333 321 315 318 316 310 314 352 359 357 356 353 354 354 355 357 353 357 356 354 352 350 350 348 347 344 341 340
348 353 355 351 355 354 355 358 356 335 310 309 310 309 311 315 311 306 303 303 308 319 357 359 358 354 357 360 360 359 356 358 358 353 349 349 351 350 342 346 342 340 339
340 317 350 351 352 354 348 352 358 350 352 355 318 318 306 304 304 305 303 312 344 328 355 356 357 358 359 364 362 360 359 357 353 352 352 350 349 347 343 342 339 339 336
334 333 333 340 349 341 343 340 345 350 350 353 355 319 314 301 299 298 299 350 359 361 360 360 362 363 362 362 363 362 360 351 346 346 345 344 346 350 342 339 336 323 328
330 322 325 342 333 340 342 343 344 345 349 351 350 350 345 332 345 346 334 340 355 360 362 362 361 361 362 362 361 359 354 345 343 344 346 346 348 346 341 338 336 336 332
323 324 322 326 329 332 335 338 342 342 342 345 348 346 316 355 353 354 357 352 353 358 362 365 365 361 362 361 357 350 345 341 343 345 347 349 348 342 342 341 337 335 334
322 322 324 324 326 328 330 333 334 335 338 340 340 339 312 347 350 355 356 357 360 360 362 366 364 361 360 358 357 355 350 348 347 349 350 347 343 342 340 338 337 335 334
320 322 323 324 325 322 326 330 331 332 333 338 339 339 341 342 345 350 355 357 359 359 359 357 357 357 355 352 351 350 347 346 345 345 344 342 341 340 337 335 336 332 331
315 317 320 325 326 326 327 329 332 322 331 334 339 339 340 343 344 347 348 350 351 350 352 351 351 351 349 348 348 347 347 347 346 345 345 340 339 333 336 334 335 333 333
306 307 308 311 314 325 330 329 331 335 336 332 333 334 330 331 332 331 334 336 341 342 338 338 340 343 340 341 344 344 298 288 324 306 340 337 336 335 334 334 333 331 330
301 300 300 300 300 301 304 308 310 310 312 309 309 310 310 310 310 309 311 308 315 310 321 317 312 322 322 319 308 292 286 286 313 296 332 337 335 336 336 335 335 334 334

GFSGL_sfc_thetae_078.txt.gz
Theta_e
357 355 354 354 354 354 358 359 362 364 370 369 369 367 365 365 368 368 365 365 363 364 363 366 363 365 361 360 363 362 357 354 347 349 356 358 364 361 360 359 361 359 358
359 357 354 355 354 353 351 362 363 367 372 374 368 370 364 364 365 365 362 358 363 363 364 364 365 364 366 367 362 361 359 361 355 349 354 355 356 358 361 368 364 360 359
360 357 356 356 356 354 352 357 363 360 364 365 369 364 365 363 362 364 364 361 362 362 363 365 364 366 365 365 367 363 363 363 360 355 354 360 356 354 353 359 362 361 364
358 358 356 356 357 356 358 355 357 363 362 364 364 366 366 364 362 360 363 363 363 362 363 363 365 364 364 367 366 366 365 363 360 358 354 353 354 358 362 356 352 356 358
355 356 357 359 359 360 360 361 359 359 361 364 364 365 366 365 362 361 360 361 362 362 364 363 363 363 355 358 364 366 365 363 359 356 354 354 350 354 352 355 351 352 355
355 355 358 360 360 360 360 361 361 360 362 364 363 364 365 364 346 341 354 356 361 360 359 361 364 356 353 344 342 342 351 358 356 355 353 350 352 356 355 352 353 350 350
359 358 358 360 360 360 362 361 361 361 362 363 363 364 364 365 340 336 341 357 356 358 361 360 360 359 352 361 346 340 340 338 342 353 351 351 352 354 358 356 356 357 355
359 361 360 359 360 362 361 361 361 362 362 361 363 364 364 365 340 332 336 354 358 359 360 359 359 359 358 361 364 362 359 357 353 348 350 355 358 361 362 361 360 359 360
358 361 361 359 360 361 361 361 361 361 362 362 363 364 364 364 335 332 334 350 353 356 357 358 359 362 349 340 352 352 352 353 347 335 340 341 343 341 345 351 347 349 350
357 361 365 362 361 361 363 362 363 364 362 363 363 365 356 366 338 328 333 355 353 353 357 359 340 350 338 333 353 357 355 357 360 360 362 354 337 345 333 346 351 351 354
363 361 364 366 362 364 365 365 365 364 364 364 364 365 368 364 363 326 322 356 355 355 354 354 357 333 327 325 327 357 355 357 357 361 362 361 362 364 369 360 359 361 358
366 363 364 365 364 364 365 366 366 365 364 363 363 363 365 368 341 328 320 325 344 356 354 354 354 327 320 322 326 332 331 332 357 356 354 354 355 361 365 369 367 369 361
364 364 363 366 366 364 364 364 364 365 363 361 361 361 361 365 367 328 320 320 324 350 358 346 327 323 316 317 318 323 323 345 350 352 353 355 360 365 368 366 360 358 351
365 366 365 365 364 365 364 364 364 363 362 360 358 359 360 360 360 364 345 333 325 333 339 349 345 335 324 335 345 329 342 354 355 356 356 360 365 364 365 361 355 348 345
356 365 365 364 362 364 362 364 364 365 360 361 360 359 358 356 356 344 349 354 351 343 347 355 354 354 351 353 358 362 357 356 356 359 359 360 362 362 364 353 351 345 339
338 344 358 359 360 360 360 358 316 327 318 318 325 341 343 320 308 306 306 321 321 319 347 355 356 355 355 355 355 357 361 358 363 361 361 361 360 361 361 353 346 343 340
327 327 333 337 355 358 358 356 354 335 311 307 311 317 327 318 307 305 306 308 312 320 357 356 357 358 359 360 360 364 361 360 361 360 363 362 358 356 350 348 346 343 342
326 318 325 330 337 345 358 358 357 353 350 350 317 318 308 311 307 307 307 317 347 343 360 360 361 362 362 364 363 361 359 360 361 361 362 362 359 354 350 347 345 344 343
324 326 326 327 333 332 350 357 358 357 356 356 356 325 309 303 302 302 306 358 358 358 360 358 358 359 361 365 363 361 359 361 363 364 363 361 358 354 350 348 346 330 333
322 325 324 328 330 332 339 346 349 356 347 359 356 355 343 330 342 346 341 350 355 356 357 359 361 362 361 362 363 362 362 364 367 366 363 359 356 355 350 348 346 343 340
320 326 327 331 329 333 334 333 338 342 347 344 350 349 331 349 348 351 354 351 351 352 358 358 359 360 363 370 369 360 360 363 365 362 358 354 350 348 348 345 344 343 342
318 326 329 328 327 328 327 332 332 338 338 341 345 341 311 345 340 351 343 349 358 361 361 363 361 361 362 364 362 363 362 361 360 359 356 353 349 348 346 345 345 345 341
316 316 318 325 324 323 329 331 328 327 327 333 331 334 336 336 339 338 336 347 345 335 334 334 328 329 330 340 338 347 351 352 359 359 355 351 349 348 347 344 343 340 337
305 305 307 311 308 310 311 314 313 312 316 317 316 319 319 320 321 321 320 323 318 320 314 313 311 309 312 307 307 307 306 302 311 334 354 353 352 344 349 346 342 340 337
300 300 299 299 298 300 301 301 302 304 304 304 303 304 307 309 308 307 308 309 309 306 304 303 300 300 301 299 298 297 290 286 296 296 327 344 348 346 343 340 341 339 340
297 296 296 296 295 295 295 295 295 295 296 296 296 296 297 299 299 299 298 299 299 298 299 298 296 294 295 294 291 289 286 286 292 287 306 327 336 339 341 338 338 337 337

GFSGL_sfc_thetae_081.txt.gz
Theta_e
345 348 343 343 350 349 347 343 352 350 356 357 356 355 355 355 356 354 351 353 354 352 352 352 353 351 350 348 350 350 349 342 335 339 344 350 348 346 348 350 352 350 349
347 347 347 343 346 349 346 346 352 349 352 356 356 356 355 353 353 354 353 352 351 352 354 351 351 357 353 349 349 348 349 348 345 338 343 346 348 351 352 352 356 361 352
349 347 347 346 342 345 346 344 349 355 356 358 355 354 352 352 352 353 354 353 351 353 355 354 354 353 352 355 354 352 352 354 352 348 347 350 351 348 346 348 351 354 357
350 349 347 346 347 344 344 343 348 352 352 355 357 354 356 353 353 352 355 354 352 353 355 353 354 355 353 354 356 355 354 353 352 349 348 347 347 349 350 345 344 346 347
351 350 349 348 348 349 346 346 341 353 352 352 354 355 356 357 357 352 352 354 354 353 354 355 354 355 353 353 357 356 356 354 352 350 347 346 344 342 343 346 342 343 347
351 351 351 351 350 349 350 349 346 343 351 354 354 355 355 359 346 343 350 351 354 354 353 353 355 351 350 343 341 343 353 353 348 346 344 343 342 343 346 344 344 344 341
350 352 352 351 351 350 352 351 352 348 346 350 354 356 355 357 340 339 343 353 350 353 353 352 352 355 349 353 345 339 339 337 341 349 343 343 342 344 345 345 346 346 347
348 350 352 353 351 352 351 352 352 354 351 351 353 355 356 358 340 335 338 348 350 349 351 354 353 353 350 348 349 349 350 348 344 343 343 348 349 350 351 352 350 350 352
350 349 352 352 353 353 351 351 353 353 354 352 354 356 356 357 335 334 333 338 345 349 351 351 351 350 343 337 345 345 343 345 346 336 337 336 338 338 345 351 347 340 343
344 354 354 353 353 353 354 353 355 355 353 356 355 355 349 357 336 330 333 351 343 344 348 350 337 347 335 332 347 347 347 350 349 351 350 339 334 339 336 344 352 341 346
334 337 357 355 353 355 355 356 355 355 355 353 354 356 357 355 356 328 323 353 353 348 346 346 350 331 324 322 325 348 346 348 346 349 351 353 354 354 356 342 343 347 347
329 332 353 357 355 356 356 357 356 355 354 354 354 354 357 359 338 331 322 325 343 351 349 350 349 328 322 322 325 330 329 330 346 349 348 347 347 349 352 359 358 356 358
326 331 349 357 356 355 356 356 356 356 355 354 354 354 355 359 361 329 322 320 324 347 354 346 334 325 319 317 317 323 322 332 341 343 345 346 349 352 354 354 351 348 346
325 329 353 356 356 356 358 358 358 357 355 355 354 354 355 356 358 362 345 333 324 330 337 343 332 331 331 338 333 325 326 336 339 342 344 348 351 353 354 353 346 344 340
324 328 340 354 353 357 357 358 358 359 356 356 356 356 354 354 355 345 349 353 349 340 341 347 347 346 347 348 347 348 338 339 344 347 349 351 354 355 353 352 351 342 340
321 325 324 333 343 355 354 350 318 325 321 321 325 345 356 329 327 322 318 323 324 318 338 346 346 347 347 347 346 345 352 345 348 349 352 353 353 351 350 347 342 343 340
320 321 324 325 333 337 351 353 352 333 314 309 310 320 318 323 306 306 306 309 310 321 344 345 348 349 350 350 349 348 348 352 355 355 353 352 352 353 349 346 344 343 342
320 316 322 324 326 331 334 345 353 350 344 342 312 312 305 307 305 303 305 314 326 330 348 348 349 351 352 352 353 353 352 352 351 350 350 351 353 349 346 344 344 343 344
318 320 322 324 327 326 334 341 351 351 347 347 333 313 309 308 308 307 305 347 347 347 350 353 353 355 355 353 354 353 353 351 351 352 353 355 355 350 346 345 346 329 334
315 318 320 324 327 328 331 333 335 342 345 347 346 340 327 324 333 334 335 339 344 348 351 352 351 351 351 351 355 354 351 349 350 352 355 356 354 349 347 346 347 346 342
310 316 321 326 325 326 327 328 329 333 337 338 338 340 315 337 338 341 341 339 342 347 347 348 349 349 349 354 355 356 355 354 356 355 353 351 349 347 347 349 347 345 340
308 310 315 319 324 326 326 323 321 326 329 328 333 324 314 334 332 335 332 326 327 325 323 317 316 314 313 312 314 325 344 348 350 353 350 347 344 343 343 344 344 343 342
304 304 306 308 310 312 314 314 311 312 312 313 317 317 314 314 313 313 314 313 310 309 309 308 307 305 307 303 304 305 304 304 306 316 343 346 343 342 342 340 342 341 338
300 299 299 300 302 304 305 304 305 303 305 304 303 304 305 306 306 305 306 305 304 302 302 301 301 301 299 301 299 299 298 295 298 311 315 330 345 338 344 341 341 340 336
296 296 296 295 296 296 297 297 298 298 298 298 298 298 298 299 299 298 299 299 298 298 296 295 294 295 296 296 293 293 289 286 297 293 313 322 329 334 343 344 343 341 337
294 294 293 293 293 293 293 293 293 293 293 294 294 294 295 295 295 295 295 295 295 295 294 293 292 290 291 291 289 288 285 286 293 291 307 322 324 326 324 333 334 332 334

GFSGL_sfc_thetae_084.txt.gz
Theta_e
344 341 340 341 344 345 343 343 349 343 346 349 349 354 352 352 350 349 350 348 348 347 347 347 348 349 347 346 344 346 344 339 334 337 340 347 345 346 350 350 351 350 351
345 344 340 340 342 346 346 342 344 346 352 352 350 353 353 351 350 349 348 350 349 349 350 348 348 352 350 347 345 345 345 345 343 338 340 344 346 349 350 349 351 356 354
345 344 343 338 339 343 347 345 341 345 347 352 351 351 352 351 350 351 351 350 348 348 350 350 350 349 348 350 350 349 348 351 347 344 345 346 348 347 346 346 348 349 350
345 343 343 342 338 339 346 344 345 346 347 350 352 351 351 351 350 349 350 349 349 348 349 351 352 351 349 348 349 350 351 349 348 346 345 346 346 348 346 343 342 343 345
344 344 343 345 344 339 339 345 342 347 349 352 353 351 352 351 351 348 349 349 348 348 350 350 351 351 348 348 351 350 350 350 349 347 347 344 343 341 339 341 340 340 346
346 345 344 345 345 344 340 340 342 340 349 348 351 353 352 354 342 340 346 348 351 350 348 349 351 349 347 341 341 342 349 350 349 346 344 343 344 338 340 340 339 340 339
345 348 347 345 345 345 346 342 341 340 337 347 348 350 351 354 338 337 341 350 348 350 350 350 349 354 347 351 343 337 337 337 342 349 342 343 340 341 340 339 340 340 341
340 343 349 348 346 345 346 346 344 344 340 338 349 350 350 351 336 334 338 349 350 348 350 351 350 350 347 347 346 346 347 347 343 341 341 346 346 347 344 347 343 344 346
340 337 338 349 348 347 347 347 348 347 346 343 342 347 351 352 332 331 334 348 349 348 349 347 350 351 341 334 346 346 346 346 342 334 334 334 334 334 338 344 344 341 340
329 332 337 335 350 349 349 349 350 350 350 351 349 348 343 351 333 329 333 352 345 345 346 348 334 343 332 328 345 345 343 345 344 345 346 338 333 338 333 339 345 343 340
327 331 336 336 344 352 351 351 350 350 350 351 351 351 351 351 352 326 324 352 353 349 346 346 347 329 324 322 326 347 345 347 344 342 345 346 349 351 351 344 343 347 340
325 329 331 335 343 353 352 352 350 350 350 349 349 351 353 354 335 327 322 326 342 352 350 349 347 325 319 318 320 327 326 327 337 343 344 347 348 349 350 350 350 344 350
323 326 331 333 342 353 352 351 351 351 351 350 349 349 350 353 355 326 321 321 325 346 355 346 331 321 317 319 319 322 320 328 335 337 340 344 347 350 348 349 347 352 349
320 324 328 325 344 351 353 353 353 352 351 351 350 350 351 352 354 356 342 332 324 330 338 345 338 330 327 331 330 323 325 329 333 336 338 342 343 345 346 352 349 344 343
318 322 325 326 332 349 352 353 354 355 351 352 352 352 351 351 352 342 346 353 349 339 340 346 342 335 340 340 340 341 338 333 334 337 338 340 343 346 349 351 348 343 343
316 319 322 324 326 333 348 347 318 322 320 319 323 342 354 334 325 320 317 315 318 313 335 346 344 346 345 347 347 347 345 341 342 342 343 345 347 349 349 345 346 346 345
313 317 321 322 326 327 329 337 347 333 316 312 310 314 316 331 312 308 310 312 305 315 349 344 346 346 346 347 347 346 345 345 348 346 346 348 349 349 343 345 345 345 343
310 312 317 320 323 327 329 331 336 347 344 342 317 314 308 306 305 308 302 311 323 321 346 347 345 346 347 347 347 348 348 346 348 351 351 351 351 350 346 346 345 344 343
308 312 316 319 323 324 327 328 333 343 347 346 330 313 306 302 302 301 302 337 337 335 340 346 346 345 347 349 350 351 351 351 351 349 349 348 349 348 348 348 345 326 330
307 311 314 317 321 322 326 327 326 330 340 343 341 339 323 323 331 334 334 336 341 340 342 345 346 347 346 346 347 350 350 346 347 349 349 351 352 352 350 347 343 341 340
306 307 315 318 321 323 319 317 317 324 331 332 325 328 314 337 338 336 334 329 327 319 318 320 316 314 313 313 316 321 340 348 348 349 349 352 351 348 347 345 343 342 344
301 302 307 308 312 314 312 311 312 311 314 318 316 313 306 324 322 321 317 312 310 311 309 311 309 308 307 307 309 311 313 314 315 318 324 345 347 345 343 343 341 339 340
299 299 300 303 305 307 307 306 305 307 306 307 310 309 309 308 308 308 307 304 304 303 304 306 303 301 301 302 303 303 305 306 306 309 317 322 341 342 340 339 338 337 337
298 297 298 298 299 299 301 302 301 300 302 302 304 305 303 303 301 303 300 300 298 299 300 299 300 298 298 298 298 297 296 295 301 310 314 321 328 328 339 338 338 339 337
295 295 294 294 294 294 295 296 296 297 297 297 298 299 300 300 299 299 299 298 297 295 294 293 293 293 292 292 293 292 289 287 297 294 313 321 326 326 327 329 338 339 337
294 293 293 293 292 293 292 292 292 293 294 294 293 294 294 294 294 294 295 295 294 293 293 292 291 291 290 290 288 287 285 285 293 290 308 312 315 313 312 319 321 324 328

GFSGL_sfc_thetae_087.txt.gz
Theta_e
341 342 342 342 342 340 340 342 345 345 343 344 346 350 349 348 349 347 346 346 346 345 345 344 344 345 345 345 343 343 341 337 334 338 337 344 345 347 349 350 351 350 352
341 340 339 339 340 343 341 340 341 345 344 344 346 346 350 350 348 347 346 349 346 345 346 344 345 348 345 345 344 343 342 342 340 338 340 344 345 347 349 347 348 351 349
342 340 339 338 338 339 343 342 339 343 345 348 347 346 349 349 348 349 347 346 346 346 348 347 347 346 344 345 346 345 346 347 344 341 342 344 345 346 347 347 346 344 348
342 342 340 338 338 338 340 344 344 340 343 345 349 349 348 349 349 349 349 347 347 347 347 347 348 348 347 346 346 345 345 345 344 343 342 343 343 345 343 342 339 341 342
341 341 341 342 339 338 338 341 343 344 344 344 346 349 348 348 350 347 348 348 347 345 346 347 348 349 347 346 349 346 345 344 344 343 342 342 343 341 340 339 338 339 342
342 342 343 343 342 338 337 337 341 342 344 345 346 346 348 351 340 338 345 346 346 345 344 345 348 347 345 340 339 339 344 345 343 342 343 343 344 339 337 337 336 336 335
343 343 344 341 342 342 339 336 337 340 340 342 345 348 348 349 336 335 339 348 346 346 346 346 346 351 345 349 341 337 336 335 341 347 342 342 340 340 338 336 336 337 337
343 345 346 344 342 343 343 340 336 338 339 337 340 345 348 350 334 331 336 346 346 346 347 347 347 347 346 346 346 345 344 345 341 340 341 345 343 345 342 342 340 340 342
338 335 337 338 343 345 343 343 343 340 338 338 336 336 343 346 330 330 332 345 347 348 348 347 348 348 340 333 344 344 343 345 340 333 334 333 332 332 335 339 338 339 337
324 328 334 336 335 339 346 344 345 345 343 343 341 338 335 343 329 326 331 348 347 347 349 347 333 343 331 326 341 344 341 344 342 340 340 335 331 336 331 338 341 339 336
322 325 329 333 336 336 338 348 346 345 346 345 345 344 341 341 344 324 323 348 349 347 347 347 346 328 322 320 323 346 343 343 339 340 340 341 343 345 348 342 341 343 341
320 323 325 329 334 340 338 344 348 346 345 346 346 347 348 348 329 324 320 325 339 349 349 350 347 323 319 318 319 325 324 327 335 335 337 341 342 345 348 349 348 345 349
317 321 322 327 330 333 336 342 348 347 346 346 346 346 348 351 350 324 319 319 324 343 353 344 330 319 315 316 317 321 321 328 333 332 335 339 342 346 345 344 346 348 348
313 316 320 325 325 328 337 348 348 348 345 346 347 346 347 348 351 353 338 329 322 329 336 343 337 330 327 331 330 325 328 332 335 336 337 338 338 339 340 342 343 344 345
312 315 318 323 324 326 332 346 350 352 347 347 348 349 347 347 349 339 342 347 345 337 338 345 347 337 338 339 338 338 335 331 331 333 334 335 336 337 339 343 345 343 345
309 312 313 318 322 326 329 332 322 319 315 313 314 337 350 331 322 313 313 312 315 312 334 346 346 346 346 344 344 344 342 339 340 339 339 340 340 340 341 343 345 346 346
306 308 311 314 319 323 327 329 331 333 311 308 309 311 313 324 311 308 309 307 304 312 348 345 347 347 346 346 346 346 346 347 347 344 342 341 342 343 341 344 346 345 345
304 306 308 313 316 321 325 328 332 334 339 345 319 313 309 308 304 304 301 310 318 322 344 348 346 347 347 346 347 347 347 346 343 344 344 343 344 345 344 345 345 347 347
303 305 307 310 313 318 323 325 328 331 334 342 338 318 308 305 306 300 304 340 343 338 337 342 347 349 347 347 346 346 347 347 345 346 347 348 349 348 347 348 347 328 331
304 307 310 314 315 320 324 321 321 325 328 333 342 340 324 320 326 328 325 331 339 338 336 338 342 344 345 345 346 347 347 347 347 348 349 349 349 349 349 347 346 340 340
302 303 308 312 315 316 315 314 315 315 320 321 320 316 314 334 336 337 336 324 320 318 319 319 317 314 313 314 319 326 339 347 344 345 345 345 348 349 349 346 343 340 339
300 301 302 306 310 311 309 310 309 310 309 312 312 311 303 317 316 312 310 308 309 307 308 307 305 304 305 304 305 308 313 316 320 324 327 332 342 346 344 343 342 339 338
298 298 297 301 304 304 305 304 304 304 305 306 306 306 306 305 305 305 304 303 303 302 304 303 302 301 303 301 302 302 302 302 307 308 317 326 335 340 339 341 340 337 336
297 297 297 298 298 298 299 299 300 298 299 301 300 300 301 302 301 300 300 299 299 300 302 301 297 297 297 297 298 297 295 293 298 305 309 319 328 327 335 339 339 338 337
295 294 294 294 294 294 295 295 295 296 296 295 296 297 296 296 296 297 296 296 295 297 295 295 296 295 294 294 293 292 288 286 297 294 309 316 319 319 321 323 325 327 331
293 293 293 293 292 292 292 292 292 292 293 293 293 293 293 293 294 294 294 293 292 292 292 292 292 291 291 290 289 287 285 286 293 292 305 309 308 308 311 314 316 318 318

GFSGL_sfc_thetae_090.txt.gz
Theta_e
342 343 343 341 340 339 341 345 348 349 349 348 351 352 352 353 353 351 351 351 350 351 351 351 351 351 352 352 351 350 348 344 342 347 345 353 356 358 361 362 359 360 354
342 343 343 343 343 341 340 342 345 347 349 349 348 350 353 352 353 352 351 353 351 350 351 351 350 350 352 353 352 352 350 349 347 347 351 353 355 358 359 359 358 354 354
342 341 342 341 341 343 343 342 342 345 346 348 349 349 350 352 353 353 352 352 352 351 352 351 353 353 351 351 352 352 353 353 352 349 350 353 354 356 358 359 357 356 353
342 341 340 340 339 341 343 344 342 344 345 346 350 350 351 352 353 353 352 351 351 351 352 352 353 353 352 353 353 353 353 352 352 350 351 352 353 356 353 351 350 353 350
341 342 341 341 341 341 341 342 345 344 344 346 347 351 352 352 351 352 352 352 352 351 352 352 353 352 346 349 354 356 354 352 352 350 351 351 353 351 352 351 347 348 351
342 341 344 344 343 340 340 341 343 345 345 344 344 346 349 351 340 338 348 352 352 352 351 352 353 348 347 339 338 340 349 354 352 351 352 350 353 352 351 348 347 347 345
340 343 343 344 343 342 340 339 339 342 344 344 345 346 346 349 334 334 339 352 351 351 351 351 350 351 347 354 343 337 336 335 340 355 352 352 351 353 351 349 347 347 347
332 341 345 345 343 343 343 339 338 339 342 342 344 346 347 348 332 331 335 349 351 351 351 352 351 352 352 352 353 352 353 353 350 346 349 352 354 355 353 353 352 350 351
321 325 330 337 343 344 343 343 342 339 339 341 342 343 345 345 328 328 333 347 349 350 351 352 352 352 341 332 350 350 351 351 341 333 334 334 333 332 338 349 346 345 346
319 321 325 330 334 338 345 344 345 345 343 341 341 341 335 344 328 325 331 348 348 349 353 354 334 347 332 326 348 351 349 351 352 352 351 340 334 341 330 343 348 345 348
319 321 323 327 331 337 338 340 346 346 346 345 344 344 342 337 339 321 321 349 347 347 348 348 351 327 322 319 324 351 348 350 348 349 349 349 350 351 351 348 349 349 350
318 319 321 324 330 334 336 338 339 347 346 345 345 345 347 345 326 323 318 323 337 346 346 349 350 323 318 317 320 326 325 327 346 345 345 345 347 348 350 353 356 353 355
316 317 319 322 327 329 330 333 335 342 345 345 344 345 346 349 348 321 317 318 322 343 351 343 332 320 317 319 317 321 320 334 340 341 342 344 347 349 353 354 355 357 356
313 314 316 318 320 326 329 332 334 339 345 346 345 345 347 349 351 352 337 327 321 328 335 343 338 334 328 335 333 329 334 339 340 342 344 346 349 347 348 350 350 352 348
311 313 315 316 317 322 326 329 331 335 342 347 348 348 348 347 349 340 341 345 344 336 338 345 347 347 348 348 347 347 345 343 339 342 343 344 343 345 347 351 351 351 347
309 311 312 312 315 319 323 325 318 312 310 309 315 333 349 330 319 310 310 311 314 311 336 345 345 346 345 346 346 348 348 344 346 346 345 345 345 345 346 349 350 351 346
308 309 309 309 313 316 319 323 323 326 313 310 306 310 312 326 310 308 307 306 307 312 346 345 346 348 346 347 348 347 348 351 353 349 347 347 347 347 344 347 347 347 347
308 306 307 309 311 314 317 320 325 325 326 332 320 310 308 307 303 307 306 309 321 316 346 349 348 349 349 349 349 349 351 353 352 351 350 349 347 345 343 342 346 349 351
306 306 307 309 312 313 316 320 325 324 324 327 332 324 311 305 306 309 307 342 344 339 339 346 351 354 351 352 352 352 353 352 351 350 350 348 347 345 345 348 352 331 339
305 306 307 309 313 319 321 319 319 319 320 324 328 330 329 320 325 323 322 332 342 346 347 345 348 350 352 353 352 352 351 350 350 350 350 352 350 350 350 352 351 350 345
302 303 305 307 312 315 315 314 314 314 315 316 317 314 302 316 335 336 334 333 334 332 327 327 320 317 315 314 316 320 325 332 338 344 346 349 352 349 350 351 352 352 350
299 300 302 303 307 310 309 309 308 308 310 310 309 310 300 314 314 315 312 310 312 311 311 310 312 311 311 309 310 312 312 313 314 314 319 326 331 340 348 348 347 346 347
298 299 300 301 303 304 306 304 303 303 304 304 304 304 305 304 303 302 303 304 304 307 305 306 305 302 304 304 303 303 304 306 306 309 315 321 326 331 337 342 341 339 340
297 298 298 299 299 300 300 300 299 298 299 299 299 298 299 300 299 299 299 299 300 302 302 302 304 305 303 303 302 302 300 297 303 307 312 321 323 320 326 329 331 338 342
295 295 295 295 295 295 296 295 295 295 295 295 294 296 297 297 296 295 295 295 295 296 296 294 296 296 295 296 295 294 288 287 298 296 316 317 316 318 321 322 322 325 325
294 293 293 293 293 293 293 292 292 292 292 292 292 292 293 293 293 293 293 293 294 292 292 292 292 293 292 291 290 288 287 288 293 289 308 312 313 312 315 313 316 315 316

GFSGL_sfc_thetae_093.txt.gz
Theta_e
351 353 353 351 351 353 352 355 358 360 362 362 362 363 362 362 364 364 362 361 361 361 361 360 360 363 358 358 360 360 357 355 348 351 357 362 366 366 367 370 364 362 358
351 353 351 352 352 351 351 352 356 358 361 362 362 361 361 362 364 362 360 359 359 358 359 361 359 357 361 362 358 361 359 361 355 354 359 357 362 367 368 368 364 359 362
349 347 350 350 350 351 352 353 353 355 358 360 361 361 360 361 361 362 362 361 361 360 360 360 359 360 361 359 361 359 358 359 359 355 354 357 360 363 362 364 363 364 357
348 346 348 350 352 351 354 354 353 354 354 356 358 359 360 361 361 361 361 361 361 360 361 360 359 360 360 361 360 361 362 360 359 357 353 353 355 361 362 354 350 354 355
350 348 349 352 353 353 353 354 355 354 353 356 356 357 358 359 358 361 361 361 361 361 361 361 360 358 350 352 356 359 361 357 353 351 350 350 350 350 354 352 349 352 356
346 348 351 352 351 351 351 352 352 353 354 354 355 354 354 353 339 340 354 360 362 361 360 361 362 353 351 340 339 340 350 359 356 351 348 350 357 356 353 351 352 350 345
329 336 349 351 351 351 351 350 351 351 353 353 353 353 355 357 334 335 340 360 361 361 361 361 359 356 353 360 344 337 337 335 340 358 356 355 358 358 359 358 358 355 352
323 325 328 334 349 352 352 351 351 350 351 353 352 353 355 354 332 331 336 357 361 361 361 361 361 361 361 360 360 359 360 360 359 354 357 359 361 363 363 361 359 358 357
321 322 325 328 331 336 349 350 351 349 350 350 351 353 353 355 328 328 334 351 353 360 360 361 362 362 347 336 357 357 359 358 345 337 337 336 336 335 340 355 352 350 348
320 322 325 327 328 331 335 339 346 350 347 347 348 351 343 355 332 324 332 348 350 348 358 363 337 352 336 328 355 357 354 355 356 357 359 349 338 349 331 351 355 350 348
321 322 323 326 326 330 334 337 339 344 349 351 350 351 352 350 351 322 321 351 349 349 347 348 350 329 325 321 327 360 355 356 352 358 357 356 357 358 358 358 360 356 351
319 320 322 323 326 330 331 330 333 341 342 343 350 350 351 354 332 325 318 322 339 351 352 351 352 323 319 318 324 332 329 331 355 354 352 351 352 354 356 359 364 362 361
321 318 319 321 323 327 327 327 330 335 341 342 343 345 348 352 354 322 317 317 321 344 352 344 329 318 315 320 319 323 322 346 351 351 349 350 353 356 363 362 363 366 366
320 320 317 318 319 320 323 327 330 331 336 339 341 344 346 350 353 355 344 335 321 329 335 345 341 336 332 340 342 333 345 354 353 352 351 353 357 358 357 358 356 357 356
318 319 319 316 318 318 320 321 324 329 330 334 339 347 347 348 352 341 344 353 348 341 343 351 351 351 351 350 353 356 357 356 353 354 354 354 355 356 356 358 357 356 353
315 317 317 316 316 317 319 319 315 311 310 308 307 313 338 329 319 314 312 312 313 313 339 349 350 351 348 348 349 349 352 351 355 355 354 354 354 355 356 357 357 355 353
312 314 316 314 315 314 315 316 318 320 310 308 304 304 303 313 310 306 306 306 307 314 346 350 351 350 349 349 349 349 350 354 360 355 355 356 357 357 354 354 353 351 351
312 308 312 313 314 314 314 316 319 321 324 328 318 316 311 301 304 307 307 312 325 317 345 349 351 351 352 351 350 349 351 353 356 357 357 358 358 355 352 350 349 348 347
310 309 313 313 314 313 315 318 319 323 324 323 327 322 314 308 303 304 307 337 342 344 338 344 349 353 354 356 356 353 352 353 355 356 359 359 357 354 350 349 349 329 338
307 307 308 310 312 312 316 319 320 320 320 319 322 323 316 315 330 333 324 332 341 348 351 345 347 350 353 355 356 353 353 351 355 357 357 358 358 355 351 352 352 351 351
305 309 307 308 310 312 314 316 317 317 316 317 318 316 301 308 319 332 337 335 339 345 335 329 328 327 325 325 330 333 334 335 332 331 334 341 348 351 353 354 354 354 354
306 307 307 307 308 308 311 312 312 312 311 311 312 311 300 314 312 315 314 313 312 312 315 316 315 314 313 316 319 321 323 322 319 319 322 325 330 334 338 343 349 349 353
304 305 306 307 307 306 307 309 307 307 306 306 305 304 305 305 305 305 306 309 308 307 308 310 311 309 311 310 310 311 315 315 317 317 321 323 327 330 333 336 342 344 348
302 302 303 303 303 303 303 303 302 299 300 301 301 300 300 299 299 298 300 301 299 299 302 304 303 305 307 307 307 307 308 309 316 318 318 323 324 323 330 329 329 333 339
296 297 298 299 299 299 300 299 298 297 297 296 296 297 297 297 296 295 295 295 296 296 296 297 298 297 298 297 297 298 291 289 302 297 319 320 321 324 326 328 327 330 331
294 294 294 295 295 295 295 295 294 293 293 293 293 294 294 293 293 294 294 294 293 293 292 293 293 293 293 291 290 287 285 285 296 290 317 318 318 319 321 321 321 320 321

GFSGL_sfc_thetae_096.txt.gz
Theta_e
357 358 359 359 360 361 357 359 360 364 365 364 366 365 363 362 364 366 363 360 362 361 362 362 361 364 356 354 355 355 353 352 347 348 354 361 366 365 367 369 363 362 354
356 357 357 358 360 357 358 358 359 361 365 364 364 367 365 365 366 364 358 358 360 359 361 361 360 356 364 364 356 361 358 359 352 355 362 356 364 366 368 367 360 357 360
354 354 355 356 356 357 358 359 359 359 361 361 363 364 364 365 365 366 363 360 360 361 361 361 359 360 361 358 360 357 355 356 358 353 352 356 357 359 362 366 363 362 353
349 352 353 355 356 356 360 361 360 360 359 359 361 362 363 364 365 364 364 364 363 360 363 363 361 358 360 362 361 363 362 360 362 355 353 352 351 361 358 351 348 350 351
352 351 352 357 355 356 357 358 360 360 360 360 359 358 360 360 358 364 364 363 365 364 364 364 362 356 349 351 355 363 364 357 353 350 348 347 346 348 353 350 347 349 356
341 349 354 355 357 357 358 359 360 359 360 360 360 358 356 352 340 339 354 361 363 363 362 365 365 354 353 343 342 341 349 359 358 349 344 345 361 355 352 349 350 348 346
329 336 342 348 351 354 356 357 357 358 359 359 359 359 358 358 335 334 341 358 359 362 363 363 361 357 357 363 344 338 339 337 340 358 357 356 358 358 361 360 363 357 354
326 326 331 338 338 344 353 356 358 357 357 358 358 359 359 359 334 330 336 357 361 364 363 363 365 364 362 361 362 361 361 360 360 357 359 360 363 363 364 366 365 364 361
327 325 326 329 330 333 339 346 347 357 357 358 357 358 359 360 330 328 336 352 350 360 363 366 367 367 350 336 361 360 359 357 345 337 338 337 336 335 343 357 352 348 344
329 328 326 326 328 328 331 335 342 345 352 353 354 357 348 359 335 324 333 352 353 346 357 366 339 354 338 331 360 360 357 357 354 356 359 352 343 354 334 355 356 349 345
328 330 330 327 326 328 332 334 333 338 345 347 349 355 357 354 356 323 321 353 351 351 348 345 348 330 328 325 327 364 359 357 352 356 357 356 357 357 358 361 365 357 349
323 327 330 330 327 326 330 331 332 334 336 347 344 344 350 357 338 331 319 321 343 354 355 353 354 324 319 321 327 334 329 333 354 345 345 347 348 348 350 356 372 370 365
318 321 327 330 329 329 327 326 330 334 334 336 343 343 344 348 355 326 320 318 321 342 354 346 327 318 313 320 319 324 324 350 349 344 344 347 349 350 364 367 371 376 376
316 319 323 325 327 328 326 324 321 323 329 334 335 340 343 345 349 352 355 338 323 333 335 344 342 336 330 339 342 335 348 352 350 348 349 351 352 351 350 355 355 356 356
314 316 320 322 325 326 326 323 320 322 320 325 328 335 336 338 346 325 323 350 361 345 344 351 351 351 352 353 353 354 355 355 352 353 354 353 352 351 350 353 354 354 353
312 314 316 319 321 322 323 323 311 309 308 305 303 312 329 319 311 308 307 309 311 314 345 348 351 353 354 355 354 353 354 350 355 356 355 354 352 350 348 350 353 353 352
312 314 316 315 318 320 321 321 320 319 307 305 304 304 302 306 303 302 301 302 304 312 347 352 351 353 355 357 356 352 352 356 362 355 353 353 352 349 347 350 352 354 354
313 308 313 316 316 318 320 321 321 321 319 323 314 310 310 303 300 300 299 304 326 318 347 351 353 354 357 355 353 353 354 354 357 357 353 352 352 351 351 352 353 354 357
312 312 313 315 317 316 319 319 319 321 322 325 324 318 318 307 303 301 300 321 337 345 339 344 352 355 360 363 360 358 358 356 355 356 356 358 359 357 355 354 357 336 342
310 310 311 313 313 316 317 318 319 321 322 323 323 322 325 319 320 324 325 324 334 347 348 345 348 351 354 358 359 362 361 356 358 355 355 360 364 363 358 357 357 355 357
307 309 311 311 313 315 316 317 319 319 320 320 321 319 300 313 314 319 323 327 334 337 340 350 346 337 331 330 332 336 344 352 354 356 357 351 354 353 356 355 353 354 354
303 305 308 311 314 315 316 316 315 317 317 316 318 318 301 312 313 312 314 312 313 315 317 320 318 318 318 319 322 324 325 326 327 328 330 332 333 335 338 340 341 345 349
304 304 306 309 311 311 312 311 311 312 314 315 313 312 308 307 306 305 306 307 309 310 312 312 313 312 312 314 313 313 315 317 319 321 323 326 329 332 336 339 342 345 349
302 302 302 304 307 309 311 308 308 304 306 308 307 306 303 302 301 299 300 301 301 302 304 304 303 303 304 304 305 305 302 302 304 317 322 326 330 328 335 335 333 332 335
298 298 298 299 300 302 303 304 305 305 303 302 302 300 299 298 297 297 297 296 298 299 298 298 299 298 297 297 296 295 290 287 305 299 321 324 324 328 331 333 332 333 330
295 295 294 295 295 296 297 298 299 299 298 297 297 296 296 294 295 294 294 294 294 294 293 294 296 296 296 294 291 290 287 286 298 291 316 320 322 323 326 327 325 327 326

GFSGL_sfc_thetae_099.txt.gz
Theta_e
361 363 365 362 363 364 360 360 361 365 363 364 365 363 362 360 362 366 366 364 363 364 363 361 362 370 357 352 353 353 352 351 346 350 353 361 373 374 368 372 364 367 353
359 361 360 362 362 361 362 360 361 364 367 364 365 365 364 363 367 363 359 357 359 358 358 362 359 356 368 370 356 368 359 363 351 358 358 356 368 375 376 376 362 357 356
359 358 359 360 361 361 361 362 362 364 364 362 366 366 363 364 366 367 364 360 360 360 360 359 358 361 365 360 365 359 355 357 360 354 352 354 357 359 364 370 372 369 353
351 351 360 361 361 360 361 363 363 365 364 365 368 368 365 364 363 361 364 367 364 360 361 361 361 360 364 368 364 370 365 361 359 354 353 352 352 363 357 352 351 351 349
347 353 353 360 359 360 361 362 362 365 363 365 365 364 362 361 357 365 366 365 368 366 364 363 363 358 351 354 354 365 370 360 352 350 348 347 345 350 354 350 350 348 355
332 337 345 354 357 360 359 362 362 361 366 367 364 363 361 353 339 339 352 363 366 368 367 368 369 356 352 343 342 342 351 360 365 349 344 344 362 354 350 348 350 346 345
329 327 332 338 341 352 357 359 360 362 362 364 365 364 364 365 339 333 340 358 362 367 368 370 362 355 357 364 345 340 341 337 340 359 359 360 361 365 366 366 361 360 354
330 329 327 331 333 338 342 356 358 361 361 362 360 363 364 363 337 332 334 356 361 365 366 369 368 368 369 367 367 364 363 363 361 354 358 361 364 368 368 365 369 371 364
332 332 331 330 330 332 336 339 345 355 355 360 360 362 362 365 333 329 336 354 353 359 364 367 368 370 353 339 364 365 367 365 347 340 344 343 340 338 345 357 350 348 345
329 332 334 334 328 329 331 332 335 341 348 350 354 360 351 362 339 325 333 354 355 353 359 361 341 353 339 332 363 365 363 364 364 361 363 351 343 353 336 355 355 348 346
325 325 329 334 335 331 331 333 334 334 338 341 345 350 357 357 358 324 321 357 355 353 353 354 353 331 328 326 326 366 361 363 360 363 359 356 354 358 362 364 366 358 351
323 323 324 328 331 332 333 332 331 335 335 339 338 343 348 356 338 335 319 321 343 356 356 355 356 323 319 322 328 335 332 336 357 354 350 346 346 347 351 357 370 370 366
319 320 322 325 327 331 333 332 328 332 330 336 338 338 344 355 351 328 321 319 321 341 356 348 324 318 316 319 317 322 324 348 352 350 350 349 349 349 359 364 374 381 379
317 318 319 320 324 327 326 328 328 325 324 324 327 330 340 342 349 350 350 350 327 332 335 346 342 334 323 330 340 333 343 351 352 353 353 354 353 351 351 354 353 353 353
316 316 317 318 320 323 326 326 328 332 324 324 323 322 325 330 338 317 316 327 332 330 321 340 351 352 351 353 356 358 359 356 353 354 354 354 352 353 354 355 353 352 351
314 314 314 315 317 319 321 323 313 312 307 305 305 312 324 314 310 308 304 302 302 305 328 337 345 350 353 354 356 355 356 353 358 358 356 355 354 355 355 356 355 352 350
313 315 314 313 315 316 319 319 319 319 307 303 301 302 300 307 302 300 298 299 300 304 328 339 343 349 352 356 355 353 354 359 363 358 357 357 357 358 353 353 353 351 350
314 310 314 313 314 315 318 319 320 320 320 323 309 308 303 299 298 298 299 301 326 318 326 336 341 350 352 355 358 358 358 360 358 358 361 359 357 354 352 351 351 350 351
312 312 312 314 315 314 316 317 319 320 320 320 323 315 313 305 304 304 301 321 327 328 335 337 346 356 355 354 357 362 363 361 357 354 357 359 359 355 351 352 351 331 339
308 309 309 312 312 313 315 315 316 318 319 320 320 323 327 323 324 324 327 327 327 327 330 339 347 349 350 348 351 356 361 358 355 354 356 358 360 361 355 355 355 355 355
306 306 306 307 309 312 313 313 314 316 317 319 321 319 299 324 320 320 322 320 320 319 319 322 327 339 338 339 338 333 339 342 346 349 351 355 357 357 360 359 358 359 358
303 303 304 304 307 310 311 313 315 316 316 318 319 319 300 320 320 317 315 315 314 315 314 314 317 321 320 323 326 324 326 329 331 331 329 331 334 337 343 347 348 344 346
302 302 302 304 306 306 308 310 312 313 314 316 318 319 319 319 317 313 310 308 307 306 307 308 310 313 314 314 315 316 317 320 323 322 324 325 327 330 333 335 336 338 340
299 300 300 300 302 303 305 306 306 307 308 310 312 312 312 310 309 307 304 303 302 302 302 303 304 303 304 305 305 307 308 309 310 312 319 322 324 326 332 334 334 334 335
297 296 296 296 297 299 301 302 305 306 305 306 305 306 307 305 302 301 300 299 298 298 297 299 299 299 299 298 300 300 294 285 300 300 315 322 324 327 331 334 333 334 333
295 295 294 295 294 294 295 296 298 300 301 301 301 300 300 299 298 297 297 296 295 295 294 294 294 295 295 294 293 289 286 286 296 290 314 319 322 324 324 329 326 326 326

GFSGL_sfc_thetae_102.txt.gz
Theta_e
363 364 364 364 366 368 366 368 367 373 354 337 336 345 365 366 367 368 364 363 360 363 365 363 365 368 362 360 362 360 358 358 352 355 356 359 359 363 368 369 369 364 348
353 361 362 366 366 364 365 366 368 368 372 358 350 360 360 366 365 366 361 361 360 361 364 363 362 359 365 364 361 358 358 360 353 349 355 356 362 365 371 366 368 359 358
356 355 360 362 361 366 366 367 367 368 369 370 372 367 367 362 363 365 364 363 363 362 364 362 362 363 363 361 364 361 360 363 362 358 356 357 357 362 361 365 365 366 354
346 346 353 360 362 364 367 366 368 368 366 367 369 368 367 365 364 363 361 363 363 362 364 364 363 363 362 364 363 362 361 359 358 357 353 354 358 360 362 352 347 354 355
338 339 341 346 356 361 364 363 364 366 365 366 366 366 367 364 358 363 364 363 360 362 363 365 365 362 355 357 358 361 360 360 356 353 350 349 348 351 349 350 351 353 350
331 330 337 341 341 343 351 357 363 363 364 366 364 363 361 357 341 339 356 360 363 361 359 363 367 360 353 343 342 341 348 355 355 356 349 346 352 356 353 353 351 346 344
330 330 330 336 338 338 342 343 354 358 360 362 362 362 362 363 341 335 337 355 359 362 363 362 359 356 353 360 342 339 339 338 341 351 351 353 352 354 357 357 355 355 351
332 330 331 332 332 333 335 336 340 345 355 357 360 361 360 360 339 334 336 354 357 360 359 362 365 362 361 361 363 361 357 357 353 347 349 350 352 355 359 358 356 358 360
331 333 335 335 332 330 332 333 334 337 341 350 356 357 359 360 338 328 334 355 355 355 355 359 360 360 350 341 358 359 361 362 350 342 343 341 341 341 347 358 351 347 343
326 327 329 334 336 334 332 333 337 336 339 341 344 353 348 358 339 330 331 354 355 355 357 357 339 347 337 333 355 359 355 356 358 359 357 345 340 346 336 349 353 346 345
323 326 327 329 330 336 336 339 335 332 334 338 338 345 348 350 355 328 322 349 355 355 354 354 355 331 326 325 326 355 355 356 354 358 359 358 357 356 357 354 353 350 347
323 322 325 327 326 326 333 338 338 336 333 334 338 339 343 349 336 334 324 320 338 352 352 355 355 323 317 314 319 327 328 334 355 354 353 351 349 348 348 351 359 360 359
321 321 322 324 325 327 329 332 333 335 333 330 327 331 336 345 348 330 319 317 319 330 345 339 322 320 318 324 319 320 322 339 345 347 348 348 350 350 350 351 353 368 364
317 318 320 320 320 323 323 324 325 327 330 329 328 325 325 325 334 337 333 331 327 332 332 332 328 323 323 330 334 340 340 341 344 345 345 348 351 351 350 349 344 343 357
315 316 317 318 319 319 321 322 324 328 326 328 329 326 323 321 324 313 318 324 324 321 316 326 332 338 346 351 351 351 351 349 345 347 347 348 350 352 351 350 346 346 347
312 313 314 315 316 316 317 318 315 309 308 305 305 315 323 312 306 304 301 299 300 301 315 322 329 337 341 346 348 352 353 349 353 352 351 350 349 349 350 351 351 348 346
310 312 314 314 316 316 316 317 316 319 308 303 301 301 301 308 304 299 298 299 298 302 314 325 332 337 340 344 348 351 350 352 356 356 354 354 352 351 347 348 349 349 347
309 308 312 314 314 316 315 315 315 315 318 321 311 305 302 300 299 298 298 299 320 318 320 328 334 336 340 342 346 349 351 350 352 346 344 351 352 353 351 350 350 349 348
306 307 309 310 312 312 313 314 316 316 317 319 322 316 309 302 297 297 298 318 323 325 325 327 331 333 339 343 348 350 351 350 346 348 349 350 345 351 349 350 349 330 335
306 307 306 306 308 310 311 312 314 314 316 317 318 319 322 319 321 326 329 326 327 325 322 322 324 324 326 330 343 349 348 347 346 342 340 341 346 352 351 351 350 349 349
304 303 305 304 305 307 308 310 311 312 313 314 315 318 304 322 323 324 324 323 321 318 316 315 315 317 320 323 326 332 335 339 339 339 340 336 340 345 348 349 349 349 349
301 301 302 302 302 304 306 309 308 310 311 312 314 316 301 317 321 322 323 317 315 314 313 311 311 313 315 316 318 318 320 324 328 331 331 332 332 333 334 335 338 346 342
300 300 300 300 300 302 303 305 306 307 307 310 313 313 315 316 314 312 311 310 309 308 307 307 307 307 308 308 310 312 312 313 316 315 318 324 326 329 331 331 333 335 336
298 297 297 297 298 298 299 300 303 301 304 307 308 309 309 310 310 309 307 307 305 303 303 302 302 303 301 302 304 304 305 305 302 308 314 318 322 324 328 329 331 334 334
298 295 295 294 295 295 296 296 297 299 300 301 304 306 307 305 304 305 304 302 300 299 298 298 298 298 297 297 297 296 293 285 291 296 307 316 320 324 327 329 332 332 332
298 297 295 294 293 293 293 293 293 294 295 297 298 300 301 301 301 300 299 298 297 297 296 295 294 294 294 294 293 290 285 284 290 288 299 318 321 320 319 323 323 324 324

GFSGL_sfc_thetae_105.txt.gz
Theta_e
335 344 352 353 353 354 353 350 350 349 347 341 342 339 345 353 353 353 351 350 350 350 350 350 349 352 350 350 352 348 347 347 338 341 346 346 348 349 352 361 359 357 347
336 342 350 352 353 354 354 354 352 347 347 344 338 339 344 352 352 351 349 351 350 348 350 351 348 354 348 352 349 348 346 346 343 338 344 349 352 350 351 358 358 361 350
342 342 347 350 353 352 354 355 354 353 350 345 343 348 350 352 353 354 354 352 351 352 351 351 349 349 348 350 348 348 349 352 349 346 345 348 348 350 352 349 344 348 347
340 339 340 340 347 350 353 355 356 356 354 354 353 354 352 353 353 353 354 353 353 352 353 353 353 352 350 350 350 348 348 348 346 345 345 345 347 349 346 340 340 346 342
333 335 337 339 340 343 348 350 353 354 355 355 355 356 356 356 355 353 353 353 352 351 351 354 356 355 353 352 353 350 349 348 348 346 342 338 337 342 342 344 341 343 341
330 332 336 338 339 339 340 339 348 350 351 353 353 351 351 358 345 340 349 351 353 349 348 351 354 355 352 345 343 344 347 342 339 342 342 340 338 342 344 342 344 342 339
327 329 331 333 333 335 338 338 339 339 347 348 350 352 352 354 342 336 336 345 350 353 352 352 352 354 348 352 344 337 336 336 339 339 336 338 340 343 342 342 342 343 343
327 329 327 327 328 332 333 334 336 338 340 342 347 350 351 353 340 334 334 339 343 345 348 351 351 349 349 351 354 353 348 346 343 341 341 343 342 344 344 345 345 346 348
321 322 323 325 328 326 325 329 332 334 337 339 341 339 343 350 337 329 333 341 345 346 347 348 351 350 345 340 349 348 351 355 349 338 338 338 338 339 342 349 347 342 343
317 318 321 322 322 322 325 327 327 329 333 336 336 337 336 342 335 328 329 343 348 344 349 349 336 341 333 332 346 348 348 351 350 352 346 340 337 342 335 343 346 342 343
316 316 318 319 319 319 321 328 329 327 327 328 332 334 338 338 338 329 323 337 345 346 346 349 350 327 319 318 319 340 344 342 346 349 351 352 352 350 348 345 346 349 346
314 314 315 317 318 319 318 320 324 330 328 327 327 330 335 338 330 327 318 317 324 336 342 347 345 317 314 315 322 323 322 326 337 339 345 346 348 349 350 349 350 348 349
309 310 311 314 315 317 317 317 316 321 324 326 322 318 321 322 323 318 316 319 321 329 333 327 319 316 316 325 320 320 321 327 330 333 337 340 344 347 349 343 342 343 350
307 307 309 309 310 311 313 315 315 316 317 321 321 318 318 319 318 328 324 325 322 328 327 326 323 320 319 324 326 337 341 344 341 339 339 342 344 344 345 346 345 345 342
306 307 307 309 308 308 309 311 313 314 314 316 318 320 318 316 317 317 313 316 318 318 313 322 324 326 328 332 338 344 348 347 343 342 342 343 343 343 343 345 346 345 342
303 306 307 308 310 309 309 308 309 306 304 303 302 305 316 312 308 305 301 298 301 303 314 315 319 321 325 329 333 337 342 344 346 346 344 343 343 343 344 346 347 345 343
300 302 304 306 308 307 308 308 307 309 306 304 303 300 299 303 302 301 297 296 298 300 309 315 317 322 328 332 335 337 338 342 346 346 346 347 348 347 343 344 344 344 344
300 304 303 303 304 305 306 306 307 307 308 310 308 306 305 301 299 299 295 300 313 305 311 316 320 327 327 329 333 335 337 340 343 346 345 344 340 337 336 337 335 332 337
300 302 301 302 302 303 304 305 306 307 308 309 311 310 309 304 299 295 296 310 315 316 320 320 321 322 323 323 323 328 332 336 341 344 343 344 341 336 335 335 334 321 325
300 306 304 300 300 301 302 303 304 305 306 307 308 310 310 310 311 313 309 312 316 319 315 314 315 316 315 314 316 321 323 329 333 336 342 343 341 339 336 334 332 330 331
297 297 302 298 298 299 301 302 303 304 304 305 307 309 303 305 310 313 318 319 314 311 310 312 311 310 310 311 312 315 317 320 323 327 330 334 337 334 334 338 338 338 338
296 295 296 295 297 298 299 300 301 301 303 303 305 307 302 307 310 308 307 307 307 305 305 304 304 306 307 307 308 307 308 311 315 319 320 323 326 330 332 333 335 335 337
294 293 293 293 294 296 295 297 297 298 299 302 303 303 306 307 307 306 307 304 303 302 301 301 302 303 304 305 304 303 304 305 308 309 310 314 317 321 325 327 329 330 332
293 292 291 291 292 292 293 293 295 295 296 297 299 301 303 304 304 305 303 304 302 301 299 300 300 299 299 299 300 300 300 301 300 298 301 306 312 315 321 324 326 328 329
293 293 291 290 290 290 291 291 293 293 294 294 295 295 297 299 301 301 301 300 299 298 298 296 296 296 295 295 295 296 293 287 289 290 295 301 307 314 318 323 325 329 330
294 295 292 294 293 291 290 291 291 291 291 292 293 294 295 295 297 298 298 297 296 295 295 295 294 293 293 292 292 289 286 285 287 286 292 300 307 315 320 320 324 323 323

GFSGL_sfc_thetae_108.txt.gz
Theta_e
336 339 342 346 351 350 348 348 348 346 344 340 346 344 347 350 351 349 346 349 346 346 347 346 345 348 348 345 347 345 342 342 336 338 342 345 348 349 351 351 357 357 348
339 341 343 346 349 349 350 348 348 346 344 339 341 337 340 346 349 349 348 349 346 346 346 347 347 350 346 347 347 346 345 345 343 338 342 345 346 347 348 348 347 351 348
341 340 342 343 347 350 348 350 348 346 345 342 339 337 337 345 350 350 349 346 348 347 346 347 348 346 344 344 345 344 343 347 346 343 341 345 345 347 346 342 341 345 344
338 339 339 339 341 344 346 348 350 349 345 344 341 340 344 348 350 350 351 350 350 349 349 350 350 349 345 344 345 346 344 343 343 342 342 342 343 342 342 339 340 341 342
334 336 338 338 339 340 340 340 347 349 351 350 348 348 350 349 352 349 349 349 349 349 350 350 351 351 348 347 352 348 347 345 343 343 340 338 338 337 338 341 337 339 341
331 334 335 335 336 337 338 339 340 341 346 347 349 351 350 356 344 340 348 349 348 349 347 347 348 349 348 343 341 342 345 344 341 337 335 334 333 335 338 339 337 335 335
326 326 328 331 330 332 335 336 337 337 339 340 343 346 348 350 340 336 336 341 346 348 348 347 348 352 346 349 343 338 335 335 338 339 335 333 333 336 337 335 335 336 337
321 321 324 327 328 329 331 331 333 336 338 339 338 339 340 347 333 331 333 339 340 341 343 347 348 349 347 346 347 347 349 349 341 339 339 341 339 341 338 339 338 340 343
317 317 319 321 321 324 326 329 331 332 334 335 338 338 338 340 329 328 331 340 343 344 345 345 346 347 340 336 346 346 346 348 345 334 334 333 333 333 337 343 341 339 339
312 314 315 316 317 318 319 324 328 326 328 331 334 336 332 338 330 325 329 339 340 344 346 347 333 336 323 321 337 344 344 345 346 349 350 341 335 340 332 342 345 339 338
312 312 313 313 313 314 315 318 320 323 327 327 326 328 334 335 336 324 323 337 339 341 343 345 343 318 315 315 317 329 333 334 335 337 341 346 348 348 346 343 343 344 342
308 309 309 310 313 315 313 315 315 316 319 322 323 324 324 324 321 316 315 318 324 333 333 335 331 314 311 313 320 325 320 322 331 334 336 337 340 344 348 350 350 347 349
305 305 306 307 308 309 309 310 311 312 313 315 320 320 318 320 322 316 315 317 319 325 329 326 316 312 311 317 319 321 321 330 331 332 337 339 341 343 343 343 345 348 349
302 303 305 305 307 307 307 308 308 308 308 310 311 312 317 317 319 319 322 319 318 320 323 323 321 317 316 319 320 329 334 337 338 338 339 341 342 341 341 342 342 344 342
301 303 303 305 304 306 307 305 307 307 307 306 306 309 313 313 317 313 314 316 314 311 312 315 317 317 319 321 325 331 335 340 342 343 342 341 341 342 341 343 341 341 340
298 299 300 301 302 304 304 305 306 303 303 300 299 301 307 306 303 301 300 298 298 302 314 313 314 314 315 319 324 329 333 334 338 341 343 342 342 342 342 343 342 342 341
296 297 298 300 301 301 301 301 301 305 304 302 301 301 299 299 298 297 296 295 297 301 311 311 312 314 318 327 325 326 329 333 335 338 340 342 343 344 341 342 343 343 342
297 302 297 297 298 299 299 300 301 301 302 304 305 303 302 299 298 297 293 296 303 302 310 311 313 319 317 318 319 317 319 320 325 329 333 339 341 342 341 340 341 340 338
297 297 298 297 297 299 298 298 299 301 301 302 305 304 305 301 301 297 295 302 306 310 312 313 316 314 313 315 314 314 316 318 316 321 326 332 336 338 339 339 338 323 326
295 302 301 295 295 296 297 298 298 299 299 300 301 303 306 305 306 308 310 311 310 312 313 312 311 311 312 311 310 310 310 311 314 315 317 322 328 332 334 338 337 334 333
294 294 300 294 294 295 296 296 296 297 298 298 299 302 300 301 304 305 308 306 309 309 309 308 308 305 307 307 307 306 308 309 309 310 312 315 320 320 325 329 334 335 336
293 292 292 291 292 292 293 294 294 294 295 295 297 299 298 302 303 305 305 304 305 307 307 306 305 304 305 304 303 304 303 304 305 306 307 309 309 311 315 320 324 328 331
292 291 290 290 291 293 291 291 291 292 293 294 294 295 296 299 302 303 305 306 303 301 304 302 302 302 302 301 301 301 299 300 301 302 301 302 302 304 309 313 317 321 324
292 291 290 290 289 289 289 289 290 291 291 291 292 294 294 295 295 297 300 303 302 300 298 300 300 299 299 299 298 298 297 297 298 296 295 295 296 299 304 308 314 319 322
291 291 290 289 289 288 288 290 291 291 291 291 291 292 293 294 294 294 297 299 299 298 298 296 297 297 295 293 293 291 291 287 288 289 290 292 293 297 300 304 308 315 320
291 292 291 290 289 289 291 289 290 290 290 290 290 290 290 291 293 294 295 296 297 296 296 296 295 294 291 291 290 288 285 284 286 286 288 290 293 297 302 306 310 314 319

GFSGL_sfc_thetae_111.txt.gz
Theta_e
339 340 340 343 346 343 341 342 343 344 344 346 345 348 348 348 348 346 344 344 344 343 345 345 344 344 346 343 345 343 341 340 336 339 340 343 344 346 346 347 348 347 344
338 339 340 341 343 345 347 349 348 344 344 342 341 342 344 345 347 348 346 347 345 343 343 343 343 348 343 343 344 343 343 342 340 335 340 341 344 345 345 342 343 347 342
340 339 338 339 342 346 347 349 347 345 344 342 337 340 339 341 345 347 347 346 345 345 345 343 344 344 342 341 341 341 341 344 342 340 339 342 344 344 342 342 341 340 345
338 338 338 338 341 341 344 345 347 346 344 343 339 337 338 337 343 348 349 348 347 347 347 347 347 347 345 344 343 343 343 341 340 339 339 340 340 339 340 337 337 336 339
335 337 337 337 339 338 338 338 341 344 347 346 344 342 341 343 346 346 347 347 347 347 348 349 349 349 346 344 348 347 345 343 341 339 338 336 335 334 332 336 335 335 337
333 332 334 332 337 337 337 337 337 339 341 343 345 348 346 352 341 337 345 347 347 346 345 346 347 346 345 340 339 339 345 344 341 338 336 334 333 333 334 336 333 332 331
323 324 326 328 329 332 334 334 335 335 339 339 339 340 340 343 329 330 335 342 345 345 345 346 347 351 344 347 342 336 336 334 339 342 337 335 333 335 335 333 333 333 333
316 316 318 320 324 328 329 327 329 332 331 334 337 338 337 341 327 327 331 337 340 340 340 342 344 346 346 346 346 344 344 346 343 338 338 340 338 340 338 338 337 336 338
314 313 314 315 317 318 320 326 328 329 330 331 333 335 335 337 328 324 330 339 340 340 342 343 344 344 334 329 340 342 343 345 341 334 332 331 331 331 334 339 337 335 339
311 311 312 314 315 315 315 318 322 326 328 329 330 332 330 337 329 326 329 339 337 339 341 343 325 328 318 318 332 336 337 340 341 338 340 340 337 339 331 339 342 339 339
308 309 309 308 310 311 311 312 314 316 319 322 327 327 329 330 331 317 318 336 335 338 340 341 339 320 316 314 315 332 334 336 336 337 338 338 340 343 346 341 342 344 341
307 306 306 307 309 309 307 309 310 311 312 313 317 318 321 322 320 315 314 319 324 327 326 331 329 312 310 310 314 320 320 321 331 334 337 336 337 339 343 346 348 345 348
304 304 304 306 306 307 305 305 306 306 308 309 310 310 312 318 319 314 314 318 319 321 323 323 314 311 311 315 318 317 318 326 330 331 333 335 339 341 341 340 341 347 348
300 301 302 302 303 304 305 305 304 304 304 305 306 306 308 311 313 316 316 317 316 317 318 316 317 315 314 316 318 324 328 330 331 333 335 339 342 339 338 340 338 340 338
298 299 299 300 300 301 302 303 303 302 301 301 303 303 304 306 309 304 301 305 310 309 310 315 315 315 315 315 318 323 327 329 331 334 337 338 340 341 341 342 340 339 337
296 296 297 297 298 299 299 299 302 302 301 298 298 299 304 303 299 298 296 295 296 302 310 312 312 313 314 315 318 322 324 326 326 325 328 332 334 338 340 342 342 340 338
295 295 296 297 297 296 297 297 297 300 301 301 299 299 298 298 297 297 294 293 298 302 306 307 308 312 313 317 317 315 313 315 316 319 323 323 327 333 336 340 340 340 339
294 301 295 295 295 295 296 296 296 296 297 299 300 300 299 298 298 296 294 300 305 302 303 306 309 311 315 314 311 310 310 311 313 314 314 319 323 325 328 333 335 336 336
295 295 295 294 294 295 295 295 296 296 296 296 298 299 300 299 297 298 296 302 305 307 308 309 310 315 315 312 310 311 311 310 311 312 313 312 313 317 321 324 328 320 324
294 300 298 292 292 292 293 293 293 293 293 294 295 296 299 299 299 301 303 306 308 311 311 312 310 310 309 308 309 308 308 307 308 308 308 310 311 312 313 316 317 319 324
293 292 298 291 290 291 291 291 291 291 291 291 292 295 296 294 296 298 301 303 305 309 309 308 307 307 307 307 304 306 306 306 306 305 305 306 308 309 310 309 310 314 318
292 291 290 289 290 290 290 290 290 290 290 290 291 292 294 293 294 295 297 300 306 307 306 303 302 303 301 304 304 303 303 302 303 302 302 303 303 303 305 306 306 308 313
291 290 289 289 289 292 289 289 288 289 289 291 290 290 291 291 292 293 294 295 297 299 304 302 301 300 300 300 302 301 300 300 300 300 299 298 298 299 299 300 302 303 306
291 290 290 289 289 288 288 288 288 289 289 289 291 290 290 290 291 292 294 294 295 296 300 301 300 299 299 299 298 298 299 298 298 297 297 295 294 295 297 298 300 303 305
291 290 289 289 288 288 288 288 287 288 288 289 290 291 290 290 290 290 291 293 294 294 295 297 299 298 297 297 296 295 292 287 289 290 291 291 291 293 294 296 298 300 303
290 291 290 289 289 288 288 287 287 287 286 289 290 290 289 289 289 290 290 291 292 293 294 295 296 296 296 296 294 291 287 285 287 286 287 289 290 293 294 296 299 301 303

GFSGL_sfc_thetae_114.txt.gz
Theta_e
345 346 345 346 347 345 342 342 346 350 349 349 348 350 351 352 352 352 352 351 351 351 352 352 351 351 353 353 352 350 350 348 345 348 348 353 355 357 357 356 354 355 351
340 341 341 343 345 348 348 346 345 346 348 349 349 348 351 351 353 351 351 352 350 349 350 350 350 351 352 352 350 351 351 350 348 345 349 350 354 356 356 356 350 348 351
340 340 339 341 342 344 348 350 351 349 347 345 344 345 346 348 349 352 351 351 351 350 350 350 350 351 351 349 349 349 349 349 350 348 347 350 352 352 352 352 351 351 348
338 338 336 339 341 342 346 349 351 350 348 347 344 342 344 345 346 348 351 351 350 351 351 352 351 352 352 353 351 352 352 350 349 348 348 348 349 350 347 344 346 348 347
337 337 336 338 340 340 341 342 344 348 349 349 347 347 345 343 343 345 350 352 352 352 353 353 354 352 346 348 353 356 353 352 350 349 348 346 345 344 344 344 344 345 349
331 330 331 333 336 337 338 338 340 342 343 344 344 346 349 350 331 335 343 351 351 351 350 352 354 348 348 339 338 338 348 353 352 348 347 345 347 344 344 344 344 344 344
322 322 324 330 330 331 332 335 337 337 337 339 339 340 342 342 327 328 335 348 350 351 351 351 350 351 349 353 342 336 337 334 340 354 349 348 346 348 347 347 346 344 345
316 316 318 320 322 326 330 330 329 331 331 334 336 338 339 340 327 325 330 345 346 346 346 346 347 349 349 347 350 350 351 352 351 346 348 351 350 351 348 350 348 347 348
313 314 316 317 317 318 320 324 326 330 331 332 335 336 337 339 326 324 331 342 343 344 347 348 348 348 325 325 345 347 348 350 342 333 333 332 332 331 336 346 346 345 345
311 312 313 315 314 315 316 318 321 324 327 330 329 330 328 338 319 320 327 339 341 342 345 343 324 329 318 317 338 342 342 345 347 348 349 346 338 344 331 345 349 345 346
310 311 311 311 312 312 314 314 314 317 318 320 324 326 327 327 326 315 317 333 335 336 337 338 339 323 318 315 314 329 336 336 337 341 343 345 347 348 349 350 349 348 346
309 309 308 309 310 309 310 310 310 311 312 313 314 314 317 321 318 317 313 315 321 326 328 331 332 312 308 310 315 317 316 318 330 334 336 339 340 342 345 348 353 352 352
305 305 306 307 307 308 307 307 307 307 307 309 310 310 311 314 316 312 311 310 315 323 325 321 313 311 312 317 316 315 317 333 334 334 335 337 340 343 347 349 351 352 353
302 303 304 304 304 305 305 306 305 305 305 306 307 307 308 310 311 309 308 310 313 317 317 318 317 315 314 317 322 327 332 334 335 334 334 338 342 343 344 346 345 346 344
300 301 301 302 302 302 303 304 304 305 304 305 305 305 306 307 307 300 300 304 303 304 306 319 320 319 319 320 323 327 329 332 328 326 326 328 330 334 335 340 342 342 340
299 299 300 300 300 300 300 300 301 300 299 297 297 301 306 302 298 297 295 294 296 300 312 315 313 315 315 317 321 325 326 320 320 319 323 323 321 324 328 333 336 339 338
298 299 299 299 299 299 299 298 297 300 300 299 297 298 297 296 297 296 293 294 298 302 310 312 312 314 315 317 322 321 317 316 317 317 314 314 317 319 322 324 328 329 331
300 300 298 298 298 298 298 298 298 297 296 297 299 298 297 296 296 296 296 300 307 308 311 312 313 315 316 318 317 315 315 314 313 313 313 316 315 314 314 315 318 321 323
298 298 298 297 298 297 297 296 296 295 295 295 296 296 297 295 295 296 296 304 304 304 309 312 316 314 312 311 311 311 311 311 310 309 310 310 311 313 312 313 315 309 310
299 300 297 295 295 295 295 294 294 293 293 293 293 294 296 295 295 296 298 300 303 305 307 310 311 309 309 308 308 308 307 308 309 309 308 307 307 309 308 310 311 309 309
297 300 297 294 294 294 294 293 293 293 292 292 293 294 293 293 293 294 295 297 297 299 302 304 308 308 306 306 305 305 305 304 305 306 306 306 306 305 306 305 306 307 308
295 295 294 294 294 294 294 294 293 293 293 292 292 293 292 293 293 293 294 295 296 298 299 299 300 303 303 303 303 303 303 302 303 304 303 303 303 302 302 303 303 302 304
295 294 294 294 294 294 294 294 293 293 293 293 293 292 293 292 292 291 291 292 293 295 297 297 297 298 301 302 302 301 300 300 302 302 300 299 298 299 298 297 298 298 300
295 295 294 294 294 294 294 294 294 292 293 293 293 293 292 292 291 291 292 291 292 294 295 295 296 295 296 298 300 300 299 299 298 297 297 295 295 295 295 296 296 297 298
295 295 294 294 294 294 294 294 294 294 293 293 293 292 292 292 291 291 291 291 291 291 292 294 294 295 295 296 297 298 296 288 292 291 293 292 292 292 292 293 294 295 296
295 295 294 294 293 293 294 294 294 294 293 293 293 293 292 291 290 290 290 291 291 291 291 292 293 294 295 295 295 292 288 285 288 286 289 289 289 291 292 293 295 296 297

GFSGL_sfc_thetae_117.txt.gz
Theta_e
355 358 357 356 354 356 354 356 358 359 360 360 361 361 361 361 362 362 362 361 359 360 361 361 361 362 359 360 361 360 357 355 345 348 356 359 362 364 364 363 357 353 352
354 356 355 355 357 356 355 353 355 356 359 359 360 359 359 361 361 361 358 357 359 358 358 360 359 356 361 362 357 360 359 361 353 353 358 356 360 364 363 362 356 353 357
352 352 351 352 352 355 357 359 358 358 359 358 357 357 357 359 361 360 361 359 358 359 359 358 358 359 360 357 359 357 358 359 359 354 354 358 359 360 359 361 360 362 355
346 342 344 346 347 347 352 359 360 361 360 358 357 356 355 355 356 358 360 360 360 359 360 359 358 359 359 361 360 362 361 360 361 357 354 353 356 361 358 354 352 357 357
341 341 341 343 345 347 347 351 358 361 360 359 358 357 354 353 351 354 356 357 358 357 358 360 360 356 348 350 361 365 361 354 351 350 349 351 350 352 353 353 352 353 358
335 338 338 342 342 340 343 346 349 353 355 356 356 358 358 356 329 334 346 354 359 360 360 361 362 353 352 339 338 338 349 360 361 351 351 351 356 355 352 351 349 346 341
324 329 330 335 338 339 339 339 341 343 350 350 350 350 348 348 327 330 337 359 361 361 362 362 361 356 353 360 346 337 338 335 339 360 357 357 356 358 359 356 356 354 352
319 323 325 327 331 334 337 338 339 340 342 343 345 347 348 344 325 325 331 357 359 358 358 358 358 359 355 351 358 359 359 360 360 356 359 360 361 362 362 360 359 358 357
316 319 321 326 326 324 325 329 335 336 338 338 341 342 345 344 325 325 337 348 352 352 353 353 353 357 323 323 352 356 357 358 344 336 334 332 333 333 338 352 352 351 349
315 315 318 320 321 320 321 321 326 330 332 334 338 340 329 334 317 317 328 337 336 339 344 339 325 329 320 318 338 346 350 354 354 355 356 351 342 354 332 352 354 350 349
315 315 314 316 316 318 319 321 323 325 327 328 330 332 333 327 321 312 313 332 329 329 330 331 336 317 312 312 315 334 334 331 333 340 346 349 352 353 354 358 361 355 349
313 312 312 312 313 314 318 317 319 320 320 321 321 321 320 323 311 310 309 310 316 327 328 329 329 311 309 310 318 316 316 320 334 334 335 337 339 342 345 350 354 355 356
310 310 311 312 312 312 313 313 312 316 316 317 317 317 317 319 318 310 309 310 312 322 326 319 313 310 312 319 317 316 320 337 337 335 335 337 341 343 348 349 351 355 357
309 309 309 309 309 310 309 309 310 311 313 313 313 313 315 316 313 313 315 318 315 317 314 322 319 316 313 318 324 329 334 335 334 333 331 332 335 335 335 338 338 343 343
307 308 307 307 307 307 307 306 308 307 307 309 310 312 312 311 307 301 301 309 310 309 311 322 320 320 321 323 325 328 331 330 326 326 326 327 326 326 327 330 331 333 336
307 306 305 305 305 305 306 305 300 300 298 297 297 301 307 300 297 296 294 294 296 299 314 316 316 317 318 319 321 323 327 326 326 325 325 322 322 323 322 324 326 327 327
307 306 304 304 304 303 304 304 303 301 299 297 296 296 296 295 295 295 294 295 299 303 313 314 315 316 316 318 320 321 323 324 325 323 322 321 322 322 319 320 321 322 322
307 303 304 303 303 302 302 301 302 301 300 301 298 297 295 294 294 294 295 298 307 307 310 311 314 316 315 315 315 315 315 315 316 319 318 318 319 319 319 319 319 319 319
306 304 304 303 302 301 301 301 301 300 300 299 300 298 298 294 294 294 296 304 303 305 308 309 311 313 313 314 314 314 313 313 312 314 317 316 313 310 312 314 316 309 311
305 303 303 301 301 301 301 301 300 300 299 299 298 298 299 299 299 300 301 301 301 302 303 303 303 303 306 311 312 312 312 312 312 312 312 312 312 311 308 308 311 311 311
305 303 301 301 301 301 301 301 300 300 300 299 299 297 292 297 297 298 298 299 299 300 300 301 301 303 303 303 304 304 305 306 307 307 308 308 307 306 306 305 305 305 307
304 303 301 301 301 301 301 301 301 301 301 300 300 299 293 298 298 298 298 297 297 297 298 298 299 300 300 300 301 301 300 301 301 302 303 304 304 303 303 302 301 301 302
303 302 301 301 301 300 300 301 301 302 302 302 301 299 299 298 298 297 297 297 297 296 295 295 295 296 297 297 299 300 299 299 300 300 298 298 298 297 298 298 298 298 298
304 303 302 301 301 301 301 301 301 296 300 302 302 301 300 299 298 297 297 297 295 294 294 294 294 294 295 296 296 297 299 300 300 300 299 297 296 295 295 295 296 296 297
301 302 303 302 302 301 301 301 301 302 302 302 301 301 301 300 299 298 297 296 295 293 293 293 294 293 293 294 295 295 294 286 292 291 293 293 292 292 293 293 293 294 295
301 301 303 303 303 303 302 301 301 302 302 302 302 302 301 300 300 298 297 296 294 293 292 292 292 292 292 293 294 291 287 285 289 286 289 290 290 290 291 292 293 294 296

GFSGL_sfc_thetae_120.txt.gz
Theta_e
357 357 359 357 359 362 358 361 364 363 363 362 362 360 360 360 362 365 361 360 361 361 362 361 361 365 355 356 356 355 353 351 345 346 350 358 364 361 362 365 358 355 352
357 358 356 358 358 357 360 361 363 366 367 365 363 361 361 360 362 361 358 356 358 357 358 359 359 355 361 362 355 360 358 359 352 353 357 354 358 364 366 366 360 352 357
358 356 356 356 356 357 358 358 361 362 364 365 365 364 359 360 361 360 360 359 358 357 357 358 358 360 360 358 360 357 354 356 357 352 351 354 355 358 360 362 361 362 352
356 355 356 357 357 357 360 361 364 363 364 364 365 364 362 361 362 360 360 360 359 356 357 358 358 358 359 359 358 360 359 356 356 352 349 349 350 358 359 352 350 352 351
349 350 351 352 356 356 356 360 363 362 358 360 363 363 361 359 357 361 360 360 358 357 356 358 358 356 350 351 354 360 362 355 348 346 345 345 346 351 353 351 349 348 353
345 345 346 349 349 349 351 352 356 361 362 363 362 361 360 357 332 337 348 359 359 359 358 359 361 355 353 342 341 341 349 363 359 352 349 349 357 355 352 350 352 348 345
336 344 343 346 347 348 348 349 347 351 357 358 360 359 358 355 328 330 338 360 361 361 362 360 357 352 354 359 345 340 340 337 339 361 357 356 357 359 362 360 362 357 355
325 328 333 337 340 342 344 345 347 348 349 350 352 354 350 341 325 327 333 361 363 362 361 361 361 361 344 350 360 360 360 360 362 359 362 361 365 366 365 364 362 363 361
321 322 325 327 329 330 333 339 344 345 346 347 347 350 339 333 317 319 334 356 355 355 351 345 353 342 325 324 350 357 359 360 346 338 335 333 334 334 340 354 353 355 350
321 319 322 325 327 325 325 333 337 342 338 343 340 337 330 331 312 313 326 345 345 346 347 345 325 326 317 318 336 345 348 352 346 349 351 351 345 356 335 359 360 353 354
317 318 319 324 322 325 329 331 330 334 338 333 332 333 327 324 318 311 311 333 331 334 333 337 335 316 312 312 314 337 333 329 333 338 343 346 349 351 351 361 363 355 350
316 315 316 317 318 320 324 327 330 331 330 330 331 330 328 326 312 311 310 312 317 331 331 330 329 311 309 311 319 317 317 321 337 338 338 339 341 343 345 349 354 354 355
315 315 315 315 315 316 318 319 319 324 326 326 326 326 325 325 323 312 311 312 315 324 323 318 313 310 312 318 316 318 319 335 335 334 334 337 337 338 344 347 348 354 355
315 315 315 315 315 314 313 314 315 316 316 316 318 320 322 321 316 317 319 321 317 321 319 325 322 318 316 322 324 329 333 333 331 328 329 330 332 332 330 332 332 333 332
314 314 314 313 313 312 310 310 309 306 307 314 315 313 313 312 306 301 301 309 313 311 309 321 320 320 320 321 323 325 326 329 330 329 328 328 328 329 329 331 329 329 327
313 312 311 311 311 310 309 307 300 300 298 297 296 302 306 298 296 296 295 295 296 298 313 316 317 318 319 319 320 321 324 325 328 327 326 326 325 325 326 326 326 325 324
312 312 309 309 309 309 309 308 304 300 298 296 295 295 295 293 294 294 294 295 297 302 313 314 316 317 318 319 319 319 319 321 324 323 323 324 323 324 323 323 323 323 322
312 304 310 309 309 308 308 308 308 307 306 304 297 298 295 294 294 294 295 299 309 309 311 312 312 313 315 316 317 317 317 317 317 318 318 320 322 321 319 319 320 320 320
310 309 309 309 308 307 307 307 306 307 306 306 307 300 300 296 295 295 296 307 306 306 307 307 308 309 309 311 314 315 315 315 314 315 316 317 316 315 316 315 316 310 312
310 306 309 307 305 307 307 307 306 306 306 305 305 303 303 305 305 305 306 305 305 305 305 305 306 306 307 308 308 308 309 308 309 309 309 310 310 310 309 310 310 310 311
308 306 308 307 307 307 307 307 307 307 307 307 306 299 291 301 303 303 303 304 303 303 303 303 303 304 305 306 305 304 303 302 303 304 304 305 307 306 306 306 305 305 305
308 306 305 305 306 306 306 306 306 306 307 307 307 302 295 302 304 303 303 303 303 303 302 302 301 301 301 302 301 299 300 300 301 301 301 300 300 299 300 300 300 301 301
308 308 306 306 306 304 304 306 305 305 306 307 308 307 306 306 305 304 303 303 303 302 302 301 300 299 299 298 298 298 296 297 298 299 298 299 299 298 298 297 297 297 297
309 308 306 306 306 305 305 305 306 299 303 305 306 305 305 306 305 303 303 303 302 302 301 300 299 296 296 296 296 297 296 297 296 295 295 295 294 295 296 296 296 296 296
307 308 307 306 306 305 306 305 306 306 306 306 306 305 306 306 305 305 304 304 302 301 300 299 297 296 295 295 295 295 292 285 291 290 293 294 293 293 293 293 294 294 295
305 304 305 307 307 307 307 306 306 306 305 306 306 306 306 306 306 306 305 304 303 302 301 299 296 295 295 295 295 290 286 284 289 286 289 290 290 291 292 293 293 294 294